     2.11           OBSERVATION DATA    G (GPS)             RINEX VERSION / TYPE
teqc 2010Oct21 OPUS Account 20111027 15:15:49UTC            PGM / RUN BY / DATE
Q 1522                                                      MARKER NAME
1170                                                        MARKER NUMBER
DBPROUTY NGS                                                OBSERVER / AGENCY
4624K01634 TRIMBLE NETR5 NP 70.55 / SP 451.54               REC # / TYPE / VERS
12668881 TRM41249.00 NONE                                   ANT # / TYPE
  -738054.2760 -5496299.6545  3140268.1093                  APPROX POSITION XYZ
        2.0000        0.0000        0.0000                  ANTENNA: DELTA H/E/N
     1     1                                                WAVELENGTH FACT L1/2
     5    L1    L2    C1    P1    P2                        # / TYPES OF OBSERV
    30.0000                                                 INTERVAL
  2011     8    15     0     0    0.0000000     GPS         TIME OF FIRST OBS
                                                            END OF HEADER
 11  8 15  0  0  0.0000000  0  8G10G28G09G12G17G05G04G02
 -17134984.68348 -13287715.06945  21326519.1804                   21326520.2114
  -4428002.23447  -3403097.69143  23867608.5784                   23867610.7894
  -8472337.92447  -5870002.38745  22641216.4774                   22641218.0784
 -11763141.790 7  -9147510.941 6  22529812.508
 -12436985.804 7  -9645399.389 7  22386681.961
  -5653454.252 7  -4389921.597 6  23642803.781
 -21732343.29548 -16769357.20546  20573309.9534                   20573310.7194
 -19841234.42848 -15412910.40746  20830785.1954                   20830783.4884
 11  8 15  0  0 30.0000000  0  8G10G28G09G12G17G05G04G02
 -17186137.94948 -13327574.73245  21316784.8674                   21316786.0354
  -4330604.56046  -3327203.47443  23886142.1644                   23886145.0514
  -8416233.27747  -5826284.51544  22651892.3204                   22651894.3754
 -11848660.532 7  -9214148.882 6  22513538.820
 -12393536.247 7  -9611542.641 7  22394949.664
  -5759155.089 7  -4472285.768 6  23622689.516
 -21676017.83348 -16725467.24646  20584028.3204                   20584029.0944
 -19870724.96948 -15435890.03546  20825173.7504                   20825172.0704
 11  8 15  0  1  0.0000000  0  8G10G28G09G12G17G05G04G02
 -17236780.04948 -13367036.07145  21307148.2034                   21307149.3244
  -4232973.04246  -3251127.07743  23904721.4774                   23904724.1334
  -8359698.71647  -5782231.68745  22662650.4454                   22662652.7544
 -11933943.170 7  -9280602.867 6  22497310.023
 -12349971.654 7  -9577596.240 7  22403240.000
  -5864802.243 7  -4554608.053 6  23602585.156
 -21619357.35948 -16681316.24446  20594810.7664                   20594811.1764
 -19899854.36148 -15458588.24946  20819630.0474                   20819628.8054
 11  8 15  0  1 30.0000000  0  8G10G28G09G12G17G05G04G02
 -17286909.68148 -13406098.10445  21297608.9454                   21297610.2074
  -4135110.46746  -3174870.66943  23923344.6564                   23923348.0004
  -8302738.29447  -5737846.99645  22673489.8204                   22673491.9384
 -12018987.967 7  -9346871.503 6  22481126.484
 -12306292.393 7  -9543560.476 7  22411552.148
  -5970393.928 7  -4636887.105 6  23582491.297
 -21562364.84848 -16636906.50446  20605655.6414                   20605656.9414
 -19928624.09548 -15481006.21046  20814155.3204                   20814153.9024
 11  8 15  0  2  0.0000000  0  8G10G28G09G12G17G05G04G02
 -17336523.94948 -13444758.54345  21288167.2194                   21288168.4694
  -4037017.94346  -3098435.04343  23942011.0474                   23942013.4104
  -8245354.34547  -5693132.27845  22684409.9454                   22684412.2034
 -12103791.799 7  -9412952.355 7  22464988.773
 -12262497.308 7  -9509434.473 7  22419885.648
  -6075926.779 7  -4719120.377 6  23562409.797
 -21505042.30048 -16592239.60346  20616564.2664                   20616565.0664
 -19957034.02648 -15503143.79846  20808749.1174                   20808747.6414
 11  8 15  0  2 30.0000000  0  8G10G28G09G12G17G05G04G02
 -17385621.13848 -13483016.07545  21278824.4384                   21278825.7814
  -3938698.46846  -3021822.54543  23960720.3054                   23960723.3714
  -8187550.55847  -5648090.43044  22695409.4384                   22695411.8954
 -12188352.728 7  -9478843.937 7  22448897.023
 -12218586.682 7  -9475218.429 7  22428241.594
  -6181398.391 7  -4801305.913 6  23542338.625
 -21447392.80348 -16547317.93346  20627534.1564                   20627535.3634
 -19985085.22548 -15525001.86746  20803411.4064                   20803409.4024
 11  8 15  0  3  0.0000000  0  8G10G28G09G12G17G05G04G02
 -17434198.55748 -13520868.58745  21269580.2664                   21269581.4304
  -3840153.56446  -2945034.44143  23979472.7814                   23979476.1524
  -8129330.26347  -5602724.06044  22706488.3674                   22706491.1524
 -12272667.860 7  -9544544.009 7  22432852.641
 -12174559.617 7  -9440911.658 7  22436619.922
  -6286805.725 7  -4883441.329 6  23522280.328
 -21389418.40148 -16502143.09346  20638566.3284                   20638567.2814
 -20012778.07948 -15546580.68946  20798141.5004                   20798139.3134
 11  8 15  0  3 30.0000000  0  8G10G28G09G12G17G05G04G02
 -17482253.81448 -13558314.22145  21260436.0234                   21260437.1134
  -3741385.21846  -2868072.16443  23998268.5394                   23998270.1454
  -8070696.56747  -5557035.49944  22717645.5394                   22717647.9924
 -12356734.826 7  -9610050.717 6  22416855.031
 -12130415.758 7  -9406513.902 7  22445020.172
  -6392146.048 7  -4965524.544 6  23502234.906
 -21331121.68148 -16456717.08646  20649660.1024                   20649660.7304
 -20040113.19548 -15567880.76846  20792939.5554                   20792937.9414
 11  8 15  0  4  0.0000000  0  8G10G28G09G12G17G05G04G02
 -17529784.10648 -13595350.79745  21251391.5164                   21251392.4104
  -3642395.12646  -2790937.20143  24017105.3834                   24017107.9454
  -8011651.98447  -5511026.78944  22728881.4774                   22728884.3674
 -12440550.975 7  -9675361.989 6  22400905.141
 -12086154.494 7  -9372024.629 7  22453443.125
  -6497416.339 7  -5047553.217 6  23482202.094
 -21272504.65848 -16411041.50046  20660814.2424                   20660814.6214
 -20067090.44848 -15588901.98746  20787805.9224                   20787804.4964
 11  8 15  0  4 30.0000000  0  8G10G28G09G12G17G05G04G02
 -17576787.37748 -13631976.70245  21242446.6254                   21242447.8164
  -3543185.18646  -2713630.86343  24035984.3754                   24035987.2194
  -7952199.79347  -5464700.47345  22740195.8524                   22740197.8954
 -12524113.563 7  -9740475.678 7  22385003.797
 -12041775.171 7  -9337443.383 7  22461888.438
  -6602613.468 7  -5129524.882 6  23462184.469
 -21213569.73648 -16365118.20246  20672029.6024                   20672030.2974
 -20093710.37548 -15609644.78446  20782740.5784                   20782738.7704
 11  8 15  0  5  0.0000000  0  8G10G28G09G12G17G05G04G02
 -17623261.59848 -13668190.35846  21233603.0474                   21233604.2934
  -3443757.45746  -2636154.79043  24054904.2974                   24054907.5084
  -7892343.45147  -5418059.21445  22751585.7664                   22751588.7074
 -12607420.204 7  -9805389.923 7  22369151.063
 -11997277.198 7  -9302769.674 7  22470355.867
  -6707734.941 7  -5211437.605 6  23442179.563
 -21154319.56548 -16318949.25546  20683304.1094                   20683304.9024
 -20119973.79848 -15630109.76746  20777742.8284                   20777741.3674
 11  8 15  0  5 30.0000000  0  8G10G28G09G12G17G05G04G02
 -17669203.80148 -13703989.46146  21224860.8364                   21224861.4064
  -3344113.40546  -2558510.20943  24073866.7034                   24073869.4694
  -7832085.52547  -5371105.07344  22763052.3284                   22763054.7544
 -12690467.661 7  -9870102.218 7  22353348.195
 -11952659.856 7  -9268002.940 7  22478846.258
  -6812777.379 7  -5293288.736 6  23422190.633
 -21094755.68648 -16272535.85546  20694638.8364                   20694639.5704
 -20145880.55248 -15650296.84246  20772812.9534                   20772810.8364
 11  8 15  0  6  0.0000000  0  8G10G28G09G12G17G05G04G02
 -17714612.40948 -13739372.77246  21216219.7974                   21216220.5704
  -3244255.33246  -2480698.87443  24092868.6724                   24092872.2894
  -7771429.66447  -5323840.81544  22774594.1564                   22774597.9534
 -12773254.322 8  -9934611.298 7  22337593.680
 -11907923.097 7  -9233143.175 7  22487359.016
  -6917737.876 7  -5375076.020 6  23402217.664
 -21034881.08848 -16225880.34246  20706032.9064                   20706034.0434
 -20171431.93648 -15670206.99646  20767950.2504                   20767948.5904
 11  8 15  0  6 30.0000000  0  8G10G28G09G12G17G05G04G02
 -17759485.39348 -13774338.70646  21207680.5704                   21207681.2814
  -3144185.48746  -2402722.48943  24111911.5314                   24111915.0124
  -7710379.28747  -5276269.14344  22786212.3754                   22786214.8914
 -12855777.661 7  -9998915.183 7  22321890.828
 -11863066.256 7  -9198189.822 7  22495895.531
  -7022614.766 7  -5456798.181 6  23382259.961
 -20974698.52948 -16178984.85946  20717485.2504                   20717485.9494
 -20196628.28548 -15689840.50746  20763156.1024                   20763153.7974
 11  8 15  0  7  0.0000000  0  8G10G28G09G12G17G05G04G02
 -17803819.78248 -13808884.95646  21199243.8444                   21199244.9884
  -3043905.43946  -2324582.29143  24130994.2504                   24130997.6994
  -7648936.75147  -5228391.89644  22797904.1644                   22797907.0864
 -12938034.463 7 -10063011.377 7  22306237.547
 -11818088.673 7  -9163142.373 7  22504454.508
  -7127403.596 7  -5538451.695 6  23362318.531
 -20914209.81148 -16131850.82446  20728995.9304                   20728996.7344
 -20221470.01548 -15709197.69146  20758428.9224                   20758426.8244
 11  8 15  0  7 30.0000000  0  8G10G28G09G12G17G05G04G02
 -17847613.57248 -13843009.97346  21190910.3524                   21190911.3324
  -2943417.51546  -2246280.10243  24150116.1644                   24150120.5394
  -7587105.72446  -5180211.91844  22809670.2194                   22809672.3554
 -13020022.337 7 -10126898.018 7  22290635.969
 -11772990.028 7  -9128000.598 7  22513036.750
  -7232101.685 7  -5620034.493 6  23342395.492
 -20853417.28748 -16084480.03246  20740564.2664                   20740565.5084
 -20245957.62648 -15728278.92746  20753769.0784                   20753767.2974
 11  8 15  0  8  0.0000000  0  8G10G28G09G12G17G05G04G02
 -17890864.39048 -13876711.89445  21182679.5004                   21182680.7274
  -2842723.06846  -2167817.01443  24169278.0394                   24169281.6644
  -7524889.09147  -5131731.48744  22821509.8834                   22821512.9064
 -13101738.660 7 -10190573.064 7  22275085.602
 -11727769.373 7  -9092763.738 7  22521641.688
  -7336706.650 7  -5701544.757 6  23322489.930
 -20792323.25648 -16036874.31446  20752189.9924                   20752191.0124
 -20270091.66548 -15747084.65646  20749176.4384                   20749174.4574
 11  8 15  0  8 30.0000000  0  8G10G28G09G12G17G05G04G02
 -17933569.88548 -13909988.87746  21174553.0784                   21174554.0984
  -2741824.26346  -2089194.66843  24188478.8134                   24188482.3204
  -7462289.85347  -5082952.90144  22833422.4224                   22833424.8984
 -13183180.452 7 -10254034.190 7  22259587.500
 -11682426.319 7  -9057431.521 7  22530269.563
  -7441215.036 7  -5782979.761 6  23302602.492
 -20730929.97348 -15989035.40746  20763872.7814                   20763873.7814
 -20293872.48748 -15765615.15946  20744650.9304                   20744649.3754
 11  8 15  0  9  0.0000000  0  8G10G28G09G12G17G05G04G02
 -17975729.15148 -13942840.22946  21166530.5634                   21166531.5944
  -2640724.10347  -2010415.47543  24207718.0084                   24207721.2624
  -7399312.09647  -5033879.37044  22845406.9384                   22845409.2934
 -13264346.345 7 -10317280.329 7  22244142.164
 -11636960.792 7  -9022003.864 7  22538922.484
  -7545624.596 7  -5864337.767 6  23282733.938
 -20669240.83148 -15940965.95646  20775611.6954                   20775613.0704
 -20317301.43648 -15783871.46346  20740192.5394                   20740190.8674
 11  8 15  0  9 30.0000000  0  8G10G28G09G12G17G05G04G02
 -18017338.70148 -13975263.23346  21158612.7504                   21158613.4924
  -2539423.04846  -1931479.68943  24226995.0314                   24226998.2074
  -7335957.99647  -4984512.60444  22857462.4064                   22857465.4384
 -13345232.571 7 -10380308.537 7  22228750.109
 -11591371.366 7  -8986479.659 7  22547597.328
  -7649931.676 7  -5945615.905 6  23262884.820
 -20607256.74748 -15892666.68646  20787407.2274                   20787408.0124
 -20340378.06648 -15801853.23746  20735801.0944                   20735799.4144
 11  8 15  0 10  0.0000000  0  8G10G28G09G12G17G05G04G02
 -18058396.83648 -14007256.56446  21150799.2114                   21150800.5164
  -2437923.45746  -1852389.22543  24246309.1804                   24246313.1134
  -7272231.16747  -4934855.38544  22869590.1564                   22869592.0554
 -13425836.629 7 -10443116.852 7  22213411.867
 -11545657.633 7  -8950858.583 7  22556296.602
  -7754133.313 7  -6026811.869 7  23243055.883
 -20544980.47548 -15844139.74246  20799257.9454                   20799259.0434
 -20363103.12648 -15819561.06146  20731476.6414                   20731474.7114
 11  8 15  0 10 30.0000000  0  8G10G28G09G12G17G05G04G02
 -18098902.07548 -14038819.07045  21143091.6954                   21143092.4844
  -2336228.22346  -1773146.30043  24265661.8054                   24265665.6954
  -7208135.19747  -4884910.49444  22881786.5704                   22881788.6764
 -13506157.018 7 -10505704.143 7  22198127.078
 -11499819.927 7  -8915140.903 7  22565018.953
  -7858227.445 7  -6107924.045 7  23223247.508
 -20482415.10248 -15795387.52746  20811163.6644                   20811164.9734
 -20385478.17748 -15836996.14846  20727218.8204                   20727216.8714
 11  8 15  0 11  0.0000000  0  8G10G28G09G12G17G05G04G02
 -18138851.59148 -14069948.53645  21135489.3054                   21135490.1994
  -2234338.66545  -1693751.93942  24285050.8834                   24285054.1024
  -7143673.01447  -4834680.26644  22894053.1414                   22894055.9494
 -13586190.393 8 -10568067.770 7  22182897.820
 -11453856.694 7  -8879325.419 7  22573766.023
  -7962210.519 7  -6188949.708 7  23203459.617
 -20419562.39148 -15746411.40346  20823124.2814                   20823125.5514
 -20407503.07248 -15854158.39546  20723027.5234                   20723025.9304
 11  8 15  0 11 30.0000000  0  8G10G28G09G12G17G05G04G02
 -18178243.88448 -14100643.81546  21127992.9924                   21127993.9654
  -2132256.83345  -1614207.79242  24304476.0554                   24304480.6024
  -7078848.16446  -4784167.42844  22906389.1024                   22906391.7544
 -13665934.300 8 -10630205.839 7  22167722.531
 -11407768.082 7  -8843412.256 6  22582536.430
  -8066079.863 7  -6269886.752 7  23183693.859
 -20356424.94548 -15697213.41746  20835139.2034                   20835139.7544
 -20429178.75648 -15871048.52746  20718902.6644                   20718901.1884
 11  8 15  0 12  0.0000000  0  8G10G28G09G12G17G05G04G02
 -18217075.46348 -14130902.17746  21120603.4224                   21120604.9184
  -2029983.85746  -1534514.70642  24323938.0234                   24323943.0314
  -7013662.58246  -4733373.51244  22918793.9774                   22918796.1994
 -13745385.153 7 -10692115.547 7  22152603.984
 -11361552.486 7  -8807400.123 7  22591329.820
  -8169831.273 7  -6350731.898 7  23163950.766
 -20293003.65048 -15647794.22446  20847207.4384                   20847208.3444
 -20450504.50348 -15887665.97546  20714844.4384                   20714843.2304
 11  8 15  0 12 30.0000000  0  7G10G09G12G17G05G04G02
 -18255346.59648 -14160723.82446  21113321.0474                   21113321.9414
  -6948121.40147  -4682302.52844  22931266.1644                   22931268.4454
 -13824541.725 7 -10753795.961 7  22137540.945
 -11315210.635 7  -8771289.606 7  22600149.195
  -8273463.536 7  -6431484.214 7  23144230.055
 -20229302.59448 -15598157.05746  20859329.2194                   20859330.2734
 -20471482.62148 -15904012.54446  20710852.6564                   20710850.8244
 11  8 15  0 13  0.0000000  0  7G10G09G12G17G05G04G02
 -18293054.60148 -14190106.66446  21106145.3204                   21106146.1134
  -6882227.16847  -4630956.39644  22943805.1644                   22943807.3674
 -13903401.056 8 -10815244.739 7  22122533.992
 -11268741.547 7  -8735079.961 7  22608991.531
  -8376972.747 7  -6512140.636 6  23124533.195
 -20165323.82848 -15548303.49946  20871504.1414                   20871505.2624
 -20492113.31448 -15920088.39046  20706926.7584                   20706925.2664
 11  8 15  0 13 30.0000000  0  7G10G09G12G17G05G04G02
 -18330196.87448 -14219048.68046  21099077.0864                   21099078.4844
  -6815982.88447  -4579337.53344  22956410.6254                   22956412.4924
 -13981960.496 8 -10876459.856 7  22107584.305
 -11222144.265 7  -8698770.409 6  22617859.109
  -8480355.975 7  -6592698.891 6  23104859.578
 -20101069.31948 -15498235.06946  20883731.3134                   20883732.2814
 -20512397.07448 -15935893.91046  20703066.9064                   20703064.9344
 11  8 15  0 14  0.0000000  0  7G10G09G12G17G05G04G02
 -18366772.11748 -14247548.86146  21092117.3134                   21092118.1294
  -6749392.40747  -4527448.89744  22969082.4064                   22969085.5864
 -14060217.762 7 -10937439.513 7  22092692.945
 -11175418.820 7  -8662360.997 6  22626750.617
  -8583611.069 7  -6673157.306 6  23085210.789
 -20036541.86448 -15447953.96246  20896010.6644                   20896011.5474
 -20532334.94648 -15951429.90446  20699272.5004                   20699270.9494
 11  8 15  0 14 30.0000000  0  7G10G09G12G17G05G04G02
 -18402777.54448 -14275605.01646  21085265.9064                   21085266.9884
  -6682457.98747  -4475292.27544  22981819.9064                   22981822.9184
 -14138169.227 8 -10998180.881 7  22077859.063
 -11128563.873 7  -8625850.667 6  22635666.727
  -8686733.852 7  -6753512.621 6  23065586.773
 -19971742.77948 -15397461.18246  20908341.4304                   20908342.4064
 -20551926.54848 -15966696.06646  20695545.0004                   20695542.9264
 11  8 15  0 15  0.0000000  0  7G10G09G12G17G05G04G02
 -18438212.74048 -14303216.83146  21078522.6884                   21078523.7304
  -6615184.49647  -4422871.44044  22994622.0164                   22994624.1094
 -14215813.960 8 -11058683.229 7  22063083.930
 -11081579.806 7  -8589239.753 7  22644607.219
  -8789722.756 7  -6833763.625 7  23045988.922
 -19906675.96448 -15346759.77846  20920723.2814                   20920723.9264
 -20571174.11748 -15981694.15646  20691881.7344                   20691880.6054
 11  8 15  0 15 30.0000000  0  7G10G09G12G17G05G04G02
 -18473074.50748 -14330381.83346  21071888.7424                   21071889.9614
  -6547574.14246  -4370188.09644  23007486.9384                   23007490.5084
 -14293147.877 8 -11118943.388 7  22048367.828
 -11034465.375 7  -8552527.263 7  22653572.969
  -8892573.645 7  -6913907.086 6  23026417.156
 -19841342.42348 -15295850.55146  20933156.3594                   20933156.8164
 -20590076.90148 -15996423.58246  20688284.8054                   20688282.8014
 11  8 15  0 16  0.0000000  0  7G10G09G12G17G05G04G02
 -18507361.57648 -14357099.00146  21065364.2584                   21065365.0904
  -6479630.22547  -4317244.85544  23020416.5234                   23020419.3984
 -14370169.154 8 -11178959.962 7  22033710.984
 -10987219.924 7  -8515712.674 7  22662563.594
  -8995283.805 7  -6993940.887 6  23006871.945
 -19775744.69448 -15244735.46446  20945638.8054                   20945639.9144
 -20608636.23048 -16010885.38846  20684753.3914                   20684751.6254
 11  8 15  0 16 30.0000000  0  7G10G09G12G17G05G04G02
 -18541071.41248 -14383366.38946  21058949.7504                   21058950.0984
  -6411355.89747  -4264044.16744  23033408.9534                   23033412.1954
 -14446874.540 8 -11238730.353 7  22019114.555
 -10939842.833 7  -8478795.494 7  22671579.102
  -9097849.850 7  -7073862.402 6  22987354.039
 -19709884.82448 -15193416.11346  20958171.4844                   20958172.2734
 -20626852.25948 -16025079.67646  20681286.6884                   20681284.7074
 11  8 15  0 17  0.0000000  0  7G10G09G12G17G05G04G02
 -18574203.22648 -14409183.36046  21052644.8134                   21052645.7114
  -6342755.06747  -4210589.04544  23046463.6954                   23046466.4144
 -14523262.205 8 -11298253.187 7  22004578.258
 -10892334.082 7  -8441775.741 7  22680619.930
  -9200269.588 7  -7153669.918 7  22967864.141
 -19643765.78948 -15141894.80346  20970753.7114                   20970754.0984
 -20644726.49448 -16039007.64446  20677885.2734                   20677884.1024
 11  8 15  0 17 30.0000000  0  7G10G09G12G17G05G04G02
 -18606755.19048 -14434548.50746  21046450.3754                   21046451.0864
  -6273831.01047  -4156882.09544  23059578.7814                   23059582.2384
 -14599329.379 8 -11357526.277 7  21990103.086
 -10844693.162 7  -8404653.003 7  22689685.375
  -9302540.081 7  -7233361.116 7  22948402.555
 -19577389.91448 -15090173.35646  20983384.2504                   20983385.0594
 -20662259.68348 -16052669.85246  20674548.9384                   20674547.5084
 11  8 15  0 18  0.0000000  0  7G10G09G12G17G05G04G02
 -18638725.40548 -14459460.33146  21040366.4694                   21040367.4144
  -6204586.92046  -4102925.69944  23072755.9774                   23072759.2704
 -14675073.760 8 -11416547.874 7  21975689.320
 -10796919.252 7  -8367426.626 7  22698776.633
  -9404658.264 7  -7312933.637 7  22928970.836
 -19510759.29748 -15038253.42546  20996063.6334                   20996064.4024
 -20679452.24948 -16066066.65546  20671277.2734                   20671275.9184
 11  8 15  0 18 30.0000000  0  7G10G09G12G17G05G04G02
 -18670112.14548 -14483917.51446  21034394.0474                   21034394.3984
  -6135026.39547  -4048722.78844  23085992.6954                   23085995.6294
 -14750492.407 8 -11475315.619 7  21961337.906
 -10749011.719 7  -8330096.137 7  22707893.383
  -9506620.728 7  -7392384.814 7  22909567.539
 -19443876.22648 -14986136.76846  21008791.1334                   21008792.2774
 -20696305.17248 -16079198.79046  20668069.9844                   20668068.7034
 11  8 15  0 19  0.0000000  0  7G10G09G12G17G05G04G02
 -18700913.36248 -14507918.43546  21028532.3834                   21028533.2664
  -6065152.10647  -3994275.38744  23099290.3054                   23099293.5554
 -14825582.528 8 -11533827.394 7  21947048.797
 -10700969.633 7  -8292660.772 7  22717035.281
  -9608424.482 7  -7471712.347 7  22890195.063
 -19376742.29748 -14933824.64346  21021566.1564                   21021567.5984
 -20712818.38748 -16092066.22546  20664927.7974                   20664926.3284
 11  8 15  0 19 30.0000000  0  7G10G09G12G17G05G04G02
 -18731128.51948 -14531462.68146  21022782.6804                   21022783.5314
  -5994968.68447  -3939587.08744  23112645.0634                   23112647.8754
 -14900342.319 7 -11592081.785 7  21932821.930
 -10652793.454 7  -8255120.945 7  22726203.102
  -9710067.462 7  -7550914.550 7  22870852.266
 -19309361.40548 -14881320.08546  21034388.9454                   21034389.9694
 -20728993.78248 -16104670.41846  20661850.0004                   20661847.8914
 11  8 15  0 20  0.0000000  0  7G10G09G12G17G05G04G02
 -18760755.95348 -14554548.98846  21017144.7504                   21017145.8984
  -5924479.28947  -3884660.36444  23126058.4304                   23126062.2624
 -14974769.311 8 -11650076.842 7  21918659.023
 -10604482.464 7  -8217476.087 7  22735396.906
  -9811546.377 7  -7629988.978 7  22851542.227
 -19241735.34048 -14828624.46746  21047257.3914                   21047258.3244
 -20744832.81548 -16117012.51046  20658835.8524                   20658834.3524
 11  8 15  0 20 30.0000000  0  7G10G09G12G17G05G04G02
 -18789793.19348 -14577175.38346  21011619.2584                   21011619.8404
  -5853686.39247  -3829497.12444  23139530.6644                   23139533.5744
 -15048860.251 7 -11707810.027 7  21904560.219
 -10556035.360 7  -8179725.134 7  22744615.539
  -9912857.655 7  -7708932.728 7  22832262.914
 -19173865.71648 -14775739.06646  21060172.9064                   21060173.7274
 -20760334.50248 -16129091.74146  20655885.6644                   20655884.5004
 11  8 15  0 21  0.0000000  0  7G10G09G12G17G05G04G02
 -18818238.32448 -14599340.41046  21006206.2274                   21006206.8794
  -5782592.94547  -3774099.72344  23153059.5634                   23153062.5634
 -15122612.077 7 -11765278.966 7  21890525.383
 -10507451.270 7  -8141867.443 6  22753861.117
 -10013997.881 7  -7787743.226 6  22813016.578
 -19105754.32748 -14722665.28546  21073134.2664                   21073135.0784
 -20775499.27748 -16140908.45246  20653000.0474                   20652998.5634
 11  8 15  0 21 30.0000000  0  7G10G09G12G17G05G04G02
 -18846089.88848 -14621042.91246  21000906.2974                   21000907.3204
  -5711202.65146  -3718470.99044  23166644.2894                   23166647.3954
 -15196022.293 8 -11822481.735 7  21876556.188
 -10458730.052 7  -8103902.912 7  22763132.883
 -10114964.600 7  -7866418.508 7  22793803.273
 -19037403.85348 -14669405.19546  21086140.2894                   21086141.5704
 -20790328.32848 -16152463.54346  20650178.5784                   20650176.6644
 11  8 15  0 22  0.0000000  0  7G10G09G12G17G05G04G02
 -18873348.37748 -14642283.27246  20995719.2424                   20995719.9414
  -5639520.18447  -3662614.60344  23180285.0784                   23180288.1214
 -15269090.353 7 -11879417.869 7  21862651.773
 -10409872.382 7  -8065832.042 7  22772429.805
 -10215756.327 7  -7944957.462 7  22774623.031
 -18968818.13248 -14615961.80746  21099192.1174                   21099192.8524
 -20804824.47648 -16163759.23746  20647419.7194                   20647418.0204
 11  8 15  0 22 30.0000000  0  7G10G09G12G17G05G04G02
 -18900010.13048 -14663058.65846  20990645.2814                   20990646.2504
  -5567547.53947  -3606532.06144  23193980.2974                   23193984.1174
 -15341811.999 7 -11936084.086 7  21848813.508
 -10360876.054 7  -8027653.113 6  22781753.367
 -10316368.280 7  -8023356.332 7  22755476.828
 -18899997.79548 -14562335.59246  21112288.1414                   21112289.1054
 -20818986.50048 -16174794.56646  20644724.7894                   20644722.9184
 11  8 15  0 23  0.0000000  0  7G10G09G12G17G05G04G02
 -18926074.51148 -14683368.54746  20985685.3204                   20985686.2274
  -5495288.89447  -3550226.70544  23207731.3134                   23207734.4494
 -15414185.103 7 -11992478.708 7  21835041.031
 -10311741.615 7  -7989366.590 6  22791103.602
 -10416798.160 7  -8101613.296 7  22736365.758
 -18830945.90348 -14508528.93946  21125428.1564                   21125429.5394
 -20832816.15348 -16185570.91246  20642093.0864                   20642091.6134
 11  8 15  0 23 30.0000000  0  7G10G09G12G17G05G04G02
 -18951540.21448 -14703211.94046  20980839.2664                   20980840.0864
  -5422747.68047  -3493701.14944  23221535.7664                   23221538.4024
 -15486207.026 7 -12048599.666 7  21821335.594
 -10262467.825 7  -7950971.460 6  22800480.266
 -10517043.022 7  -8179726.137 7  22717289.992
 -18761664.37448 -14454543.35846  21138611.9694                   21138613.1604
 -20846314.11848 -16196088.79546  20639524.5474                   20639522.8094
 11  8 15  0 24  0.0000000  0  7G10G09G12G17G05G04G02
 -18976405.18948 -14722587.23946  20976107.8204                   20976109.0314
  -5349926.42747  -3436957.38044  23235393.4924                   23235395.8484
 -15557874.987 7 -12104444.827 7  21807697.891
 -10213054.021 7  -7912467.264 7  22809883.117
 -10617098.986 7  -8257691.742 7  22698249.578
 -18692154.95848 -14400380.21246  21151839.3134                   21151840.2464
 -20859480.40248 -16206348.23546  20637018.8134                   20637017.4844
 11  8 15  0 24 30.0000000  0  7G10G09G12G17G05G04G02
 -19000668.48348 -14741493.69146  20971490.5474                   20971491.7034
  -5276828.91347  -3379998.32944  23249302.7974                   23249305.9574
 -15629186.463 7 -12160012.205 7  21794127.727
 -10163499.831 7  -7873853.654 6  22819312.977
 -10716963.655 7  -8335508.303 7  22679246.258
 -18622420.31848 -14346041.54846  21165109.2974                   21165110.6954
 -20872316.43148 -16216350.33146  20634576.2734                   20634574.7154
 11  8 15  0 25  0.0000000  0  7G10G09G12G17G05G04G02
 -19024328.71948 -14759930.23346  20966988.6644                   20966989.1884
  -5203458.92547  -3322826.96344  23263264.4694                   23263268.1374
 -15700139.744 8 -12215300.463 7  21780625.828
 -10113804.986 6  -7835130.438 6  22828769.742
 -10816634.659 7  -8413173.965 7  22660279.305
 -18552462.94048 -14291529.32146  21178421.8284                   21178422.9304
 -20884823.31548 -16226095.94446  20632196.2584                   20632194.7734
 11  8 15  0 25 30.0000000  0  8G10G25G09G12G17G05G04G02
 -19047383.40348 -14777894.90346  20962600.8444                   20962601.8094
   -298398.004 6   -218753.346 6  24660957.508
  -5129818.46547  -3265444.86244  23277278.5554                   23277281.4804
 -15770730.367 8 -12270306.142 7  21767192.773
 -10063967.370 7  -7796295.992 7  22838253.438
 -10916107.289 7  -8490685.048 7  22641350.164
 -18482283.57348 -14236844.12946  21191776.4694                   21191777.5514
 -20897000.51248 -16235584.65546  20629879.1884                   20629877.4224
 11  8 15  0 26  0.0000000  0  8G10G25G09G12G17G05G04G02
 -19069846.52548 -14795398.62846  20958326.3834                   20958327.3754
   -401766.786 6   -299300.432 6  24641286.781
  -5055926.50446  -3207866.76644  23291339.2034                   23291342.2504
 -15840971.280 8 -12325039.302 7  21753826.320
 -10014001.949 7  -7757361.949 7  22847761.648
 -11015393.798 7  -8568051.074 7  22622456.648
 -18411900.06548 -14181999.85346  21205169.8204                   21205170.9454
 -20908864.37248 -16244829.21246  20627621.9224                   20627619.8984
 11  8 15  0 26 30.0000000  0  8G10G25G09G12G17G05G04G02
 -19091689.29748 -14812418.95546  20954169.8444                   20954170.6954
   -505015.952 6   -379754.278 5  24621639.125
  -4981758.53047  -3150073.60844  23305452.9694                   23305456.5394
 -15910832.346 8 -12379476.480 7  21740532.398
  -9963880.432 7  -7718306.269 7  22857298.992
 -11114463.840 7  -8645248.449 7  22603604.141
 -18341286.74648 -14126976.50746  21218607.3524                   21218608.7194
 -20920387.75448 -16253808.45646  20625428.5704                   20625427.1484
 11  8 15  0 27  0.0000000  0  8G10G25G09G12G17G05G04G02
 -19112923.42648 -14828965.01746  20950129.2504                   20950130.1294
   -608155.882 6   -460123.041 5  24602012.094
  -4907330.84146  -3092078.08144  23319616.5004                   23319619.6414
 -15980323.830 8 -12433625.675 7  21727308.477
  -9913615.086 7  -7679138.526 6  22866864.836
 -11213327.005 7  -8722284.629 7  22584790.703
 -18270458.62948 -14071785.79046  21232085.5704                   21232086.4414
 -20931584.46348 -16262533.15346  20623298.1644                   20623296.6644
 11  8 15  0 27 30.0000000  0  8G10G25G09G12G17G05G04G02
 -19133548.63648 -14845036.60546  20946204.3364                   20946205.1954
   -711185.185 6   -540405.611 6  24582405.883
  -4832647.58446  -3033883.38944  23333827.7814                   23333831.2934
 -16049444.522 8 -12487485.952 7  21714154.953
  -9863206.558 7  -7639859.181 6  22876457.203
 -11311981.590 7  -8799158.271 7  22566017.641
 -18199419.10248 -14016430.32945  21245603.9384                   21245604.7274
 -20942456.55748 -16271004.90246  20621229.0554                   20621227.5904
 11  8 15  0 28  0.0000000  0  8G10G25G09G12G17G05G04G02
 -19153562.97048 -14860632.17346  20942395.8444                   20942396.5044
   -814100.845 6   -620599.553 6  24562821.977
  -4757712.07247  -2975492.14644  23348088.2034                   23348091.2894
 -16118191.346 8 -12541054.896 7  21701073.461
  -9812653.632 7  -7600467.343 6  22886077.391
 -11410423.852 7  -8875866.442 7  22547284.844
 -18128169.80748 -13960911.42046  21259162.5234                   21259163.1764
 -20953004.30148 -16279223.90946  20619221.7584                   20619220.0314
 11  8 15  0 28 30.0000000  0  8G10G25G09G12G17G05G04G02
 -19172966.38848 -14875751.71546  20938703.4224                   20938704.3984
   -916901.451 6   -700703.899 6  24543259.328
  -4682528.53747  -2916907.62344  23362394.7114                   23362398.5204
 -16186562.760 8 -12594331.305 7  21688062.305
  -9761956.811 7  -7560963.378 6  22895724.547
 -11508651.985 7  -8952407.791 7  22528592.586
 -18056714.17848 -13905231.71146  21272760.0234                   21272761.1524
 -20963229.83948 -16287191.85546  20617276.0234                   20617274.4614
 11  8 15  0 29  0.0000000  0  8G10G25G09G12G17G05G04G02
 -19191756.13048 -14890393.05246  20935127.6414                   20935128.6484
  -1019582.800 6   -780715.260 6  24523719.094
  -4607098.83047  -2858131.29044  23376748.8444                   23376752.0904
 -16254554.374 8 -12647311.781 7  21675124.188
  -9711113.652 7  -7521345.338 6  22905398.773
 -11606661.236 7  -9028778.558 7  22509941.859
 -17985052.36748 -13849391.35646  21286396.4694                   21286397.5664
 -20973132.22848 -16294907.98746  20615391.7194                   20615390.3094
 11  8 15  0 29 30.0000000  0  8G10G25G09G12G17G05G04G02
 -19209931.85948 -14904555.94746  20931668.8754                   20931669.8364
  -1122143.163 6   -860632.399 6  24504202.961
  -4531427.15547  -2799166.40844  23391149.8834                   23391151.8244
 -16322164.680 8 -12699995.123 7  21662258.250
  -9660124.368 7  -7481613.504 6  22915102.023
 -11704449.372 7  -9104977.056 7  22491333.461
 -17913187.45748 -13793392.74746  21300072.1954                   21300073.4454
 -20982713.08548 -16302373.57646  20613568.3754                   20613566.8714
 11  8 15  0 30  0.0000000  0  8G10G25G09G12G17G05G04G02
 -19227493.36148 -14918240.22546  20928327.0864                   20928327.9104
  -1224580.773 6   -940453.851 6  24484709.883
  -4455517.63447  -2740016.21044  23405594.6484                   23405597.8164
 -16389391.836 8 -12752379.907 7  21649465.406
  -9608989.517 7  -7441768.180 6  22924833.281
 -11802014.340 7  -9181001.630 7  22472767.133
 -17841122.24648 -13737238.05946  21313785.5004                   21313786.6604
 -20991974.26448 -16309590.06246  20611806.2584                   20611804.9964
 11  8 15  0 30 30.0000000  0  8G10G25G09G12G17G05G04G02
 -19244438.53248 -14931444.23946  20925102.7664                   20925103.9734
  -1326892.383 6  -1020177.124 6  24465240.867
  -4379372.82647  -2680682.64744  23420084.2034                   23420087.8364
 -16456232.725 8 -12804463.707 7  21636746.133
  -9557707.615 7  -7401808.289 6  22934591.625
 -11899352.334 7  -9256849.369 7  22454244.500
 -17768858.40048 -13680928.58745  21327536.8524                   21327538.2894
 -21000915.88348 -16316557.54146  20610104.5394                   20610103.0354
 11  8 15  0 31  0.0000000  0  8G10G25G09G12G17G05G04G02
 -19260766.54948 -14944167.36046  20921995.7424                   20921996.1564
  -1429075.435 7  -1099800.270 6  24445795.500
  -4302996.42847  -2621168.63944  23434618.4614                   23434621.1954
 -16522684.809 8 -12856244.544 7  21624100.656
  -9506278.166 7  -7361733.408 6  22944378.219
 -11996460.414 7  -9332517.927 6  22435765.070
 -17696398.04148 -13624465.99045  21341325.7814                   21341326.8204
 -21009538.79648 -16323276.67646  20608464.0084                   20608462.2624
 11  8 15  0 31 30.0000000  0  8G10G25G09G12G17G05G04G02
 -19276475.61948 -14956408.18746  20919006.5554                   20919007.1214
  -1531126.553 6  -1179320.576 6  24426374.766
  -4226390.87447  -2561476.03044  23449195.4844                   23449199.1414
 -16588744.711 8 -12907719.784 7  21611530.055
  -9454699.557 7  -7321542.326 6  22954193.891
 -12093334.496 7  -9408004.178 7  22417330.281
 -17623742.09048 -13567850.96745  21355151.3364                   21355152.2664
 -21017842.67648 -16329747.21846  20606883.9224                   20606881.8794
 11  8 15  0 32  0.0000000  0  8G10G25G09G12G17G05G04G02
 -19291565.58748 -14968166.58146  20916134.6254                   20916135.1764
  -1633044.073 6  -1258736.741 6  24406980.266
  -4149560.33847  -2501608.16544  23463816.4534                   23463820.2854
 -16654410.828 8 -12958888.178 7  21599034.172
  -9402972.069 7  -7281235.236 6  22964037.031
 -12189972.581 7  -9483306.518 7  22398940.813
 -17550893.94748 -13511086.20045  21369014.2344                   21369015.2814
 -21025829.71648 -16335970.88246  20605363.6094                   20605361.8794
 11  8 15  0 32 30.0000000  0  8G10G25G09G12G17G05G04G02
 -19306036.04248 -14979442.26046  20913380.8914                   20913381.8754
  -1734825.889 6  -1338047.221 6  24387612.500
  -4072508.56547  -2441567.90244  23478479.1804                   23478482.1484
 -16719681.278 7 -13009748.274 7  21586613.211
  -9351095.978 7  -7240812.330 6  22973908.852
 -12286372.455 7  -9558423.245 7  22380596.172
 -17477856.18848 -13454173.68145  21382913.3834                   21382914.1094
 -21033501.34648 -16341948.77046  20603903.6644                   20603902.2774
 11  8 15  0 33  0.0000000  0  8G10G25G09G12G17G05G04G02
 -19319886.33148 -14990234.67946  20910745.3674                   20910746.2894
  -1836469.690 6  -1417250.131 6  24368270.586
  -3995239.17847  -2381358.06044  23493182.9774                   23493185.9734
 -16784553.985 7 -13060298.418 7  21574268.867
  -9299070.490 7  -7200273.040 6  22983809.430
 -12382531.118 7  -9633352.006 7  22362297.977
 -17404631.05348 -13397115.14345  21396847.0164                   21396847.6884
 -21040858.80448 -16347681.84346  20602503.8594                   20602502.0984
 11  8 15  0 33 30.0000000  0  8G10G25G09G12G17G05G04G02
 -19333115.46948 -15000543.09046  20908227.7274                   20908228.5354
  -1937973.029 6  -1496343.574 6  24348955.070
  -3917755.66746  -2320981.37544  23507927.3674                   23507930.1054
 -16849026.314 8 -13110536.596 7  21561999.813
  -9246895.152 7  -7159616.981 6  22993737.734
 -12478445.594 7  -9708090.501 7  22344046.188
 -17331220.56548 -13339912.18145  21410816.6484                   21410818.0704
 -21047903.23148 -16353171.00546  20601163.2734                   20601161.1644
 11  8 15  0 34  0.0000000  0  8G10G25G09G12G17G05G04G02
 -19345721.45348 -15010365.92446  20905829.1564                   20905829.9884
  -2039332.227 6  -1575324.702 6  24329667.391
  -3840060.74647  -2260439.94144  23522712.2034                   23522715.4734
 -16913094.327 8 -13160459.715 7  21549808.102
  -9194568.633 7  -7118843.109 7  23003695.203
 -12574111.820 7  -9782635.572 7  22325841.297
 -17257625.93348 -13282565.74145  21424821.3984                   21424822.5744
 -21054634.01348 -16358415.76246  20599882.2274                   20599880.4144
 11  8 15  0 34 30.0000000  0  8G10G25G09G12G17G05G04G02
 -19357704.05348 -15019703.00246  20903548.8444                   20903549.9534
  -2140545.473 6  -1654192.111 6  24310407.563
  -3762158.19447  -2199736.73444  23537536.7814                   23537539.6134
 -16976756.825 7 -13210066.842 7  21537693.531
  -9142091.098 7  -7077951.564 6  23013681.422
 -12669527.766 7  -9856985.595 7  22307684.680
 -17183850.10848 -13225078.10545  21438860.2664                   21438861.6884
 -21061053.03948 -16363417.58746  20598661.0164                   20598659.1564
 11  8 15  0 35  0.0000000  0  8G10G25G09G12G17G05G04G02
 -19369063.10848 -15028554.20446  20901387.0004                   20901388.3834
  -2241610.512 7  -1732944.051 6  24291175.344
  -3684051.92447  -2138874.78444  23552399.6724                   23552403.1054
 -17040012.092 8 -13259356.661 7  21525656.328
  -9089462.201 7  -7036942.104 7  23023696.141
 -12764690.608 7  -9931138.396 7  22289575.477
 -17109895.48548 -13167451.15645  21452933.2664                   21452934.7194
 -21067161.69748 -16368177.57846  20597498.1024                   20597496.6254
 11  8 15  0 35 30.0000000  0  8G10G25G09G12G17G05G04G02
 -19379796.91448 -15036918.20846  20899344.8134                   20899345.5314
  -2342523.913 7  -1811577.834 6  24271972.328
  -3605744.48247  -2077856.05244  23567300.6804                   23567303.6994
 -17102856.432 7 -13308326.272 7  21513697.352
  -9036680.472 7  -6995813.529 7  23033740.461
 -12859596.667 7 -10005091.113 7  22271515.383
 -17035763.04948 -13109685.63645  21467040.3524                   21467041.0314
 -21072959.90748 -16372695.66646  20596395.0944                   20596393.4184
 11  8 15  0 36  0.0000000  0  8G10G25G09G12G17G05G04G02
 -19389904.67548 -15044794.37446  20897421.3284                   20897421.7034
  -2443283.208 7  -1890091.532 6  24252797.922
  -3527239.33647  -2016683.30444  23582240.0084                   23582243.0664
 -17165287.576 7 -13356973.916 7  21501817.141
  -8983745.570 6  -6954565.602 7  23043813.813
 -12954243.006 7 -10078841.434 7  22253505.078
 -16961455.21848 -13051783.45245  21481180.7344                   21481181.9924
 -21078449.17648 -16376973.01446  20595350.5864                   20595348.6564
 11  8 15  0 36 30.0000000  0  8G10G25G09G12G17G05G04G02
 -19399386.29048 -15052182.63746  20895616.8134                   20895617.8094
  -2543886.271 7  -1968483.479 6  24233653.367
  -3448540.23146  -1955359.38244  23597215.8914                   23597219.0984
 -17227303.450 8 -13405297.964 7  21490016.000
  -8930657.296 7  -6913198.160 7  23053916.367
 -13048626.991 7 -10152387.349 7  22235543.867
 -16886974.60448 -12993746.64245  21495353.7504                   21495354.7344
 -21083630.56448 -16381010.46646  20594364.3754                   20594362.8984
 11  8 15  0 37  0.0000000  0  8G10G25G09G12G17G05G04G02
 -19408241.33648 -15059082.67346  20893931.9924                   20893932.3674
  -2644330.652 7  -2046751.799 6  24214540.367
  -3369650.90747  -1893887.20644  23612227.8364                   23612231.6254
 -17288901.975 7 -13453296.808 7  21478293.781
  -8877415.504 7  -6871711.115 7  23064047.469
 -13142746.287 7 -10225726.988 7  22217634.172
 -16812323.09948 -12935576.66145  21509559.5084                   21509560.9414
 -21088505.32048 -16384808.97346  20593436.6024                   20593434.9654
 11  8 15  0 37 30.0000000  0  8G10G25G09G12G17G05G04G02
 -19416468.40048 -15065493.36946  20892366.4144                   20892367.0984
  -2744613.073 7  -2124893.900 7  24195456.922
  -3290574.08646  -1832269.03443  23627276.0944                   23627279.7194
 -17350080.063 8 -13500968.015 7  21466652.320
  -8824018.809 7  -6830103.353 7  23074208.289
 -13236596.804 7 -10298857.216 7  22199774.797
 -16737502.34248 -12877274.80945  21523797.6724                   21523798.9844
 -21093073.67348 -16388368.73746  20592567.4224                   20592565.7344
 11  8 15  0 38  0.0000000  0  8G10G25G09G12G17G05G04G02
 -19424067.19448 -15071414.50046  20890920.1254                   20890921.0124
  -2844731.302 7  -2202908.093 6  24176405.375
  -3211313.45446  -1770507.59743  23642359.2734                   23642361.8984
 -17410835.744 8 -13548310.102 7  21455091.047
  -8770466.931 7  -6788374.665 7  23084399.195
 -13330176.188 7 -10371776.166 7  22181966.820
 -16662514.70748 -12818842.92945  21538067.2274                   21538068.5514
 -21097337.20848 -16391690.97646  20591756.2274                   20591754.3914
 11  8 15  0 38 30.0000000  0  8G10G25G09G12G17G05G04G02
 -19431037.11148 -15076845.60846  20889594.0554                   20889594.4184
  -2944682.988 7  -2280792.467 7  24157385.203
  -3131872.43447  -1708605.55444  23657475.6024                   23657478.3594
 -17471166.868 8 -13595321.350 7  21443610.523
  -8716759.762 6  -6746524.968 7  23094619.109
 -13423481.652 7 -10444481.665 7  22164211.547
 -16587362.30748 -12760282.64745  21552368.2734                   21552369.4734
 -21101296.94848 -16394776.48846  20591002.5314                   20591000.8874
 11  8 15  0 39  0.0000000  0  8G10G25G09G12G17G05G04G02
 -19437377.22048 -15081785.94746  20888387.6884                   20888388.0434
  -3044464.982 6  -2358544.612 7  24138396.680
  -3052254.16547  -1646565.41744  23672627.2424                   23672630.2424
 -17531070.593 8 -13641999.571 7  21432211.094
  -8662895.996 7  -6704553.273 6  23104868.570
 -13516509.741 7 -10516971.041 7  22146509.055
 -16512046.73248 -12701595.22645  21566700.6954                   21566702.0394
 -21104953.34348 -16397625.63146  20590307.0474                   20590305.4614
 11  8 15  0 39 30.0000000  0  8G10G25G09G12G17G05G04G02
 -19443087.83248 -15086235.77046  20887300.8364                   20887301.6764
  -3144075.286 6  -2436162.948 6  24119441.047
  -2972462.60247  -1584390.19044  23687811.5164                   23687814.3404
 -17590544.924 8 -13688343.198 7  21420893.305
  -8608875.831 7  -6662459.684 6  23115149.172
 -13609258.009 7 -10589242.374 7  22128859.305
 -16436570.69948 -12642782.76945  21581063.5474                   21581064.7034
 -21108307.97648 -16400239.64146  20589668.4064                   20589666.8134
 11  8 15  0 40  0.0000000  0  8G10G25G09G12G17G05G04G02
 -19448167.86948 -15090194.23446  20886334.1174                   20886334.4304
  -3243510.935 7  -2513645.213 6  24100519.563
  -2892501.02947  -1522082.54643  23703026.9454                   23703029.9144
 -17649587.412 8 -13734350.314 7  21409657.820
  -8554698.542 7  -6620243.667 6  23125459.602
 -13701723.271 7 -10661293.171 7  22111263.633
 -16360935.94048 -12583846.63145  21595455.5784                   21595457.4654
 -21111361.92348 -16402619.35146  20589087.4614                   20589085.7424
 11  8 15  0 40 30.0000000  0  8G10G25G09G12G17G05G04G02
 -19452618.21248 -15093662.02846  20885487.3284                   20885487.8954
  -3342770.323 7  -2590990.192 6  24081631.164
  -2812373.66747  -1459645.70944  23718274.7274                   23718277.4654
 -17708196.655 8 -13780019.840 7  21398504.594
  -8500364.633 7  -6577905.628 6  23135798.430
 -13793903.936 7 -10733122.198 7  22093722.469
 -16285145.48748 -12524789.18045  21609878.3134                   21609879.9454
 -21114116.99548 -16404766.16646  20588563.1254                   20588561.1374
 11  8 15  0 41  0.0000000  0  8G10G25G09G12G17G05G04G02
 -19456436.20548 -15096637.08846  20884760.9384                   20884761.6454
  -3441849.141 7  -2668194.439 6  24062776.688
  -2732082.18147  -1397081.00443  23733553.9384                   23733556.8634
 -17766369.013 8 -13825348.920 7  21387435.203
  -8445871.607 6  -6535443.576 6  23146168.023
 -13885795.068 7 -10804725.646 7  22076235.992
 -16209199.50648 -12465610.54645  21624329.8914                   21624331.8484
 -21116572.44548 -16406679.50946  20588095.7424                   20588094.4384
 11  8 15  0 41 30.0000000  0  8G10G25G09G12G17G05G04G02
 -19459623.05947 -15099120.34646  20884154.3674                   20884155.0394
  -3540745.979 7  -2745256.906 5  24043957.625
  -2651631.24647  -1334392.03043  23748863.6254                   23748866.7424
 -17824102.947 8 -13870336.384 7  21376448.578
  -8391220.564 6  -6492858.388 6  23156567.906
 -13977394.965 7 -10876102.141 7  22058804.578
 -16133101.47548 -12406313.43345  21638811.7424                   21638812.7814
 -21118730.67547 -16408361.25746  20587685.2274                   20587683.9024
 11  8 15  0 42  0.0000000  0  8G10G25G09G12G17G05G04G02
 -19462177.99548 -15101111.19746  20883668.3364                   20883668.8054
  -3639457.825 7  -2822175.278 5  24025173.406
  -2571023.70447  -1271581.01844  23764202.8364                   23764205.7624
 -17881396.158 8 -13914980.417 7  21365546.063
  -8336410.539 6  -6450149.316 6  23166997.125
 -14068700.593 7 -10947249.332 7  22041429.867
 -16056852.72448 -12346898.85745  21653320.8364                   21653322.6644
 -21120592.20248 -16409811.79946  20587330.7194                   20587329.0984
 11  8 15  0 42 30.0000000  0  8G10G25G09G12G17G05G04G02
 -19464100.85547 -15102609.52046  20883302.1254                   20883302.8364
  -3737982.350 7  -2898947.601 6  24006424.297
  -2490263.40047  -1208651.00244  23779570.4534                   23779574.3484
 -17938246.479 8 -13959279.361 7  21354727.883
  -8281441.331 6  -6407316.238 6  23177458.328
 -14159709.166 7 -11018165.042 7  22024111.625
 -15980455.59448 -12287368.67045  21667859.3914                   21667860.6334
 -21122158.36048 -16411032.18446  20587032.7664                   20587031.5474
 11  8 15  0 43  0.0000000  0  8G10G25G09G12G17G05G04G02
 -19465390.53048 -15103614.46246  20883056.8524                   20883057.5514
  -3836316.338 7  -2975571.473 6  23987712.492
  -2409353.10247  -1145604.08843  23794967.7344                   23794971.0824
 -17994651.085 8 -14003230.978 7  21343993.953
  -8226311.186 6  -6364357.712 6  23187948.602
 -14250417.347 7 -11088846.701 7  22006850.633
 -15903911.66148 -12227724.08445  21682424.6254                   21682426.4184
 -21123429.61148 -16412022.76846  20586790.7974                   20586788.8914
 11  8 15  0 43 30.0000000  0  8G10G25G09G12G17G05G04G02
 -19466046.80848 -15104125.83746  20882931.8134                   20882932.3794
  -3934456.996 7  -3052044.672 6  23969036.609
  -2328296.18847  -1082442.93344  23810391.9614                   23810396.2154
 -18050607.724 8 -14046833.544 7  21333346.203
  -8171020.359 7  -6321274.005 6  23198470.563
 -14340822.147 7 -11159291.935 7  21989647.211
 -15827222.51048 -12167966.36045  21697018.7194                   21697020.3874
 -21124407.18048 -16412784.51046  20586604.9694                   20586603.8554
 11  8 15  0 44  0.0000000  0  8G10G25G09G12G17G05G04G02
 -19466070.42948 -15104144.24546  20882927.5164                   20882928.2664
  -4032402.870 7  -3128366.084 6  23950397.945
  -2247096.88947  -1019170.81544  23825843.5704                   23825847.8954
 -18106115.085 8 -14090086.029 7  21322783.508
  -8115569.344 6  -6278065.450 6  23209022.680
 -14430921.614 7 -11229499.255 7  21972502.047
 -15750391.53748 -12108098.10945  21711638.8524                   21711640.4024
 -21125093.03948 -16413318.94946  20586474.3524                   20586473.0594
 11  8 15  0 44 30.0000000  0  8G10G25G09G12G17G05G04G02
 -19465460.28548 -15103668.80646  20883043.5004                   20883043.9964
  -4130150.311 7  -3204532.847 7  23931797.008
  -2165757.91046   -955789.89144  23841322.5474                   23841326.6134
 -18161170.043 8 -14132985.991 7  21312306.492
  -8059956.403 7  -6234730.753 6  23219605.797
 -14520712.012 7 -11299465.744 7  21955414.938
 -15673419.65848 -12048120.06645  21726286.4694                   21726288.0124
 -21125487.23148 -16413626.10846  20586399.1954                   20586397.4774
 11  8 15  0 45  0.0000000  0  8G10G25G09G12G17G05G04G02
 -19464216.88348 -15102699.92446  20883280.0864                   20883281.0704
  -4227697.029 7  -3280543.219 7  23913234.773
  -2084283.03846   -892303.09544  23856826.3134                   23856830.4264
 -18215770.603 8 -14175531.874 7  21301916.648
  -8004181.589 7  -6191269.917 6  23230219.391
 -14610190.700 7 -11369189.344 7  21938387.352
 -15596308.86448 -11988033.77345  21740960.2814                   21740961.5664
 -21125591.32348 -16413707.22346  20586379.8524                   20586377.7734
 11  8 15  0 45 30.0000000  0  8G10G25G09G12G17G05G04G02
 -19462339.12647 -15101236.74546  20883637.6804                   20883638.4884
  -4325039.797 6  -3356394.650 7  23894710.750
  -2002674.99746   -828712.47344  23872356.1174                   23872359.7704
 -18269914.284 8 -14217721.747 7  21291613.586
  -7948243.855 7  -6147682.116 6  23240863.516
 -14699354.230 7 -11438667.368 7  21921420.305
 -15519060.80248 -11927840.51545  21755659.9534                   21755661.0394
 -21125405.45648 -16413562.39246  20586415.1024                   20586413.4924
 11  8 15  0 46  0.0000000  0  8G10G25G09G12G17G05G04G02
 -19459828.75248 -15099280.60346  20884115.2734                   20884115.9774
  -4422177.712 7  -3432086.431 7  23876225.547
  -1920938.50146   -765021.82144  23887910.3444                   23887914.2664
 -18323600.511 8 -14259555.168 7  21281397.484
  -7892144.064 7  -6103968.017 6  23251539.438
 -14788201.859 7 -11507899.228 7  21904512.992
 -15441679.13848 -11867543.15245  21770385.0234                   21770386.4264
 -21124932.89348 -16413194.16346  20586504.7114                   20586503.3874
 11  8 15  0 46 30.0000000  0  8G10G25G09G12G17G05G04G02
 -19456684.18347 -15096830.29546  20884713.4064                   20884714.3444
  -4519106.585 7  -3507615.365 7  23857781.469
  -1839075.90947   -701232.88244  23903488.6644                   23903491.6954
 -18376825.435 8 -14301029.132 7  21271269.148
  -7835880.418 7  -6060126.275 6  23262246.484
 -14876728.914 7 -11576881.309 7  21887667.133
 -15364164.22448 -11807141.95645  21785135.9924                   21785137.1764
 -21124173.08048 -16412602.09746  20586649.4384                   20586647.6914
 11  8 15  0 47  0.0000000  0  8G10G25G09G12G17G05G04G02
 -19452905.94448 -15093886.23246  20885432.7114                   20885433.3014
  -4615824.606 7  -3582980.022 7  23839375.922
  -1757091.31646   -637348.86843  23919088.8834                   23919093.0044
 -18429587.499 8 -14342142.427 7  21261228.781
  -7779453.499 7  -6016157.281 6  23272983.492
 -14964933.561 7 -11645612.145 7  21870881.977
 -15286518.79348 -11746639.05645  21799911.1954                   21799912.7704
 -21123127.99148 -16411787.73946  20586848.3594                   20586846.2464
 11  8 15  0 47 30.0000000  0  8G10G25G09G12G17G05G04G02
 -19448493.03648 -15090447.61446  20886272.2114                   20886273.1884
  -4712328.133 7  -3658177.499 6  23821012.219
  -1674986.97446   -573371.54144  23934713.0554                   23934716.5474
 -18481884.169 8 -14382893.085 7  21251277.125
  -7722861.563 7  -5972059.683 6  23283752.438
 -15052811.869 7 -11714088.674 7  21854159.867
 -15208743.79748 -11686035.20045  21814710.9924                   21814712.8054
 -21121797.51648 -16410751.00146  20587101.4924                   20587099.7234
 11  8 15  0 48  0.0000000  0  8G10G25G09G12G17G05G04G02
 -19443446.69847 -15086515.41346  20887232.6724                   20887233.0944
  -4808615.738 7  -3733206.765 6  23802689.258
  -1592767.55547   -509304.54243  23950359.3754                   23950363.2384
 -18533714.608 8 -14423280.447 7  21241413.547
  -7666105.750 7  -5927834.430 6  23294553.188
 -15140362.230 7 -11782309.696 7  21837499.367
 -15130842.37548 -11625332.83645  21829535.6334                   21829537.2074
 -21120184.05548 -16409493.76046  20587408.7194                   20587406.7304
 11  8 15  0 48 30.0000000  0  8G10G25G09G12G17G05G04G02
 -19437765.46048 -15082088.48246  20888313.4224                   20888314.4384
  -4904683.258 7  -3808064.526 6  23784408.820
  -1510434.85446   -445149.27543  23966027.3834                   23966030.3324
 -18585074.713 8 -14463301.304 7  21231640.344
  -7609184.006 7  -5883479.840 6  23305384.922
 -15227580.619 7 -11850272.041 7  21820902.008
 -15052814.78248 -11564532.14745  21844383.7894                   21844384.3554
 -21118287.27248 -16408015.75246  20587769.3834                   20587767.9224
 11  8 15  0 49  0.0000000  0  8G10G25G09G12G17G05G04G02
 -19431450.96147 -15077168.09646  20889515.2814                   20889516.2114
  -5000529.437 7  -3882749.837 6  23766169.547
  -1427993.67146   -380909.46443  23981714.9454                   23981718.6484
 -18635963.811 8 -14502955.156 7  21221956.188
  -7552097.258 7  -5838996.678 6  23316248.156
 -15314465.190 7 -11917974.241 7  21804368.453
 -14974664.53548 -11503635.87245  21859255.2274                   21859256.1334
 -21116109.56548 -16406318.83546  20588183.6804                   20588182.2774
 11  8 15  0 49 30.0000000  0  8G10G25G09G12G17G05G04G02
 -19424502.16348 -15071753.45146  20890837.4144                   20890838.2344
  -5096150.739 7  -3957259.931 6  23747973.188
  -1345446.63746   -316587.18543  23997423.5234                   23997426.4614
 -18686379.121 8 -14542239.821 7  21212363.164
  -7494843.643 7  -5794383.506 6  23327143.398
 -15401012.776 7 -11985413.874 7  21787898.930
 -14896392.48148 -11442644.68845  21874149.8134                   21874150.9454
 -21113651.17048 -16404403.21146  20588651.6564                   20588649.9734
 11  8 15  0 50  0.0000000  0  8G10G25G09G12G17G05G04G02
 -19416920.26948 -15065845.49246  20892280.3984                   20892280.7974
  -5191545.304 7  -4031593.374 6  23729820.016
  -1262797.66447   -252185.43543  24013151.4064                   24013154.6134
 -18736319.332 8 -14581154.284 7  21202859.742
  -7437424.456 7  -5749641.333 6  23338069.641
 -15487220.898 7 -12052588.996 7  21771494.203
 -14818001.40348 -11381560.77545  21889067.1484                   21889068.9694
 -21110914.23548 -16402270.53946  20589172.5704                   20589171.3324
 11  8 15  0 50 30.0000000  0  8G10G25G09G12G17G05G04G02
 -19408703.65047 -15059442.93946  20893844.0554                   20893844.8244
  -5286708.778 7  -4105746.658 6  23711711.047
  -1180048.33247   -187705.50543  24028896.7274                   24028901.4184
 -18785780.750 8 -14619695.650 7  21193447.055
  -7379837.380 7  -5704768.311 6  23349027.891
 -15573085.072 8 -12119496.096 7  21755154.539
 -14739491.32248 -11320384.13345  21904007.2274                   21904008.5554
 -21107897.93748 -16399920.18146  20589746.6254                   20589744.6484
 11  8 15  0 51  0.0000000  0  8G10G25G09G12G17G05G04G02
 -19399854.49748 -15052547.50346  20895527.8284                   20895528.7854
  -5381640.455 7  -4179719.383 6  23693645.844
  -1097204.19547   -123151.71244  24044662.2734                   24044666.3834
 -18834763.191 8 -14657863.797 7  21184126.234
  -7322083.648 7  -5659765.438 6  23360018.141
 -15658605.018 8 -12186134.979 7  21738880.945
 -14660866.30648 -11259117.91045  21918969.2274                   21918970.9064
 -21104605.62348 -16397354.74246  20590372.7974                   20590371.3714
 11  8 15  0 51 30.0000000  0  8G10G25G09G12G17G05G04G02
 -19390371.42048 -15045158.10346  20897332.3134                   20897333.5394
  -5476336.641 6  -4253508.642 6  23675625.867
  -1014267.44047    -58525.73743  24060444.6254                   24060448.5594
 -18883263.587 8 -14695656.330 7  21174897.063
  -7264161.643 7  -5614631.446 6  23371040.922
 -15743776.709 7 -12252502.492 7  21722673.086
 -14582126.96048 -11197762.61345  21933952.8524                   21933954.7704
 -21101037.05048 -16394574.03546  20591052.1254                   20591050.2274
 11  8 15  0 52  0.0000000  0  8G10G25G09G12G17G05G04G02
 -19380255.18748 -15037275.31146  20899257.2274                   20899258.4384
  -5570794.844 7  -4327112.389 6  23657651.422
   -931241.58947      6169.69343  24076244.3754                   24076248.0434
 -18931279.994 8 -14733071.708 7  21165759.922
  -7206071.290 7  -5569366.272 6  23382094.695
 -15828597.462 8 -12318596.523 7  21706531.953
 -14503275.36747 -11136319.85445  21948957.9694                   21948959.2074
 -21097193.70648 -16391579.22746  20591783.6174                   20591782.1334
 11  8 15  0 52 30.0000000  0  8G10G25G09G12G17G05G04G02
 -19369506.17448 -15028899.46246  20901302.9844                   20901303.4344
  -5665012.491 7  -4400528.692 6  23639722.070
   -848129.92147     70932.01144  24092059.5554                   24092063.4104
 -18978810.790 8 -14770108.699 7  21156715.141
  -7147812.708 7  -5523970.055 6  23393180.914
 -15913064.774 7 -12384415.182 7  21690458.211
 -14424313.33547 -11074791.03645  21963983.9454                   21963984.7074
 -21093076.85748 -16388371.29446  20592567.0944                   20592565.1524
 11  8 15  0 53  0.0000000  0  8G10G25G09G12G17G05G04G02
 -19358124.49548 -15020030.62146  20903468.5314                   20903469.5744
  -5758986.852 7  -4473755.407 6  23621838.727
   -764935.88447    135758.45643  24107891.0234                   24107895.0514
 -19025853.627 8 -14806765.462 7  21147762.859
  -7089384.904 7  -5478441.939 6  23404299.156
 -15997175.988 7 -12449956.336 7  21674452.453
 -14345242.68247 -11013177.57245  21979030.2194                   21979031.8094
 -21088687.56248 -16384951.06246  20593402.1884                   20593400.7344
 11  8 15  0 53 30.0000000  0  8G10G25G09G12G17G05G04G02
 -19346110.88948 -15010669.36746  20905754.6804                   20905755.5704
  -5852715.510 7  -4546790.690 6  23604003.656
   -681663.21247    200646.18843  24123737.4144                   24123741.5984
 -19072407.025 8 -14843040.855 7  21138904.016
  -7030787.960 7  -5432782.051 7  23415449.813
 -16080928.306 8 -12515217.835 7  21658514.953
 -14266065.50348 -10951481.09845  21994097.6094                   21994098.9024
 -21084027.36348 -16381319.73546  20594288.9694                   20594287.5944
 11  8 15  0 54  0.0000000  0  8G10G25G09G12G17G05G04G02
 -19333466.49648 -15000816.59246  20908160.9454                   20908162.1524
  -5946196.422 7  -4619632.921 7  23586214.430
   -598315.74446    265592.20043  24139598.1334                   24139601.7034
 -19118469.687 8 -14878933.842 7  21130138.688
  -6972022.180 7  -5386990.594 7  23426633.422
 -16164319.805 8 -12580198.183 7  21642646.234
 -14186784.31348 -10889703.58345  22009184.4224                   22009185.4804
 -21079097.82548 -16377478.54146  20595227.0634                   20595225.7934
 11  8 15  0 54 30.0000000  0  8G10G25G09G12G17G05G04G02
 -19320189.42548 -14990470.82246  20910687.9454                   20910689.0274
  -6039424.904 7  -4692278.421 7  23568473.945
   -514894.80146    330595.43643  24155472.7274                   24155476.3874
 -19164037.430 8 -14914441.185 7  21121467.555
  -6913084.651 7  -5341065.290 6  23437847.859
 -16247345.737 8 -12644893.667 7  21626846.617
 -14107398.76448 -10827844.75245  22024290.6484                   22024292.2154
 -21073898.02248 -16373426.74346  20596216.2974                   20596214.6374
 11  8 15  0 55  0.0000000  0  8G10G25G09G12G17G05G04G02
 -19306282.09048 -14979633.93046  20913333.7814                   20913334.9184
  -6132400.423 7  -4764726.843 7  23550781.414
   -431405.44946    395652.03343  24171360.2734                   24171363.6994
 -19209110.538 8 -14949563.110 7  21112890.430
  -6853977.474 7  -5295007.835 6  23449096.039
 -16330005.557 7 -12709303.870 7  21611117.250
 -14027912.83247 -10765907.71045  22039416.6954                   22039417.7894
 -21068431.13148 -16369166.82546  20597256.9614                   20597255.2154
 11  8 15  0 55 30.0000000  0  8G10G25G09G12G17G05G04G02
 -19291743.25948 -14968304.96346  20916100.7814                   20916101.6914
  -6225118.532 7  -4836974.686 7  23533136.930
   -347849.47046    460760.49743  24187260.1954                   24187264.5514
 -19253685.381 8 -14984296.754 7  21104408.352
  -6794698.685 7  -5248816.641 6  23460376.594
 -16412294.838 8 -12773425.340 7  21595457.742
 -13948326.31947 -10703892.28945  22054561.3594                   22054563.2734
 -21062696.78648 -16364698.50646  20598348.2344                   20598346.6334
 11  8 15  0 56  0.0000000  0  8G10G25G09G12G17G05G04G02
 -19276573.99048 -14956484.75746  20918987.3754                   20918988.0274
  -6317576.930 7  -4909020.153 6  23515543.266
   -264230.74346    525917.86643  24203172.7504                   24203176.5474
 -19297760.224 8 -15018640.782 7  21096021.086
  -6735248.334 7  -5202491.763 6  23471689.531
 -16494211.128 7 -12837256.181 7  21579870.070
 -13868641.78447 -10641800.48045  22069724.5784                   22069726.2894
 -21056696.37348 -16360022.86546  20599489.7424                   20599488.3794
 11  8 15  0 56 30.0000000  0  8G10G25G09G12G17G05G04G02
 -19260775.59148 -14944174.30446  20921993.2344                   20921994.5434
  -6409774.119 7  -4980862.107 6  23497998.789
   -180553.25046    591121.01243  24219096.2274                   24219100.1214
 -19341334.731 8 -15052594.951 7  21087729.266
  -6675626.686 7  -5156033.406 6  23483035.469
 -16575752.901 8 -12900795.176 7  21564352.828
 -13788861.61047 -10579634.15745  22084906.3134                   22084908.1334
 -21050432.20548 -16355141.69346  20600682.2894                   20600679.8794
 11  8 15  0 57  0.0000000  0  8G10G25G09G12G17G05G04G02
 -19244347.97848 -14931373.56646  20925119.6724                   20925120.5044
  -6501706.522 7  -5052497.749 6  23480505.000
    -96819.84246    656367.73843  24235030.4064                   24235034.0594
 -19384406.088 8 -15086157.041 7  21079532.711
  -6615832.669 6  -5109440.732 6  23494413.531
 -16656917.066 8 -12964039.947 7  21548907.859
 -13708987.04347 -10517394.28545  22100105.7894                   22100107.5084
 -21043904.58048 -16350055.22846  20601923.8984                   20601922.5274
 11  8 15  0 57 30.0000000  0  8G10G25G09G12G17G05G04G02
 -19227291.70048 -14918082.95946  20928365.4224                   20928366.4384
  -6593371.480 7  -5123925.002 6  23463061.055
    -13033.53446    721655.69243  24250973.5394                   24250977.7304
 -19426972.438 8 -15119325.620 7  21071432.656
  -6555866.189 6  -5062713.637 6  23505824.641
 -16737700.632 8 -13026988.139 7  21533535.273
 -13629019.85947 -10455082.22445  22115323.5394                   22115324.9384
 -21037114.61048 -16344764.34646  20603216.1724                   20603214.5234
 11  8 15  0 58  0.0000000  0  8G10G25G09G12G17G05G04G02
 -19209607.64848 -14904303.17246  20931730.6564                   20931731.3834
  -6684766.505 7  -5195141.863 6  23445669.523
     70802.15746    786982.09843  24266927.7344                   24266931.1254
 -19469031.950 8 -15152099.268 7  21063428.906
  -6495726.752 7  -5015851.811 6  23517269.844
 -16818101.159 8 -13089637.869 7  21518235.805
 -13548961.96747 -10392699.49545  22130557.7734                   22130560.0314
 -21030063.55448 -16339270.01446  20604558.0084                   20604556.3794
 11  8 15  0 58 30.0000000  0  8G10G25G09G12G17G05G04G02
 -19191296.47548 -14890034.72346  20935215.2274                   20935216.2194
  -6775888.916 7  -5266146.347 6  23428329.680
    154684.01346    852344.47443  24282889.6644                   24282892.8794
 -19510582.722 8 -15184476.484 7  21055522.320
  -6435414.186 7  -4968855.040 6  23528746.820
 -16898116.149 8 -13151987.176 7  21503009.227
 -13468814.84947 -10330247.21845  22145809.5314                   22145810.9414
 -21022752.68248 -16333573.23446  20605949.2664                   20605947.8204
 11  8 15  0 59  0.0000000  0  8G10G25G09G12G17G05G04G02
 -19172358.27848 -14875277.68646  20938818.9144                   20938820.0864
  -6866735.770 7  -5336936.092 7  23411042.266
    238608.99646    917740.48343  24298860.0314                   24298863.4494
 -19551622.623 8 -15216455.629 7  21047712.617
  -6374927.958 7  -4921722.952 6  23540256.859
 -16977743.046 8 -13214034.063 7  21487856.344
 -13388579.93347 -10267726.54445  22161077.5474                   22161079.6294
 -21015182.84348 -16327674.65946  20607389.7114                   20607388.0824
 11  8 15  0 59 30.0000000  0  8G10G25G09G12G17G05G04G02
 -19152793.83348 -14860032.66446  20942541.8204                   20942542.9344
  -6957304.609 7  -5407509.205 6  23393806.773
    322573.84046    983167.54343  24314837.6884                   24314842.1914
 -19592150.540 8 -15248035.830 7  21040000.406
  -6314267.807 7  -4874455.332 6  23551799.805
 -17056978.770 8 -13275776.150 7  21472778.547
 -13308259.24847 -10205139.02945  22176362.2504                   22176363.9614
 -21007355.52248 -16321575.45346  20608878.8364                   20608877.4654
 11  8 15  1  0  0.0000000  0  8G10G25G09G12G17G05G04G02
 -19132603.25548 -14844299.74746  20946384.3284                   20946385.0274
  -7047592.192 7  -5477863.152 7  23376626.000
    406575.53146   1048623.33043  24330822.4924                   24330826.8134
 -19632163.729 8 -15279214.943 7  21032386.305
  -6253432.770 7  -4827051.476 6  23563376.367
 -17135820.262 8 -13337211.025 7  21457775.422
 -13227853.90147 -10142485.53645  22191662.5004                   22191664.7774
 -20999271.30948 -16315276.07046  20610417.7814                   20610415.5594
 11  8 15  1  0 30.0000000  0  8G10G25G09G12G17G05G04G02
 -19111788.54148 -14828080.48346  20950345.0314                   20950345.8134
  -7137596.927 7  -5547996.678 7  23359498.898
    490610.00746   1114104.63743  24346814.3444                   24346818.2304
 -19671662.045 8 -15309992.859 7  21024869.859
  -6192423.379 7  -4779511.722 6  23574986.133
 -17214266.240 8 -13398337.733 7  21442847.727
 -13147366.50947 -10079768.09745  22206979.1174                   22206980.7034
 -20990932.36848 -16308778.19346  20612004.0474                   20612002.7154
 11  8 15  1  1  0.0000000  0  8G10G25G09G12G17G05G04G02
 -19090349.58648 -14811374.79946  20954424.1804                   20954425.3444
  -7227315.335 7  -5617907.088 7  23342425.023
    574674.76446   1179609.50343  24362811.3284                   24362815.6054
 -19710642.625 8 -15340367.332 7  21017451.555
  -6131238.991 7  -4731835.608 6  23586629.063
 -17292313.566 8 -13459153.803 7  21427995.625
 -13066798.19447 -10016987.60845  22222310.8054                   22222312.4224
 -20982338.91948 -16302082.00046  20613639.5634                   20613638.3364
 11  8 15  1  1 30.0000000  0  8G10G25G09G12G17G05G04G02
 -19068287.94348 -14794183.91246  20958622.4384                   20958624.1024
  -7316745.286 7  -5687592.717 7  23325407.750
    658765.96746   1245135.03643  24378813.7734                   24378817.7894
 -19749104.288 8 -15370337.463 7  21010133.125
  -6069879.631 7  -4684023.146 6  23598305.523
 -17369959.363 8 -13519656.968 7  21413220.227
 -12986150.98147  -9954145.64645  22237657.4064                   22237659.4224
 -20973492.81548 -16295188.95046  20615323.0164                   20615321.2234
 11  8 15  1  2  0.0000000  0  8G10G25G09G12G17G05G04G02
 -19045603.60448 -14776507.81046  20962939.2664                   20962940.6024
  -7405883.484 7  -5757051.029 7  23308444.680
    742881.24945   1310679.28243  24394820.8524                   24394824.8524
 -19787044.813 8 -15399901.511 7  21002913.656
  -6008344.206 6  -4636073.481 6  23610015.188
 -17447201.675 8 -13579845.755 7  21398521.164
 -12905425.79647  -9891242.94045  22253018.7894                   22253021.0124
 -20964394.41948 -16288099.29646  20617054.1644                   20617052.7194
 11  8 15  1  2 30.0000000  0  8G10G25G09G12G17G05G04G02
 -19022297.71548 -14758347.37746  20967374.2974                   20967375.2424
  -7494727.572 7  -5826280.128 7  23291538.969
    827016.90346   1376239.45143  24410830.5864                   24410835.0744
 -19824462.686 8 -15429058.288 7  20995792.914
  -5946632.923 7  -4587986.803 6  23621758.680
 -17524037.773 8 -13639718.000 7  21383899.773
 -12824624.75347  -9828281.10845  22268394.6884                   22268396.5164
 -20955045.40648 -16280814.35646  20618833.3524                   20618831.7424
 11  8 15  1  3  0.0000000  0  8G10G25G09G12G17G05G04G02
 -18998371.48248 -14739703.55546  20971927.3444                   20971928.1884
  -7583275.189 7  -5895278.256 6  23274688.641
    911169.52546   1441812.78043  24426845.2424                   24426849.7114
 -19861356.624 8 -15457806.823 7  20988772.172
  -5884745.595 6  -4539762.956 6  23633534.984
 -17600465.173 8 -13699271.769 7  21369355.844
 -12743749.80447  -9765261.69245  22283784.4694                   22283786.5004
 -20945447.19148 -16273335.23546  20620660.1254                   20620658.7194
 11  8 15  1  3 30.0000000  0  8G10G25G09G12G17G05G04G02
 -18973825.62948 -14720576.91546  20976598.2034                   20976599.3914
  -7671523.455 7  -5964043.109 7  23257895.734
    995336.28246   1507397.16943  24442860.7114                   24442865.2664
 -19897724.767 8 -15486145.636 7  20981851.453
  -5822681.982 7  -4491401.738 6  23645345.953
 -17676481.318 8 -13758505.091 7  21354890.859
 -12662802.15747  -9702185.62045  22299189.3444                   22299190.3594
 -20935600.67048 -16265662.63146  20622533.6724                   20622532.2704
 11  8 15  1  4  0.0000000  0  8G10G25G09G12G17G05G04G02
 -18948660.36548 -14700967.63046  20981387.0634                   20981388.1724
  -7759469.302 7  -6032572.275 7  23241160.188
   1079514.07046   1572990.18843  24458879.0704                   24458884.0514
 -19933565.185 8 -15514073.233 7  20975031.055
  -5760441.131 6  -4442902.377 6  23657189.453
 -17752083.400 8 -13817415.759 7  21340503.953
 -12581783.17647  -9639053.96345  22314606.3754                   22314607.8164
 -20925506.57348 -16257797.12146  20624454.7894                   20624452.9344
 11  8 15  1  4 30.0000000  0  8G10G25G09G12G17G05G04G02
 -18922877.35448 -14680876.97646  20986293.3594                   20986294.6214
  -7847110.717 7  -6100864.269 7  23224482.172
   1163699.51646   1638589.13843  24474899.1644                   24474904.9494
 -19968876.741 8 -15541588.742 7  20968311.867
  -5698023.222 6  -4394265.092 6  23669068.414
 -17827269.451 8 -13876002.262 7  21326196.492
 -12500694.96347  -9575868.34845  22330036.8524                   22330038.0394
 -20915166.71448 -16249740.08846  20626422.3054                   20626420.4304
 11  8 15  1  5  0.0000000  0  8G10G25G09G12G17G05G04G02
 -18896477.35848 -14660305.55346  20991317.3914                   20991318.4614
  -7934444.573 7  -6168916.585 7  23207863.453
   1247889.64545   1704191.68542  24490920.1644                   24490925.6054
 -20003657.632 8 -15568690.753 7  20961693.102
  -5635428.335 7  -4345489.879 6  23680979.281
 -17902036.733 8 -13934262.449 7  21311969.023
 -12419538.84347  -9512629.83745  22345479.7034                   22345481.8634
 -20904581.91148 -16241492.20446  20628436.4454                   20628434.9694
 11  8 15  1  5 30.0000000  0  8G10G25G09G12G17G05G04G02
 -18869460.79148 -14639253.69546  20996458.2424                   20996459.2274
  -8021467.921 7  -6236726.948 7  23191303.891
   1332081.49646   1769795.66342  24506942.3444                   24506947.0314
 -20037906.003 8 -15595377.813 7  20955175.625
  -5572654.965 6  -4296575.599 6  23692924.461
 -17976382.237 8 -13992193.969 7  21297821.695
 -12338315.84947  -9449339.22045  22360936.1724                   22360937.9304
 -20893752.77148 -16233053.93846  20630497.1804                   20630495.7114
 11  8 15  1  6  0.0000000  0  8G10G25G09G12G17G05G04G02
 -18841829.78847 -14617723.04046  21001716.3834                   21001717.3524
  -8108178.815 7  -6304293.838 7  23174802.555
   1416271.45645   1835398.12442  24522963.0554                   24522967.9104
 -20071620.865 8 -15621649.136 7  20948760.102
  -5509703.955 6  -4247522.895 6  23704903.922
 -18050304.329 8 -14049795.560 7  21283754.258
 -12257028.56047  -9385998.49545  22376404.5944                   22376406.8094
 -20882681.31848 -16224426.84746  20632603.9304                   20632602.7934
 11  8 15  1  6 30.0000000  0  8G10G25G09G12G17G05G04G02
 -18813584.97248 -14595714.10846  21007090.5474                   21007092.1484
  -8194574.326 7  -6371615.002 7  23158362.375
   1500456.48245   1900996.69942  24538982.0554                   24538988.6994
 -20104799.898 8 -15647502.940 7  20942446.438
  -5446574.565 7  -4198331.183 6  23716916.641
 -18123800.301 8 -14107065.118 7  21269768.766
 -12175678.01147  -9322608.48345  22391884.9454                   22391887.0084
 -20871368.36548 -16215611.56746  20634756.6564                   20634755.1174
 11  8 15  1  7  0.0000000  0  8G10G25G09G12G17G05G04G02
 -18784727.42048 -14573227.71546  21012582.7114                   21012583.5164
  -8280651.900 7  -6438688.396 6  23141982.289
   1584633.30046   1966588.95342  24555001.3364                   24555007.7814
 -20137442.668 8 -15672938.873 7  20936234.914
  -5383266.758 6  -4149000.439 6  23728964.500
 -18196867.605 8 -14164000.641 7  21255864.398
 -12094265.70147  -9259170.34545  22407377.5944                   22407379.3984
 -20859815.39748 -16206609.27246  20636955.4614                   20636953.7384
 11  8 15  1  7 30.0000000  0  8G10G25G09G12G17G05G04G02
 -18755258.23148 -14550264.72046  21018190.5944                   21018191.3634
  -8366408.821 7  -6505511.986 6  23125663.414
   1668798.86846   2032172.43243  24571017.4224                   24571023.0864
 -20169547.551 8 -15697955.677 7  20930125.102
  -5319780.210 6  -4099530.456 6  23741044.883
 -18269504.124 8 -14220600.493 7  21242042.063
 -12012793.52547  -9195685.55544  22422881.3914                   22422883.0084
 -20848023.39348 -16197420.70846  20639199.2034                   20639197.5554
 11  8 15  1  8  0.0000000  0  8G10G25G09G12G17G05G04G02
 -18725179.20248 -14526826.52746  21023914.2894                   21023915.7034
  -8451843.234 7  -6572084.266 6  23109405.438
   1752949.52846   2097744.29243  24587031.2424                   24587036.1844
 -20201113.366 8 -15722552.431 7  20924118.664
  -5256115.611 7  -4049921.693 6  23753160.008
 -18341708.475 8 -14276863.579 7  21228302.250
 -11931263.45147  -9132155.63845  22438395.9844                   22438397.8634
 -20835994.18248 -16188047.31646  20641488.1564                   20641486.7464
 11  8 15  1  8 30.0000000  0  8G10G25G09G12G17G05G04G02
 -18694489.38347 -14502912.39146  21029754.3914                   21029754.9964
  -8536950.240 7  -6638401.380 7  23093210.078
   1837084.25946   2163303.74243  24603041.0314                   24603046.5904
 -20232136.373 8 -15746726.207 7  20918214.930
  -5192270.037 6  -4000171.900 6  23765308.977
 -18413475.568 8 -14332785.950 7  21214645.109
 -11849674.72647  -9068580.04345  22453921.9144                   22453922.9884
 -20823726.49648 -16178488.08446  20643822.5634                   20643821.3364
 11  8 15  1  9  0.0000000  0  8G10G25G09G12G17G05G04G02
 -18663192.22748 -14478525.00646  21035710.1804                   21035711.1524
  -8621729.528 7  -6704463.176 6  23077077.219
   1921197.52346   2228846.45743  24619047.2114                   24619053.4414
 -20262617.568 8 -15770477.801 7  20912414.609
  -5128246.059 7  -3950283.096 6  23777492.633
 -18484805.241 8 -14388367.474 7  21201071.656
 -11768031.26847  -9004961.77944  22469457.9774                   22469459.7934
 -20811224.16948 -16168746.03346  20646201.9304                   20646200.3874
 11  8 15  1  9 30.0000000  0  8G10G25G09G12G17G05G04G02
 -18631287.83447 -14453664.44446  21041780.8834                   21041782.1254
  -8706177.297 7  -6770266.619 7  23061007.320
   2005287.61146   2294371.12142  24635049.4534                   24635053.9384
 -20292554.579 8 -15793805.346 7  20906717.906
  -5064042.041 6  -3900254.006 6  23789709.805
 -18555694.559 8 -14443605.878 7  21187581.813
 -11686333.41647  -8941301.12544  22485004.9774                   22485006.7384
 -20798486.96148 -16158820.94446  20648625.6414                   20648624.0124
 11  8 15  1 10  0.0000000  0  8G10G25G09G12G17G05G04G02
 -18598777.68647 -14428331.86346  21047967.4694                   21047969.1254
  -8790291.167 7  -6835809.922 6  23045001.070
   2089350.91146   2359874.88042  24651045.9454                   24651050.2154
 -20321945.960 8 -15816707.743 7  20901124.938
  -4999658.009 6  -3850084.646 6  23801962.188
 -18626141.186 8 -14498499.311 7  21174176.133
 -11604582.84047  -8877599.38944  22500561.6334                   22500562.2154
 -20785516.31048 -16148713.95546  20651093.9144                   20651092.2584
 11  8 15  1 10 30.0000000  0  8G10G25G09G12G17G05G04G02
 -18565663.02847 -14402528.24745  21054268.8134                   21054270.0204
  -8874068.647 7  -6901091.049 7  23029058.742
   2173384.45246   2425355.47243  24667037.5944                   24667042.2974
 -20350790.820 8 -15839184.270 7  20895636.109
  -4935093.855 6  -3799774.916 6  23814248.039
 -18696142.715 8 -14553045.922 7  21160854.898
 -11522781.18647  -8813857.85344  22516127.5474                   22516129.0944
 -20772313.59848 -16138426.13546  20653606.4304                   20653604.6254
 11  8 15  1 11  0.0000000  0  8G10G25G09G12G17G05G04G02
 -18531944.90547 -14376254.39046  21060685.5864                   21060686.5944
  -8957506.884 7  -6966107.856 7  23013180.938
   2257385.27546   2490810.62443  24683022.6564                   24683026.9024
 -20379087.719 8 -15861233.814 7  20890251.563
  -4870348.865 6  -3749324.269 6  23826569.055
 -18765696.858 8 -14607243.915 7  21147619.914
 -11440929.79847  -8750077.57544  22531703.1564                   22531704.8954
 -20758879.76048 -16127958.21746  20656162.7734                   20656161.3054
 11  8 15  1 11 30.0000000  0  8G10G25G09G12G17G05G04G02
 -18497625.03247 -14349511.64246  21067216.7664                   21067218.0004
  -9040603.612 7  -7030858.555 7  22997367.953
   2341350.02246   2556237.61542  24698999.7814                   24699005.1764
 -20406835.365 8 -15882855.362 7  20884971.281
  -4805423.726 6  -3698733.244 6  23838924.188
 -18834801.347 8 -14661091.533 7  21134469.273
 -11359030.26747  -8686259.77045  22547288.4614                   22547290.0164
 -20745216.15748 -16117311.26346  20658762.8054                   20658761.2974
 11  8 15  1 12  0.0000000  0  8G10G25G09G12G17G05G04G02
 -18462704.69348 -14322301.00146  21073861.3914                   21073862.1294
  -9123355.988 7  -7095340.925 7  22981620.969
   2425275.88646   2621634.24142  24714971.0394                   24714975.4694
 -20434032.315 8 -15904047.804 7  20879795.891
  -4740317.734 6  -3648001.306 6  23851313.359
 -18903453.904 8 -14714587.000 7  21121405.016
 -11277084.04847  -8622405.62245  22562882.8054                   22562884.7584
 -20731323.80548 -16106486.06446  20661406.6484                   20661404.6684
 11  8 15  1 12 30.0000000  0  8G10G25G09G12G17G05G04G02
 -18427185.07047 -14294623.36646  21080620.6644                   21080621.8984
  -9205761.507 7  -7159552.999 7  22965939.461
   2509159.80945   2686998.22642  24730933.5474                   24730939.1804
 -20460677.395 8 -15924810.207 7  20874725.500
  -4675030.749 6  -3597128.350 6  23863736.570
 -18971652.625 8 -14767728.835 7  21108427.438
 -11195092.50247  -8558516.13544  22578484.7504                   22578486.3484
 -20717204.02448 -16095483.64546  20664093.2894                   20664091.7384
 11  8 15  1 13  0.0000000  0  8G10G25G09G12G17G05G04G02
 -18391067.17047 -14266479.55346  21087493.7974                   21087495.0864
  -9287817.012 7  -7223492.365 6  22950325.008
   2592999.19345   2752327.56442  24746887.3594                   24746892.9614
 -20486768.786 8 -15945141.172 7  20869760.445
  -4609562.176 6  -3546113.849 6  23876195.039
 -19039394.545 8 -14820514.697 7  21095536.273
 -11113056.34247  -8494591.89345  22594096.1884                   22594098.2424
 -20702857.33948 -16084304.41246  20666823.3834                   20666822.1254
 11  8 15  1 13 30.0000000  0  8G10G25G09G12G17G05G04G02
 -18354352.74448 -14237870.90946  21094480.4534                   21094481.1914
  -9369520.154 7  -7287157.159 6  22934777.219
   2676791.02245   2817619.80142  24762832.5084                   24762838.6804
 -20512305.616 8 -15965040.007 7  20864900.844
  -4543912.062 6  -3494957.904 6  23888687.578
 -19106677.457 8 -14872942.914 7  21082733.195
 -11030977.61147  -8430634.48144  22609714.5944                   22609716.2034
 -20688285.15248 -16072949.46246  20669596.4064                   20669595.0554
 11  8 15  1 14  0.0000000  0  8G10G25G09G12G17G05G04G02
 -18317043.51948 -14208798.79446  21101580.1954                   21101580.9264
  -9450868.812 7  -7350545.719 6  22919297.141
   2760531.56045   2882871.95542  24778768.5704                   24778774.7384
 -20537287.066 8 -15984506.081 7  20860147.008
  -4478080.491 6  -3443660.591 6  23901215.375
 -19173499.879 8 -14925012.294 7  21070017.023
 -10948857.76647  -8366645.03844  22625341.5004                   22625344.1174
 -20673488.83248 -16061419.86846  20672412.0164                   20672410.5594
 11  8 15  1 14 30.0000000  0  8G10G25G09G12G17G05G04G02
 -18279140.60147 -14179264.05846  21108792.6484                   21108793.7854
  -9531859.866 7  -7413655.614 6  22903884.617
 -52295481.67345 -40017917.62142  24794692.2274                   24794701.0234
 -20561711.308 8 -16003537.951 7  20855499.281
  -4412067.218 6  -3392221.699 6  23913776.789
 -19239859.124 8 -14976720.745 7  21057389.117
 -10866697.93047  -8302624.39844  22640976.3364                   22640977.8134
 -20658469.55848 -16049716.54146  20675269.9844                   20675268.4414
 11  8 15  1 15  0.0000000  0  8G10G25G09G12G17G05G04G02
 -18240646.22448 -14149268.44646  21116118.1564                   21116118.7074
  -9612491.502 7  -7476485.462 6  22888540.758
 -52211852.504 5                  24810607.938
 -20585577.981 8 -16022135.363 7  20850957.539
  -4345872.511 6  -3340641.388 6  23926373.391
 -19305753.555 8 -15028067.015 7  21044850.055
 -10784500.25147  -8238574.29944  22656618.4384                   22656619.8914
 -20643228.77448 -16037840.60646  20678170.4454                   20678168.6524
 11  8 15  1 15 30.0000000  0  8G10G25G09G12G17G05G04G02
 -18201561.00948 -14118812.43146  21123555.5474                   21123556.1134
  -9692760.392 7  -7539032.630 7  22873266.664
 -52128283.154 5                  24826509.398
 -20608884.916 8 -16040296.610 7  20846522.180
  -4279495.503 6  -3288919.042 6  23939004.781
 -19371180.328 8 -15079048.884 7  21032399.570
 -10702265.37047  -8174495.20044  22672266.9844                   22672268.3874
 -20627766.84848 -16025792.35346  20681112.5864                   20681111.0984
 11  8 15  1 16  0.0000000  0  8G10G25G09G12G17G05G04G02
 -18161887.28248 -14087897.85046  21131105.5234                   21131106.4884
  -9772664.666 7  -7601295.682 7  22858061.867
 -52044777.199 6                  24842400.570
 -20631632.395 8 -16058021.901 7  20842193.141
  -4212936.804 6  -3237055.150 6  23951670.867
 -19436138.177 8 -15129665.347 7  21020038.594
 -10619995.25147  -8110388.65645  22687922.6484                   22687924.6644
 -20612085.88648 -16013573.41646  20684096.3524                   20684095.3134
 11  8 15  1 16 30.0000000  0  8G10G25G09G12G17G05G04G02
 -18121613.56347 -14056515.73746  21138769.3444                   21138769.8134
  -9852188.990 7  -7663262.655 7  22842928.844
 -51961324.779 5                  24858281.203
 -20653806.205 8 -16075300.179 7  20837974.094
  -4146183.486 6  -3185039.599 6  23964372.680
 -19500612.120 8 -15179904.758 7  21007769.367
 -10537678.28247  -8046245.59145  22703587.1954                   22703588.9654
 -20596174.21148 -16001174.71746  20687124.6564                   20687123.2424
 11  8 15  1 17  0.0000000  0  7G10G25G12G17G05G04G02
 -18080765.91048 -14024686.39246  21146541.9454                   21146543.0554
  -9931354.952 7  -7724950.407 7  22827863.375
 -20675429.416 8 -16092149.413 7  20833859.531
  -4079259.503 6  -3132891.059 6  23977108.031
 -19564624.169 8 -15229784.242 7  20995588.109
 -10455340.13647  -7982086.04545  22719255.3444                   22719257.9064
 -20580056.98748 -15988615.83446  20690191.4924                   20690190.0744
 11  8 15  1 17 30.0000000  0  7G10G25G12G17G05G04G02
 -18039334.55248 -13992402.21446  21154426.2584                   21154427.5354
 -10010148.621 7  -7786348.051 7  22812870.164
 -20696489.661 8 -16108559.979 7  20829851.820
  -4012153.426 6  -3080600.640 6  23989877.688
 -19628160.680 8 -15279293.187 7  20983497.742
 -10372970.83847  -7917902.22144  22734929.6174                   22734931.5784
 -20563723.99448 -15975888.83046  20693299.5554                   20693297.9184
 11  8 15  1 18  0.0000000  0  7G10G25G12G17G05G04G02
 -17997320.63947 -13959664.11345  21162421.2114                   21162422.6374
 -10088566.928 7  -7847453.191 7  22797947.492
 -20716985.001 8 -16124530.359 7  20825951.398
  -3944864.470 6  -3028167.713 6  24002682.672
 -19691219.343 8 -15328429.775 7  20971498.203
 -10290571.05547  -7853694.64044  22750609.6334                   22750612.2544
 -20547175.91548 -15962994.22646  20696448.5474                   20696446.8794
 11  8 15  1 18 30.0000000  0  7G10G25G12G17G05G04G02
 -17954725.52347 -13926473.11446  21170526.7734                   21170527.6174
 -10166607.337 7  -7908263.891 7  22783096.891
 -20736914.905 8 -16140060.144 7  20822159.047
  -3877392.483 6  -2975592.197 6  24015522.516
 -19753797.931 8 -15377192.280 7  20959589.680
 -10208142.06847  -7789464.29844  22766295.7894                   22766298.3364
 -20530413.77748 -15949932.82146  20699638.4844                   20699636.4264
 11  8 15  1 19  0.0000000  0  7G10G25G12G17G05G04G02
 -17911551.28248 -13892830.85546  21178742.8754                   21178743.9454
 -10244267.405 7  -7968778.227 7  22768318.641
 -20756278.422 8 -16155148.585 7  20818474.406
  -3809737.740 6  -2922874.271 6  24028396.195
 -19815894.548 8 -15425579.206 7  20947773.031
 -10125685.29647  -7725212.27944  22781986.4384                   22781988.6094
 -20513438.59548 -15936705.40046  20702868.5234                   20702866.6564
 11  8 15  1 19 30.0000000  0  7G10G25G12G17G05G04G02
 -17867798.83847 -13858738.03946  21187068.4614                   21187069.6334
 -10321544.299 7  -8028993.965 7  22753612.984
 -20775073.668 8 -16169794.223 7  20814897.844
  -3741899.473 6  -2870013.283 6  24041306.078
 -19877506.741 8 -15473588.678 7  20936048.828
 -10043201.74147  -7660939.40844  22797683.0394                   22797684.9494
 -20496251.37848 -15923312.75446  20706139.3284                   20706137.8794
 11  8 15  1 20  0.0000000  0  7G10G25G12G17G05G04G02
 -17823470.93047 -13824196.81445  21195503.5004                   21195504.4454
 -10398436.016 7  -8088909.586 6  22738981.242
 -20793301.124 8 -16183997.428 7  20811428.875
  -3673878.457 6  -2817009.942 6  24054249.500
 -19938633.144 8 -15521219.597 7  20924416.492
  -9960693.18047  -7596647.02844  22813383.3134                   22813384.8364
 -20478854.16648 -15909756.49846  20709450.1174                   20709448.8444
 11  8 15  1 20 30.0000000  0  7G10G25G12G17G05G04G02
 -17778568.98247 -13789208.28846  21204048.3594                   21204049.6454
 -10474939.590 7  -8148522.751 6  22724422.609
 -20810959.232 8 -16197756.983 7  20808068.797
  -3605674.146 6  -2763863.804 5  24067228.320
 -19999271.277 8 -15568470.076 7  20912877.570
  -9878160.39947  -7532335.76944  22829089.5004                   22829090.7704
 -20461246.93448 -15896036.57646  20712800.3444                   20712798.6564
 11  8 15  1 21  0.0000000  0  7G10G25G12G17G05G04G02
 -17733094.15547 -13753773.37346  21212701.4694                   21212702.9734
 -10551052.362 7  -8207831.402 6  22709938.414
 -20828046.628 8 -16211071.840 7  20804817.250
  -3537286.122 6  -2710574.447 6  24080242.664
 -20059419.066 8 -15615338.442 7  20901431.594
  -9795604.58447  -7468006.57344  22844799.1804                   22844800.7114
 -20443431.02248 -15882154.03646  20716190.4224                   20716188.8284
 11  8 15  1 21 30.0000000  0  7G10G25G12G17G05G04G02
 -17687049.05747 -13717894.07745  21221463.9224                   21221464.8204
 -10626772.696 7  -8266834.245 7  22695530.055
 -20844563.330 8 -16223941.986 7  20801673.797
  -3468715.216 6  -2657142.636 6  24093291.750
 -20119075.360 8 -15661823.833 7  20890079.695
  -9713027.84647  -7403661.07044  22860512.6484                   22860514.6724
 -20425408.48648 -15868110.49546  20719620.0944                   20719618.7544
 11  8 15  1 22  0.0000000  0  7G10G25G12G17G05G04G02
 -17640435.52947 -13681571.85046  21230334.4774                   21230335.4304
 -10702097.725 7  -8325529.083 6  22681195.766
 -20860508.306 8 -16236366.653 7  20798640.109
  -3399960.814 6  -2603567.846 6  24106374.938
 -20178237.988 8 -15707924.549 7  20878821.414
  -9630430.96747  -7339299.90344  22876230.6414                   22876232.1564
 -20407179.91348 -15853906.40746  20723088.9774                   20723087.4064
 11  8 15  1 22 30.0000000  0  7G10G25G12G17G05G04G02
 -17593254.96747 -13644807.78746  21239312.3914                   21239313.9224
 -10777024.675 7  -8383913.695 6  22666938.039
 -20875880.221 8 -16248344.775 7  20795714.859
  -3331022.784 6  -2549849.935 6  24119493.344
 -20236904.609 8 -15753638.777 8  20867657.102
  -9547814.68847  -7274923.61144  22891951.1644                   22891953.7584
 -20388745.98048 -15839542.30146  20726597.0084                   20726595.3794
 11  8 15  1 23  0.0000000  0  7G10G25G12G17G05G04G02
 -17545509.66247 -13607603.66945  21248398.2894                   21248399.1764
 -10851551.832 7  -8441986.793 7  22652755.461
 -20890679.360 8 -16259876.576 7  20792898.484
  -3261901.719 6  -2495989.407 6  24132646.539
 -20295074.142 8 -15798965.655 7  20856587.945
  -9465181.13747  -7210533.88344  22907676.6254                   22907678.3204
 -20370108.77648 -15825019.80046  20730143.5474                   20730141.8444
 11  8 15  1 23 30.0000000  0  7G10G25G12G17G05G04G02
 -17497200.60547 -13569960.24745  21257591.4774                   21257592.1414
 -10925675.646 7  -8499745.601 7  22638650.500
 -20904903.513 8 -16270960.346 7  20790191.617
  -3192596.559 6  -2441985.389 6  24145834.539
 -20352743.604 8 -15843902.856 7  20845613.930
  -9382530.47147  -7146130.78944  22923404.3054                   22923406.2504
 -20351268.26248 -15810338.87446  20733728.6564                   20733727.0204
 11  8 15  1 24  0.0000000  0  7G10G25G12G17G05G04G02
 -17448331.24547 -13531880.23445  21266890.8754                   21266891.7854
 -10999395.205 7  -8557189.386 7  22624622.195
 -20918553.040 8 -16281596.344 7  20787594.484
  -3123108.579 6  -2387838.958 5  24159058.203
 -20409912.702 8 -15888450.167 7  20834734.789
  -9299865.44947  -7081716.52044  22939134.5864                   22939137.5824
 -20332226.92148 -15795501.45446  20737351.9614                   20737350.5084
 11  8 15  1 24 30.0000000  0  7G10G25G12G17G05G04G02
 -17398901.77148 -13493363.77945  21276296.4614                   21276297.7624
 -11072706.384 7  -8614314.972 7  22610671.570
 -20931626.665 8 -16291783.612 7  20785106.555
  -3053436.378 6  -2333548.931 5  24172316.750
 -20466577.920 8 -15932604.850 7  20823951.734
  -9217185.55047  -7017290.66844  22954868.6024                   22954870.5274
 -20312984.20748 -15780507.13546  20741013.7274                   20741012.0594
 11  8 15  1 25  0.0000000  0  7G10G25G12G17G05G04G02
 -17348914.76147 -13454412.87646  21285809.3134                   21285809.9574
 -11145607.484 7  -8671121.013 7  22596798.867
 -20944123.980 8 -16301521.791 7  20782728.367
  -2983580.715 6  -2279115.987 6  24185609.609
 -20522737.928 8 -15976365.863 7  20813264.859
  -9134492.52047  -6952854.53744  22970604.4224                   22970606.5594
 -20293541.98248 -15765357.33346  20744713.5394                   20744711.8284
 11  8 15  1 25 30.0000000  0  7G10G25G12G17G05G04G02
 -17298371.93647 -13415028.86845  21295426.8284                   21295427.9844
 -11218095.682 7  -8727605.314 7  22583004.938
 -20956043.751 8 -16310809.931 7  20780460.211
  -2913541.031 6  -2224539.638 6  24198938.289
 -20578390.763 8 -16019731.663 7  20802674.359
  -9051787.15647  -6888408.82744  22986342.5704                   22986345.0394
 -20273901.09048 -15750052.73446  20748450.8834                   20748449.4804
 11  8 15  1 26  0.0000000  0  7G10G25G12G17G05G04G02
 -17247276.44347 -13375214.22245  21305150.3754                   21305151.5204
 -11290169.594 7  -8783766.781 7  22569289.594
 -20967386.179 8 -16319648.208 8  20778301.766
  -2843318.328 6  -2169820.701 6  24212300.453
 -20633535.947 8 -16062701.908 7  20792180.563
  -8969071.86346  -6823955.39344  23002083.1484                   23002085.1804
 -20254063.54148 -15734594.89646  20752226.1334                   20752224.5984
 11  8 15  1 26 30.0000000  0  7G10G25G12G17G05G04G02
 -17195628.80247 -13334969.32245  21314978.5864                   21314979.8134
 -11361825.769 7  -8839602.740 7  22555654.102
 -20978149.784 8 -16328035.451 7  20776253.914
  -2772911.609 6  -2114958.332 6  24225697.836
 -20688170.406 8 -16105274.174 7  20781784.266
  -8886346.55546  -6759494.12844  23017825.6414                   23017827.4574
 -20234029.42948 -15718983.89746  20756038.2274                   20756036.6374
 11  8 15  1 27  0.0000000  0  7G10G25G12G17G05G04G02
 -17143431.81847 -13294296.36345  21324911.3754                   21324912.2194
 -11433062.399 7  -8895111.800 7  22542098.156
 -20988334.967 8 -16335971.972 7  20774315.430
  -2702321.562 6  -2059953.151 6  24239132.188
 -20742292.729 8 -16147447.387 7  20771485.102
  -8803612.78346  -6695026.25844  23033569.0084                   23033570.5514
 -20213800.53148 -15703221.10646  20759887.8834                   20759885.8874
 11  8 15  1 27 30.0000000  0  8G10G25G29G12G17G05G04G02
 -17090687.11047 -13253196.60946  21334948.1094                   21334949.3674
 -11503876.559 7  -8950291.644 7  22528622.516
    719600.171 6    582349.939 6  24657233.680
 -20997940.157 8 -16343456.552 7  20772487.688
  -2631547.557 6  -2004804.577 5  24252599.320
 -20795901.041 8 -16189220.060 8  20761283.586
  -8720871.49046  -6630552.55244  23049313.9774                   23049316.2734
 -20193376.93148 -15687306.60446  20763774.6094                   20763772.7304
 11  8 15  1 28  0.0000000  0  8G10G25G29G12G17G05G04G02
 -17037402.97447 -13211676.52445  21345087.5314                   21345088.6334
 -11574272.247 7  -9005145.393 7  22515226.750
    639270.334 6    519755.284 6  24641947.172
 -21006971.094 8 -16350493.656 7  20770769.125
  -2560595.824 6  -1949517.560 6  24266100.539
 -20848999.601 8 -16230595.526 7  20751179.258
  -8638129.85446  -6566078.58344  23065059.3284                   23065061.3444
 -20172766.41248 -15671246.45646  20767696.1644                   20767694.2114
 11  8 15  1 28 30.0000000  0  8G10G25G29G12G17G05G04G02
 -16983569.09247 -13169728.06245  21355331.7734                   21355332.6724
 -11644234.594 7  -9059661.517 7  22501912.852
    558875.656 6    457110.145 6  24626647.883
 -21015414.600 8 -16357073.021 7  20769162.555
  -2489454.206 6  -1894082.574 6  24279639.227
 -20901574.587 8 -16271563.023 8  20741174.477
  -8555376.74947  -6501595.66444  23080806.9304                   23080808.6454
 -20151957.40348 -15655031.63546  20771656.2034                   20771654.6644
 11  8 15  1 29  0.0000000  0  8G10G25G29G12G17G05G04G02
 -16929194.38447 -13127358.17945  21365679.4924                   21365680.6134
 -11713768.191 7  -9113843.541 7  22488681.133
    478409.559 6    394409.357 6  24611336.602
 -21023277.880 8 -16363200.260 7  20767665.789
  -2418129.565 6  -1838504.952 6  24293212.102
 -20953631.297 8 -16312126.658 8  20731268.484
  -8472620.00047  -6437109.92344  23096554.7974                   23096556.7034
 -20130958.10148 -15638668.54646  20775652.3594                   20775650.6334
 11  8 15  1 29 30.0000000  0  8G10G25G29G12G17G05G04G02
 -16874280.99347 -13084568.54345  21376128.8524                   21376129.6684
 -11782870.690 7  -9167689.636 7  22475531.430
    397872.628 6    331653.280 6  24596010.453
 -21030560.107 8 -16368874.727 7  20766280.266
  -2346621.664 6  -1782784.530 6  24306818.828
 -21005168.176 8 -16352285.240 7  20721461.508
  -8389860.81647  -6372622.28144  23112303.5554                   23112305.4344
 -20109769.26648 -15622157.76846  20779684.6094                   20779682.7464
 11  8 15  1 30  0.0000000  0  8G10G25G29G12G17G05G04G02
 -16818829.47947 -13041359.59145  21386680.8524                   21386681.7384
 -11851538.364 7  -9221196.921 7  22462464.281
    317266.482 6    268843.314 6  24580671.711
 -21037259.244 7 -16374094.837 7  20765005.672
  -2274929.533 6  -1726920.552 6  24320461.188
 -21056182.084 8 -16392036.293 8  20711753.445
  -8307098.73147  -6308132.36744  23128052.4454                   23128054.6374
 -20088390.74748 -15605499.18246  20783752.8524                   20783750.5084
 11  8 15  1 30 30.0000000  0  8G10G25G29G12G17G05G04G02
 -16762842.86947 -12997733.67845  21397334.8984                   21397335.7464
 -11919769.818 8  -9274364.286 7  22449480.695
    236591.262 6    205979.549 6  24565319.117
 -21043375.825 8 -16378860.999 7  20763841.680
  -2203054.092 6  -1670913.814 6  24334139.383
 -21106672.145 8 -16431379.181 8  20702145.602
  -8224335.80447  -6243641.83044  23143801.5944                   23143803.9924
 -20066824.73848 -15588694.50446  20787856.4304                   20787854.7624
 11  8 15  1 31  0.0000000  0  8G10G25G29G12G17G05G04G02
 -16706323.90947 -12953692.93945  21408089.7504                   21408091.0744
 -11987563.205 7  -9327190.317 7  22436579.898
    155847.058 6    143061.962 6  24549954.469
 -21048910.069 7 -16383173.413 7  20762788.500
  -2130995.953 6  -1614764.641 6  24347851.172
 -21156637.506 8 -16470313.195 7  20692637.555
  -8141573.40547  -6179151.66344  23159551.6174                   23159552.6374
 -20045072.57448 -15571744.76946  20791995.4144                   20791994.2384
 11  8 15  1 31 30.0000000  0  8G10G25G29G12G17G05G04G02
 -16649274.11747 -12909238.59645  21418946.4694                   21418947.3714
 -12054915.195 7  -9379672.391 7  22423763.039
     75035.109 6     80091.634 6  24534575.500
 -21053860.475 8 -16387030.869 7  20761846.547
  -2058754.097 6  -1558472.327 6  24361598.070
 -21206075.555 8 -16508836.320 7  20683229.859
  -8058811.80847  -6114662.15844  23175299.4534                   23175302.1804
 -20023134.12048 -15554649.87346  20796170.3284                   20796168.9774
 11  8 15  1 32  0.0000000  0  8G10G25G29G12G17G05G04G02
 -16591696.32947 -12864372.80945  21429902.9924                   21429903.9104
 -12121824.407 7  -9431809.457 7  22411031.055
     -5844.489 6     17068.498 6  24519185.563
 -21058227.707 8 -16390433.906 7  20761015.258
  -1986329.382 6  -1502037.546 6  24375380.531
 -21254985.685 8 -16546948.085 8  20673922.711
  -7976052.85646  -6050174.68044  23191048.2344                   23191050.1334
 -20001011.43448 -15537411.42546  20800380.1884                   20800378.7854
 11  8 15  1 32 30.0000000  0  8G10G25G29G12G17G05G04G02
 -16533593.02747 -12819097.52745  21440959.6254                   21440960.7384
 -12188288.908 7  -9483599.972 7  22398383.211
    -86791.647 6    -46007.208 6  24503781.563
 -21062011.551 8 -16393382.362 7  20760295.398
  -1913722.274 6  -1445460.626 6  24389197.438
 -21303366.582 8 -16584647.460 8  20664715.563
  -7893297.76447  -5985690.23844  23206796.1644                   23206798.3164
 -19978706.03548 -15520030.60346  20804624.7344                   20804623.4104
 11  8 15  1 33  0.0000000  0  8G10G25G29G12G17G05G04G02
 -16474965.11447 -12773413.46545  21452116.1644                   21452117.6684
 -12254305.112 8  -9535041.182 7  22385820.945
   -167804.571 6   -109134.234 6  24488366.086
 -21065210.881 8 -16395875.352 7  20759686.172
  -1840931.781 6  -1388740.821 6  24403048.781
 -21351215.680 8 -16621932.442 8  20655610.305
  -7810546.37547  -5921208.68444  23222543.3914                   23222545.0434
 -19956217.35948 -15502506.96346  20808903.9534                   20808902.9414
 11  8 15  1 33 30.0000000  0  8G10G25G29G12G17G05G04G02
 -16415816.13847 -12727323.37645  21463372.1644                   21463373.4184
 -12319872.054 7  -9586132.308 7  22373343.406
   -248883.815 6   -172312.872 6  24472936.898
 -21067826.345 8 -16397913.378 7  20759188.930
  -1767959.055 6  -1331878.978 6  24416936.078
 -21398532.647 8 -16658802.777 8  20646606.547
  -7727800.90447  -5856731.69944  23238289.3674                   23238291.4064
 -19933547.88448 -15484842.44746  20813218.0704                   20813216.6214
 11  8 15  1 34  0.0000000  0  8G10G25G29G12G17G05G04G02
 -16356147.19647 -12680828.11445  21474726.4304                   21474728.0984
 -12384986.269 7  -9636870.670 7  22360952.477
   -330027.669 6   -235541.849 6  24457495.609
 -21069856.286 8 -16399495.164 8  20758802.508
  -1694803.170 6  -1274874.486 6  24430857.211
 -21445314.471 8 -16695256.126 8  20637703.969
  -7645061.03947  -5792259.11444  23254034.5704                   23254036.6724
 -19910697.34848 -15467036.83346  20817566.2194                   20817564.7894
 11  8 15  1 34 30.0000000  0  8G10G25G29G12G17G05G04G02
 -16295961.19247 -12633929.95845  21486179.5704                   21486180.2854
 -12449645.982 7  -9687254.847 7  22348648.523
   -411235.920 6   -298820.953 6  24442042.266
 -21071301.187 8 -16400621.067 7  20758527.398
  -1621464.355 6  -1217727.391 6  24444812.070
 -21491560.911 8 -16731292.285 8  20628903.844
  -7562328.32247  -5727792.08944  23269777.8364                   23269780.0594
 -19887667.29148 -15449091.34746  20821948.4534                   20821947.5594
 11  8 15  1 35  0.0000000  0  8G10G25G29G12G17G05G04G02
 -16235259.84747 -12586630.22945  21497730.7504                   21497731.9654
 -12513848.829 7  -9737283.059 7  22336430.953
   -492507.683 6   -362149.538 5  24426577.734
 -21072160.687 8 -16401290.822 7  20758364.289
  -1547943.003 6  -1160438.081 6  24458803.148
 -21537269.755 8 -16766909.540 8  20620205.219
  -7479603.28447  -5663331.07644  23285520.1094                   23285522.2424
 -19864458.34348 -15431006.46446  20826365.0944                   20826364.0124
 11  8 15  1 35 30.0000000  0  8G10G25G29G12G17G05G04G02
 -16174046.96647 -12538931.91145  21509379.1724                   21509379.8874
 -12577593.745 8  -9786954.430 7  22324300.992
   -573843.303 7   -425527.922 5  24411099.711
 -21072435.866 8 -16401505.260 7  20758311.375
  -1474240.233 5  -1103007.403 6  24472827.922
 -21582441.097 8 -16802107.970 8  20611609.195
  -7396888.40547  -5598877.96044  23301260.1254                   23301263.1454
 -19841072.88348 -15412784.03946  20830815.5784                   20830814.1884
 11  8 15  1 36  0.0000000  0  8G10G25G29G12G17G05G04G02
 -16112323.37047 -12490835.62245  21521124.6954                   21521125.5984
 -12640877.149 7  -9836266.183 7  22312258.586
   -655241.004 6   -488954.638 5  24395609.406
 -21072124.947 8 -16401263.002 7  20758370.820
  -1400354.831 6  -1045434.369 5  24486887.945
 -21627072.138 8 -16836885.370 8  20603116.656
  -7314182.96747  -5534432.19044  23316997.7344                   23317000.4924
 -19817510.82148 -15394423.99646  20835299.0944                   20835298.0124
 11  8 15  1 36 30.0000000  0  8G10G25G29G12G17G05G04G02
 -16050091.64647 -12442343.37845  21532966.8284                   21532967.8554
 -12703697.193 8  -9885216.873 7  22300304.344
   -736700.491 6   -552429.554 5  24380108.078
 -21071228.525 8 -16400564.496 7  20758541.219
  -1326287.403 5   -987719.519 5  24500982.383
 -21671161.968 8 -16871241.062 8  20594726.602
  -7231488.56247  -5469994.99944  23332734.7584                   23332736.7424
 -19793773.17048 -15375927.13346  20839816.5004                   20839814.5904
 11  8 15  1 37  0.0000000  0  7G10G25G29G12G05G04G02
 -15987356.07047 -12393458.55045  21544905.1564                   21544906.3284
 -12766053.485 8  -9933806.203 7  22288438.305
   -818222.497 6   -615953.224 6  24364595.391
 -21069747.834 8 -16399410.733 7  20758823.156
 -21714711.011 8 -16905175.353 8  20586439.375
  -7148807.47247  -5405568.22744  23348468.0164                   23348470.5084
 -19769862.56148 -15357295.49246  20844365.9774                   20844364.9184
 11  8 15  1 37 30.0000000  0  7G10G25G29G12G05G04G02
 -15924116.07447 -12344180.65745  21556939.3984                   21556940.8524
 -12827941.009 8  -9982030.235 7  22276661.648
   -899803.769 6   -679523.042 6  24349071.063
 -21067680.097 8 -16397799.538 7  20759216.891
 -21757714.976 8 -16938684.909 8  20578255.789
  -7066138.00647  -5341150.47944  23364200.2814                   23364202.2344
 -19745777.21248 -15338527.70046  20848949.6724                   20848948.3094
 11  8 15  1 38  0.0000000  0  7G10G25G29G12G05G04G02
 -15860374.91847 -12294512.23945  21569069.0314                   21569070.0664
 -12889358.462 8 -10029887.989 7  22264973.727
   -981444.299 6   -743139.013 6  24333535.547
 -21065025.859 7 -16395731.315 7  20759721.969
 -21800173.568 8 -16971769.500 8  20570176.320
  -6983481.91847  -5276743.15844  23379928.8444                   23379931.7464
 -19721519.01148 -15319625.21046  20853565.7734                   20853564.6844
 11  8 15  1 38 30.0000000  0  7G10G25G29G12G05G04G02
 -15796136.36547 -12244456.23545  21581293.3754                   21581294.3674
 -12950305.177 8 -10077378.916 7  22253376.398
  -1063144.887 6   -806801.813 6  24317988.109
 -21061787.056 8 -16393207.594 7  20760338.227
 -21842086.685 8 -17004429.041 8  20562200.484
  -6900841.31546  -5212347.90444  23395654.6174                   23395657.1024
 -19697090.33048 -15300589.88846  20858214.3284                   20858213.2304
 11  8 15  1 39  0.0000000  0  7G10G25G29G12G05G04G02
 -15731401.40847 -12194013.41945  21593611.8594                   21593612.6214
 -13010777.606 8 -10124500.257 7  22241868.805
  -1144903.502 6   -870509.824 6  24302429.305
 -21057962.318 8 -16390227.298 7  20761066.102
 -21883452.046 8 -17036661.765 8  20554328.844
  -6818215.80946  -5147964.40043  23411377.9454                   23411380.0634
 -19672490.70648 -15281421.35546  20862895.7194                   20862894.6524
 11  8 15  1 39 30.0000000  0  7G10G25G29G12G05G04G02
 -15666172.41647 -12143185.64945  21606024.6094                   21606025.9024
 -13070773.528 8 -10171250.311 7  22230451.867
  -1226719.094 6   -934262.262 6  24286861.570
 -21053551.400 8 -16386790.235 7  20761905.367
 -21924268.291 8 -17068466.599 8  20546561.859
  -6735606.02246  -5083593.14543  23427097.7424                   23427100.0744
 -19647720.88748 -15262120.22046  20867609.0554                   20867607.9304
 11  8 15  1 40  0.0000000  0  7G10G25G29G12G05G04G02
 -15600452.36347 -12091975.24345  21618530.5864                   21618531.6884
 -13130291.427 8 -10217627.888 7  22219125.703
  -1308591.667 6   -998059.052 6  24271281.000
 -21048554.625 8 -16382896.663 7  20762856.281
 -21964534.748 8 -17099843.044 8  20538899.242
  -6653013.53546  -5019235.40243  23442814.7344                   23442816.5124
 -19622782.60048 -15242687.78746  20872354.5314                   20872353.3524
 11  8 15  1 40 30.0000000  0  7G10G25G29G12G05G04G02
 -15534244.33947 -12040384.60145  21631129.6484                   21631131.0944
 -13189330.025 8 -10263631.967 7  22207890.945
  -1390521.044 6  -1061900.159 6  24255690.281
 -21042972.984 8 -16378547.352 8  20763918.508
 -22004251.065 8 -17130790.792 8  20531341.445
  -6570439.92746  -4954892.34743  23458527.6804                   23458529.8404
 -19597677.61148 -15223125.47346  20877131.9694                   20877130.7584
 11  8 15  1 41  0.0000000  0  7G10G25G29G12G05G04G02
 -15467550.26548 -11988415.20445  21643821.2504                   21643821.9384
 -13247886.646 8 -10309260.456 7  22196747.930
  -1472505.728 6  -1125784.334 6  24240089.859
 -21036805.735 8 -16373741.709 7  20765091.953
 -22043415.330 8 -17161308.370 8  20523889.164
  -6487885.36046  -4890564.16143  23474237.6564                   23474239.9384
 -19572406.04648 -15203433.35546  20881940.7424                   20881939.5434
 11  8 15  1 41 30.0000000  0  7G10G25G29G12G05G04G02
 -15400373.69948 -11936069.84745  21656604.2424                   21656605.7854
 -13305960.075 7 -10354512.450 7  22185697.219
  -1554546.095 7  -1189711.900 6  24224477.430
 -21030054.446 8 -16368480.978 7  20766376.797
 -22082027.354 8 -17191395.639 8  20516541.758
  -6405351.52546  -4826252.12343  23489943.3134                   23489946.1884
 -19546969.69448 -15183612.84246  20886781.5004                   20886780.4654
 11  8 15  1 42  0.0000000  0  7G10G25G29G12G05G04G02
 -15332715.09148 -11883348.87945  21669479.0394                   21669480.7154
 -13363546.446 8 -10399384.921 7  22174739.016
  -1636639.253 7  -1253680.628 6  24208856.008
 -21022716.970 8 -16362763.487 7  20767773.164
 -22120084.186 8 -17221050.280 8  20509299.461
  -6322837.32947  -4761955.37443  23505645.6334                   23505647.5594
 -19521367.74748 -15163663.27546  20891653.3834                   20891652.0824
 11  8 15  1 42 30.0000000  0  7G10G25G29G12G05G04G02
 -15264578.53648 -11830255.47945  21682445.5634                   21682446.7704
 -13420645.365 8 -10443877.560 7  22163873.516
  -1718786.309 7  -1317691.329 6  24193223.484
 -21014795.416 8 -16356590.856 7  20769280.398
 -22157586.338 8 -17250272.712 8  20502162.844
  -6240345.47547  -4697676.04443  23521343.9694                   23521345.1024
 -19495602.68448 -15143586.62246  20896556.2894                   20896555.0044
 11  8 15  1 43  0.0000000  0  7G10G25G29G12G05G04G02
 -15195965.40248 -11776790.69145  21695501.7894                   21695503.3754
 -13477253.839 8 -10487988.039 7  22153101.414
  -1800985.584 6  -1381742.715 6  24177581.578
 -21006288.969 8 -16349962.464 8  20770899.055
 -22194531.916 8 -17279061.444 8  20495132.352
  -6157875.39247  -4633413.65244  23537037.2344                   23537039.0204
 -19469674.29848 -15123382.68946  20901490.0784                   20901488.8984
 11  8 15  1 43 30.0000000  0  7G10G25G29G12G05G04G02
 -15126878.70248 -11722956.92345  21708648.5864                   21708649.7934
 -13533370.248 8 -10531715.084 7  22142422.383
  -1883236.152 6  -1445834.068 6  24161929.633
 -20997197.670 8 -16342878.339 7  20772629.000
 -22230920.172 8 -17307415.900 8  20488207.820
  -6075428.32047  -4569169.20944  23552726.3524                   23552728.3284
 -19443584.21548 -15103052.77046  20906455.4454                   20906453.9144
 11  8 15  1 44  0.0000000  0  7G10G25G29G12G05G04G02
 -15057321.41948 -11668756.46045  21721884.8834                   21721886.1524
 -13588993.069 8 -10575057.545 7  22131838.047
  -1965537.438 6  -1509964.947 6  24146268.297
 -20987522.800 8 -16335339.491 8  20774470.211
 -22266750.434 8 -17335335.556 8  20481389.313
  -5993005.40947  -4504943.59044  23568410.8524                   23568412.8834
 -19417333.41748 -15082597.60746  20911450.5474                   20911449.3554
 11  8 15  1 44 30.0000000  0  7G10G25G29G12G05G04G02
 -14987295.62947 -11614190.90945  21735210.2424                   21735211.5204
 -13644119.777 8 -10618013.418 7  22121347.648
  -2047888.484 6  -1574134.616 6  24130597.305
 -20977263.962 8 -16327345.586 7  20776422.234
 -22302021.246 8 -17362819.274 8  20474677.664
  -5910606.99147  -4440737.02944  23584090.7504                   23584092.1334
 -19390922.41648 -15062017.62046  20916476.3444                   20916474.9804
 11  8 15  1 45  0.0000000  0  7G10G25G29G12G05G04G02
 -14916803.94248 -11559262.33645  21748624.5944                   21748625.9844
 -13698748.614 8 -10660581.336 7  22110952.047
  -2130288.551 6  -1638342.382 6  24114917.023
 -20966421.595 8 -16318896.998 7  20778485.766
 -22336731.843 8 -17389866.464 8  20468072.563
  -5828234.02947  -4376550.31844  23599766.0554                   23599768.1334
 -19364352.57748 -15041313.85846  20921532.5394                   20921531.5274
 11  8 15  1 45 30.0000000  0  7G10G25G29G12G05G04G02
 -14845848.07948 -11503972.06745  21762126.9384                   21762128.4104
 -13752877.031 8 -10702759.313 7  22100651.813
  -2212736.191 6  -1702587.245 6  24099227.297
 -20954995.264 8 -16309993.358 7  20780659.820
 -22370880.648 8 -17416475.902 8  20461574.094
  -5745886.55247  -4312383.46044  23615435.6724                   23615438.3874
 -19337623.56748 -15020486.05746  20926618.7274                   20926617.2304
 11  8 15  1 46  0.0000000  0  7G10G25G29G12G05G04G02
 -14774430.72448 -11448322.17445  21775717.6024                   21775718.9414
 -13806502.925 8 -10744545.728 7  22090447.188
  -2295230.200 6  -1766868.244 6  24083530.023
 -20942985.225 8 -16300634.882 7  20782945.320
 -22404466.748 8 -17442646.864 8  20455182.930
  -5663564.82647  -4248236.67543  23631100.7664                   23631103.3794
 -19310736.18048 -14999534.85946  20931735.5864                   20931733.7704
 11  8 15  1 46 30.0000000  0  7G10G25G29G12G05G04G02
 -14702556.40147 -11392316.23145  21789394.7664                   21789396.3954
 -13859626.456 8 -10785940.691 7  22080337.758
  -2377771.971 6  -1831186.497 6  24067822.477
 -20930393.989 8 -16290823.546 7  20785341.313
 -22437491.228 8 -17468380.203 8  20448898.750
  -5581271.96546  -4184112.39044  23646760.5314                   23646763.4924
 -19283693.64248 -14978462.75446  20936881.6024                   20936879.7274
 11  8 15  1 47  0.0000000  0  7G10G25G29G12G05G04G02
 -14630226.57847 -11335955.32945  21803158.3134                   21803159.9734
 -13912244.239 8 -10826941.539 7  22070325.422
  -2460358.952 6  -1895539.964 6  24052107.609
 -20917220.460 8 -16280558.470 7  20787848.539
 -22469951.595 8 -17493673.965 8  20442721.273
  -5499007.14246  -4120009.95643  23662415.1484                   23662418.0594
 -19256495.35348 -14957269.28546  20942057.0314                   20942055.6454
 11  8 15  1 47 30.0000000  0  7G10G25G29G12G05G04G02
 -14557444.47547 -11279242.01545  21817008.3204                   21817009.9064
 -13964355.588 8 -10867547.786 7  22060408.844
  -2542991.270 6  -1959928.733 6  24036382.422
 -20903466.217 8 -16269840.888 7  20790466.016
 -22501848.095 8 -17518528.349 8  20436651.750
  -5416772.01246  -4055930.65243  23678063.5314                   23678067.0004
 -19229142.97248 -14935955.74846  20947262.1174                   20947260.8204
 11  8 15  1 48  0.0000000  0  7G10G25G29G12G05G04G02
 -14484212.27147 -11222177.96045  21830944.0864                   21830945.5634
 -14015958.092 8 -10907757.542 7  22050588.945
  -2625667.459 7  -2024351.724 6  24020649.688
 -20889131.213 8 -16258670.761 7  20793193.500
 -22533179.418 8 -17542942.347 8  20430689.719
  -5334566.81046  -3991874.70943  23693708.0864                   23693709.8364
 -19201636.95548 -14914522.49746  20952496.4304                   20952494.8754
 11  8 15  1 48 30.0000000  0  7G10G25G29G12G05G04G02
 -14410533.37947 -11164765.84645  21844964.8444                   21844965.5904
 -14067050.686 8 -10947569.949 7  22040866.344
  -2708387.357 7  -2088808.792 6  24004908.914
 -20874216.595 8 -16247048.992 7  20796031.656
 -22563945.605 8 -17566915.982 8  20424834.656
  -5252393.14546  -3927843.28743  23709344.1804                   23709346.5824
 -19173979.23448 -14892971.03046  20957759.5084                   20957758.0234
 11  8 15  1 49  0.0000000  0  7G10G25G29G12G05G04G02
 -14336408.81747 -11107006.45445  21859070.1954                   21859071.2814
 -14117629.745 8 -10986982.181 7  22031241.703
  -2791148.421 7  -2153297.933 6  23989159.766
 -20858720.838 8 -16234974.385 7  20798980.625
 -22594144.039 8 -17590447.210 8  20419088.508
  -5170249.66646  -3863835.39243  23724975.5474                   23724978.1174
 -19146168.31648 -14871300.17746  20963051.7894                   20963050.2934
 11  8 15  1 49 30.0000000  0  7G10G25G29G12G05G04G02
 -14261841.92247 -11048902.37545  21873259.8444                   21873260.9494
 -14167694.520 8 -11025993.682 7  22021715.039
  -2873950.643 7  -2217819.122 6  23973402.695
 -20842645.571 8 -16222448.204 7  20802039.430
 -22623774.996 7 -17613536.250 8  20413449.789
  -5088138.07646  -3799852.39343  23740600.5394                   23740603.3634
 -19118206.37247 -14849511.65346  20968372.4454                   20968371.1174
 11  8 15  1 50  0.0000000  0  7G10G25G29G12G05G04G02
 -14186835.43847 -10990455.76845  21887533.3054                   21887534.2894
 -14217243.148 8 -11064602.988 7  22012286.328
  -2956792.859 7  -2282371.434 6  23957637.688
 -20825991.765 8 -16209471.225 7  20805208.742
 -22652837.562 7 -17636182.377 8  20407919.070
  -5006058.94446  -3735894.63643  23756220.6334                   23756222.7234
 -19090094.12448 -14827606.01346  20973721.9774                   20973720.9804
 11  8 15  1 50 30.0000000  0  7G10G25G29G12G05G04G02
 -14111393.47747 -10931669.81845  21901889.3914                   21901890.7544
 -14266275.356 8 -11102809.890 7  22002955.258
  -3039675.715 7  -2346955.450 6  23941866.406
 -20808761.398 8 -16196044.971 7  20808487.523
 -22681332.671 8 -17658386.342 8  20402496.750
  -4924014.34647  -3671963.73443  23771832.5314                   23771835.1484
 -19061833.76748 -14805584.95046  20979099.7274                   20979099.0044
 11  8 15  1 51  0.0000000  0  7G10G25G29G12G05G04G02
 -14035516.48847 -10872544.91445  21916328.6174                   21916329.4964
 -14314787.230 8 -11140611.344 7  21993724.125
  -3122596.077 6  -2411568.700 6  23926087.094
 -20790952.728 8 -16182168.093 7  20811876.523
 -22709257.604 8 -17680146.001 8  20397182.992
  -4842002.64847  -3608058.55843  23787439.0234                   23787441.6604
 -19033423.86648 -14783447.36146  20984506.1804                   20984504.7234
 11  8 15  1 51 30.0000000  0  7G10G25G29G12G05G04G02
 -13959209.46247 -10813084.88245  21930848.7734                   21930850.5984
 -14362779.481 8 -11178007.873 7  21984591.172
  -3205554.976 6  -2476211.974 6  23910300.625
 -20772568.352 8 -16167842.619 7  20815374.828
 -22736613.918 7 -17701462.585 8  20391977.031
  -4760027.01047  -3544181.41143  23803038.3134                   23803040.6174
 -19004867.73048 -14761195.82446  20989939.8834                   20989938.7464
 11  8 15  1 52  0.0000000  0  7G10G25G29G12G05G04G02
 -13882473.70547 -10753290.78645  21945451.1334                   21945452.9344
 -14410248.794 8 -11214996.943 7  21975558.008
  -3288550.225 6  -2540883.553 6  23894506.820
 -20753607.213 8 -16153067.713 7  20818982.977
 -22763399.323 8 -17722334.310 8  20386880.234
  -4678086.40247  -3480331.56843  23818631.8594                   23818633.4184
 -18976165.04248 -14738830.09546  20995402.2034                   20995400.8404
 11  8 15  1 52 30.0000000  0  7G10G25G29G12G05G04G02
 -13805312.32047 -10693165.03645  21960135.0234                   21960136.2114
 -14457193.972 8 -11251577.574 7  21966624.852
  -3371580.696 6  -2605582.580 6  23878706.508
 -20734071.402 8 -16137845.016 7  20822700.578
 -22789613.833 8 -17742761.167 8  20381891.953
  -4596181.80646  -3416509.78843  23834218.0784                   23834219.5394
 -18947316.45548 -14716350.67246  21000891.8204                   21000890.6374
 11  8 15  1 53  0.0000000  0  7G10G25G29G12G05G04G02
 -13727726.62347 -10632708.65645  21974899.2894                   21974900.0204
 -14503611.948 8 -11287747.412 7  21957791.555
  -3454644.676 6  -2670307.698 6  23862899.883
 -20713959.680 8 -16122173.551 7  20826527.688
 -22815255.396 8 -17762741.578 8  20377012.195
  -4514312.67946  -3352715.64643  23849796.1414                   23849798.5784
 -18918320.93748 -14693756.76746  21006409.5784                   21006408.2234
 11  8 15  1 53 30.0000000  0  7G10G25G29G12G05G04G02
 -13649719.94347 -10571924.21745  21989742.5554                   21989744.0004
 -14549502.068 8 -11323505.949 7  21949059.078
  -3537742.096 6  -2735058.892 6  23847087.672
 -20693273.929 8 -16106054.801 7  20830464.094
 -22840324.541 7 -17782275.948 8  20372241.398
  -4432480.23847  -3288950.10643  23865369.0164                   23865371.0664
 -18889181.02748 -14671050.34446  21011954.8444                   21011952.9414
 11  8 15  1 54  0.0000000  0  7G10G25G29G12G05G04G02
 -13571295.49747 -10510814.26545  22004666.5314                   22004667.6994
 -14594862.907 8 -11358852.040 7  21940427.031
  -3620871.531 6  -2799835.013 6  23831267.875
 -20672014.869 8 -16089489.303 7  20834509.492
 -22864820.801 8 -17801363.934 8  20367580.203
  -4350685.40347  -3225213.84243  23880933.2034                   23880935.6484
 -18859897.58748 -14648232.07046  21017527.1414                   21017525.9574
 11  8 15  1 54 30.0000000  0  7G10G25G29G12G05G04G02
 -13492456.48347 -10449381.24745  22019668.8364                   22019669.7464
 -14639693.472 8 -11393784.943 7  21931895.828
  -3704032.792 7  -2864635.938 6  23815443.633
 -20650184.121 8 -16072478.334 7  20838663.641
 -22888744.529 8 -17820005.772 8  20363027.734
  -4268929.34046  -3161507.83843  23896491.3054                   23896494.1484
 -18830471.85648 -14625302.92746  21023126.7424                   21023125.3984
 11  8 15  1 55  0.0000000  0  7G10G25G29G12G05G04G02
 -13413204.85347 -10387626.73245  22034750.3594                   22034751.0664
 -14683991.278 8 -11428302.730 7  21923466.742
  -3787223.954 6  -2929460.188 6  23799611.563
 -20627781.689 8 -16055021.904 7  20842927.109
 -22912094.234 8 -17838200.322 8  20358584.328
  -4187211.69546  -3097831.74143  23912041.6414                   23912043.7664
 -18800903.74448 -14602262.84046  21028753.3984                   21028751.7934
 11  8 15  1 55 30.0000000  0  7G10G25G29G12G05G04G02
 -13333544.36547 -10325553.61445  22049908.7584                   22049910.2034
 -14727755.491 8 -11462404.722 7  21915138.609
  -3870444.998 6  -2994307.717 6  23783776.484
 -20604808.966 8 -16037121.089 7  20847298.406
 -22934870.062 8 -17855947.701 8  20354250.242
  -4105533.71046  -3034186.55043  23927584.6024                   23927586.9024
 -18771194.73848 -14579112.97346  21034406.6484                   21034405.4064
 11  8 15  1 56  0.0000000  0  7G10G25G29G12G05G04G02
 -13253478.02547 -10263164.25345  22065145.1564                   22065146.2704
 -14770985.208 8 -11496090.225 7  21906912.078
  -3953695.114 7  -3059177.895 6  23767934.445
 -20581267.405 8 -16018777.024 7  20851778.172
 -22957072.292 8 -17873248.118 8  20350025.219
  -4023896.47346  -2970573.12443  23943119.5784                   23943122.0864
 -18741346.19448 -14555854.37146  21040086.6884                   21040085.3364
 11  8 15  1 56 30.0000000  0  7G10G25G29G12G05G04G02
 -13173006.57147 -10200459.20745  22080458.1644                   22080458.8014
 -14813677.163 8 -11529356.697 7  21898788.320
  -4036971.467 7  -3124068.556 6  23752087.227
 -20557156.117 8 -15999989.015 7  20856366.625
 -22978698.805 8 -17890099.913 8  20345909.891
  -3942299.09246  -2906990.75743  23958647.1484                   23958649.6024
 -18711357.14548 -14532486.28846  21045793.6254                   21045792.1294
 11  8 15  1 57  0.0000000  0  7G10G25G29G12G05G04G02
 -13092133.61847 -10137441.32245  22095847.7114                   22095849.0634
 -14855830.448 8 -11562203.409 7  21890766.609
  -4120273.997 7  -3188979.556 6  23736235.719
 -20532476.895 8 -15980758.445 7  20861062.648
 -22999749.863 8 -17906503.312 8  20341903.898
  -3860742.14946  -2843439.84243  23974166.4224                   23974168.7194
 -18681228.74048 -14509009.60846  21051527.1174                   21051525.3524
 11  8 15  1 57 30.0000000  0  7G10G25G29G12G05G04G02
 -13010862.90847 -10074113.50545  22111312.6884                   22111314.3444
 -14897444.547 8 -11594630.013 7  21882847.961
  -4203601.815 7  -3253910.304 6  23720378.039
 -20507231.330 8 -15961086.582 7  20865866.898
 -23020225.915 8 -17922458.653 8  20338007.320
  -3779227.58046  -2779921.99243  23989678.9614                   23989680.7424
 -18650963.13648 -14485426.03146  21057286.2344                   21057284.8094
 11  8 15  1 58  0.0000000  0  7G10G25G29G12G05G04G02
 -12929196.36347 -10010477.24145  22126853.9534                   22126855.1914
 -14938517.049 8 -11626634.567 7  21875031.648
  -4286953.079 7  -3318859.282 6  23704516.922
 -20481419.306 8 -15940973.325 7  20870778.430
 -23040125.783 8 -17937965.022 8  20334220.656
  -3697754.59846  -2716436.51043  24005181.7814                   24005184.1804
 -18620559.66048 -14461735.00946  21063071.9454                   21063070.2344
 11  8 15  1 58 30.0000000  0  7G10G25G29G12G05G04G02
 -12847137.35847  -9946535.14345  22142468.7194                   22142470.0204
 -14979047.156 8 -11658216.491 7  21867319.656
  -4370327.351 7  -3383826.228 6  23688651.563
 -20455042.841 8 -15920420.235 7  20875797.867
 -23059450.014 8 -17953022.833 8  20330543.461
  -3616324.53346  -2652984.46643  24020677.1254                   24020680.2194
 -18590019.86848 -14437937.77746  21068883.2424                   21068881.4494
 11  8 15  1 59  0.0000000  0  7G10G25G29G12G05G04G02
 -12764688.12547  -9882289.00045  22158158.7504                   22158160.5664
 -15019033.077 8 -11689374.365 7  21859710.164
  -4453723.011 7  -3448809.827 6  23672781.633
 -20428102.627 8 -15899427.869 7  20880924.602
 -23078197.582 8 -17967631.294 8  20326975.680
  -3534937.43946  -2589565.90643  24036164.7344                   24036167.7814
 -18559343.82348 -14414034.36546  21074720.4614                   21074718.7664
 11  8 15  1 59 30.0000000  0  7G10G25G29G12G05G04G02
 -12681852.80147  -9817741.99245  22173921.5944                   22173923.5434
 -15058474.344 8 -11720107.821 7  21852204.820
  -4537140.069 7  -3513810.162 6  23656908.484
 -20400600.095 8 -15877997.317 7  20886158.125
 -23096369.301 7 -17981791.058 8  20323517.875
  -3453594.58946  -2526181.88143  24051644.6414                   24051647.2584
 -18528533.29548 -14390026.17646  21080583.6884                   21080582.2894
 11  8 15  2  0  0.0000000  0  7G10G25G29G12G05G04G02
 -12598633.48347  -9752895.76245  22189757.5784                   22189759.0354
 -15097369.391 8 -11750415.651 7  21844803.227
  -4620577.084 7  -3578826.054 6  23641030.742
 -20372536.282 8 -15856129.423 7  20891498.445
 -23113964.956 8 -17995501.929 8  20320169.484
  -3372296.26846  -2462832.50243  24067114.5164                   24067116.9614
 -18497588.90048 -14365913.66846  21086472.1254                   21086470.9104
 11  8 15  2  0 30.0000000  0  7G10G25G29G12G05G04G02
 -12515033.07047  -9687752.59545  22205666.5234                   22205668.0354
 -15135716.698 8 -11780296.676 7  21837506.148
  -4704032.687 7  -3643856.377 6  23625149.734
 -20343912.486 8 -15833825.170 7  20896945.695
 -23130984.052 8 -18008763.537 8  20316930.672
  -3291042.69547  -2399517.98943  24082576.0864                   24082579.0474
 -18466511.56248 -14341697.57446  21092386.1484                   21092384.7894
 11  8 15  2  1  0.0000000  0  7G10G25G29G12G05G04G02
 -12431053.94147  -9622314.31245  22221647.1724                   22221648.9454
 -15173514.632 8 -11809749.606 7  21830313.102
  -4787505.318 7  -3708899.961 6  23609265.453
 -20314729.106 7 -15811084.877 7  20902498.945
 -23147425.949 8 -18021575.373 8  20313802.016
  -3209834.31846  -2336238.72643  24098029.7114                   24098032.8914
 -18435301.13047 -14317377.75446  21098324.8054                   21098323.6644
 11  8 15  2  1 30.0000000  0  7G10G25G29G12G05G04G02
 -12346699.35447  -9556583.45645  22237699.4614                   22237700.5824
 -15210762.468 8 -11838773.894 7  21823225.578
  -4870994.449 7  -3773956.390 6  23593377.930
 -20284988.107 8 -15787910.066 7  20908158.023
 -23163291.108 8 -18033937.813 8  20310782.969
  -3128671.91646  -2272995.26343  24113473.9924                   24113476.9844
 -18403958.81348 -14292955.18746  21104289.1644                   21104288.0474
 11  8 15  2  2  0.0000000  0  7G10G25G29G12G05G04G02
 -12261971.36647  -9490561.65945  22253822.7734                   22253824.3134
 -15247458.110 8 -11867367.882 7  21816242.430
  -4954498.026 7  -3839024.075 6  23577488.063
 -20254689.970 8 -15764301.147 7  20913923.727
 -23178578.998 7 -18045850.436 8  20307873.555
  -3047555.30946  -2209787.47443  24128910.1254                   24128913.1484
 -18372484.64248 -14268429.86546  21110278.8834                   21110277.3714
 11  8 15  2  2 30.0000000  0  7G10G25G29G12G05G04G02
 -12176872.94047  -9424251.21044  22270016.1414                   22270017.8404
 -15283600.385 8 -11895530.681 7  21809364.531
  -5038014.951 7  -3904102.134 6  23561594.461
 -20223835.518 8 -15740258.713 7  20919795.227
 -23193289.262 8 -18057312.954 8  20305074.250
  -2966484.70746  -2146615.55543  24144338.0004                   24144340.1094
 -18340879.47348 -14243802.46246  21116292.5864                   21116291.3204
 11  8 15  2  3  0.0000000  0  7G10G25G29G12G05G04G02
 -12091407.97347  -9357655.15944  22286279.9224                   22286281.1524
 -15319189.005 8 -11923262.049 7  21802592.141
  -5121544.939 6  -3969190.398 6  23545697.969
 -20192427.205 8 -15715784.709 7  20925772.273
 -23207422.854 8 -18068326.110 8  20302384.867
  -2885461.72246  -2083480.71943  24159756.5944                   24159758.6604
 -18309144.58048 -14219073.97946  21122331.7974                   21122330.3444
 11  8 15  2  3 30.0000000  0  7G10G25G29G12G05G04G02
 -12005578.12147  -9290774.75844  22302612.1954                   22302614.1724
 -15354221.660 8 -11950560.205 7  21795926.211
  -5205085.528 7  -4034286.878 6  23529801.578
 -20160464.964 8 -15690879.063 7  20931854.086
 -23220978.458 8 -18078888.898 8  20299805.266
  -2804485.47146  -2020382.34343  24175165.4774                   24175167.4924
 -18277279.59148 -14194244.12146  21128395.4454                   21128394.1454
 11  8 15  2  4  0.0000000  0  7G10G25G29G12G05G04G02
 -11919386.81547  -9223612.71944  22319014.1564                   22319015.7894
 -15388697.741 8 -11977424.664 7  21789365.352
  -5288636.115 7  -4099391.170 6  23513902.344
 -20127950.727 8 -15665543.297 7  20938041.484
 -23233957.046 8 -18089002.068 8  20297335.266
  -2723557.08646  -1957321.21843  24190565.3754                   24190567.5664
 -18245285.82148 -14169313.91246  21134483.8834                   21134482.5314
 11  8 15  2  4 30.0000000  0  7G10G25G29G12G05G04G02
 -11832837.46047  -9156171.67844  22335483.8524                   22335485.0124
 -15422616.633 8 -12003854.938 7  21782911.250
  -5372196.049 7  -4164502.783 6  23498001.938
 -20094886.604 8 -15639779.049 7  20944333.563
 -23246359.030 8 -18098665.924 8  20294975.406
  -2642677.36546  -1894298.06043  24205956.7194                   24205959.0354
 -18213164.78448 -14144284.53846  21140596.4844                   21140594.9304
 11  8 15  2  5  0.0000000  0  7G10G25G29G12G05G04G02
 -11745933.32147  -9088454.19045  22352021.1724                   22352022.5004
 -15455977.981 8 -12029850.768 7  21776562.438
  -5455764.617 7  -4229621.162 6  23482099.055
 -20061274.446 8 -15613587.762 7  20950729.648
 -23258185.031 8 -18107880.978 8  20292724.859
  -2561847.54646  -1831313.81043  24221337.3594                   24221340.8484
 -18180917.88148 -14119157.08946  21146732.4064                   21146731.1134
 11  8 15  2  5 30.0000000  0  7G10G25G29G12G05G04G02
 -11658674.74847  -9020460.49244  22368625.9144                   22368627.0704
 -15488777.810 8 -12055409.057 7  21770320.781
  -5539338.148 6  -4294743.396 6  23466195.797
 -20027112.795 7 -15586968.288 7  20957230.242
 -23269432.414 8 -18116645.142 8  20290584.961
  -2481065.15946  -1768366.47843  24236709.3444                   24236711.9844
 -18148542.41347 -14093929.44746  21152893.3834                   21152892.1724
 11  8 15  2  6  0.0000000  0  7G10G25G29G12G05G04G02
 -11571066.73647  -8952194.55444  22385297.2664                   22385298.8364
 -15521017.339 8 -12080530.743 7  21764185.352
  -5622917.525 7  -4359870.151 6  23450291.508
 -19992404.910 8 -15559923.198 7  20963835.078
 -23280103.500 8 -18124960.258 8  20288554.055
  -2400332.91646  -1705458.21643  24252073.6954                   24252075.3954
 -18116041.25848 -14068603.86846  21159078.1334                   21159076.8954
 11  8 15  2  6 30.0000000  0  7G10G25G29G12G05G04G02
 -11483112.10347  -8883658.49244  22402034.8594                   22402036.1094
 -15552695.446 8 -12105214.943 7  21758157.516
  -5706501.294 7  -4425000.361 6  23434385.844
 -19957152.167 8 -15532453.528 7  20970543.352
 -23290198.354 8 -18132826.356 8  20286633.188
  -2319650.90046  -1642589.10443  24267426.1804                   24267428.5234
 -18083415.37448 -14043181.11446  21165286.5004                   21165285.2624
 11  8 15  2  7  0.0000000  0  7G10G25G29G12G05G04G02
 -11394812.97247  -8814853.98944  22418837.7034                   22418838.2894
 -15583810.382 8 -12129460.316 7  21752236.422
  -5790087.434 7  -4490132.382 6  23418479.359
 -19921355.915 8 -15504560.343 7  20977354.914
 -23299716.582 8 -18140243.146 8  20284821.922
  -2239018.99946  -1579759.07443  24282770.6724                   24282773.0394
 -18050664.48148 -14017660.92846  21171519.3134                   21171517.7154
 11  8 15  2  7 30.0000000  0  7G10G25G29G12G05G04G02
 -11306172.95447  -8745783.86244  22435705.0004                   22435705.8874
 -15614361.909 8 -12153266.665 7  21746423.172
  -5873675.104 7  -4555265.631 6  23402573.156
 -19885018.070 8 -15476245.143 7  20984270.258
 -23308658.792 8 -18147211.089 8  20283119.914
  -2158438.43646  -1516969.00143  24298103.9064                   24298106.1134
 -18017790.14748 -13992044.56146  21177774.8754                   21177773.0944
 11  8 15  2  8  0.0000000  0  8G10G25G29G12G26G05G04G02
 -11217193.56847  -8676449.28144  22452636.9144                   22452638.3484
 -15644347.577 8 -12176632.099 7  21740716.328
  -5957262.173 7  -4620398.377 6  23386667.695
 -19848138.680 8 -15447507.963 7  20991288.117
   -762461.606 6                  24813700.070
 -23317023.920 8 -18153729.345 8  20281528.328
  -2077907.81146  -1454217.85443  24313428.6884                   24313430.1254
 -17984791.39748 -13966331.24546  21184054.5634                   21184053.1914
 11  8 15  2  8 30.0000000  0  8G10G25G29G12G26G05G04G02
 -11127878.21447  -8606852.88744  22469632.9614                   22469634.4454
 -15673767.058 8 -12199556.340 7  21735118.219
  -6040847.651 7  -4685529.899 6  23370761.305
 -19810719.708 8 -15418350.322 7  20998408.758
   -856773.67545   -592376.99242  24795751.3754                   24795756.2034
 -23324812.763 8 -18159798.558 8  20280045.891
  -1997428.25446  -1391506.50843  24328744.0704                   24328745.1334
 -17951669.27647 -13940521.79146  21190357.2504                   21190355.5904
 11  8 15  2  9  0.0000000  0  8G10G25G29G12G26G05G04G02
 -11038230.38847  -8536997.45644  22486692.4924                   22486694.3324
 -15702619.904 8 -12222039.078 7  21729627.563
  -6124430.771 7  -4750659.571 6  23354855.781
 -19772763.183 8 -15388773.816 7  21005631.664
   -951208.88146   -665962.74042  24777782.8984                   24777785.8674
 -23332026.138 8 -18165419.353 8  20278673.219
  -1917000.49846  -1328835.51143  24344047.7734                   24344050.3714
 -17918425.28048 -13914617.36246  21196683.3054                   21196681.8794
 11  8 15  2  9 30.0000000  0  8G10G25G29G12G26G05G04G02
 -10948253.85147  -8466885.87744  22503814.8284                   22503815.9804
 -15730906.228 8 -12244080.340 7  21724245.016
  -6208011.076 7  -4815787.074 6  23338950.953
 -19734271.884 8 -15358780.609 7  21012956.234
  -1045765.06646   -739642.84243  24759789.3444                   24759791.3404
 -23338665.259 8 -18170592.664 8  20277410.102
  -1836625.89046  -1266205.97743  24359342.2664                   24359345.1214
 -17885060.75948 -13888619.03546  21203032.4454                   21203030.9264
 11  8 15  2 10  0.0000000  0  8G10G25G29G12G26G05G04G02
 -10857949.72547  -8396519.05144  22520999.1024                   22521000.1524
 -15758623.358 8 -12265678.092 7  21718970.188
  -6291585.386 7  -4880909.879 6  23323047.508
 -19695244.878 8 -15328369.958 7  21020382.734
  -1140437.81546   -813413.73843  24741773.2114                   24741775.8714
 -23344728.758 8 -18175317.449 8  20276255.961
  -1756302.91046  -1203616.66643  24374627.8754                   24374630.1214
 -17851574.65948 -13862525.96346  21209404.6564                   21209403.1334
 11  8 15  2 10 30.0000000  0  8G10G25G29G12G26G05G04G02
 -10767321.85846  -8325899.93744  22538244.7814                   22538246.0944
 -15785771.468 8 -12286832.452 7  21713804.445
  -6375153.525 7  -4946027.896 6  23307145.367
 -19655685.416 8 -15297544.418 7  21027910.602
  -1235225.06746   -887273.90043  24723736.1414                   24723738.8094
 -23350218.166 8 -18179594.890 8  20275211.477
  -1676033.19346  -1141068.82243  24389902.9924                   24389905.4224
 -17817968.40448 -13836339.26346  21215799.7584                   21215798.4104
 11  8 15  2 11  0.0000000  0  8G10G25G29G12G26G05G04G02
 -10676372.62746  -8255030.44044  22555551.7424                   22555553.4304
 -15812348.888 8 -12307542.105 7  21708747.203
  -6458713.395 6  -5011139.469 6  23291243.984
 -19615593.931 8 -15266304.307 7  21035539.516
  -1330123.09246   -961220.39643  24705676.5314                   24705679.8014
 -23355132.607 8 -18183424.304 8  20274276.375
  -1595815.63546  -1078561.74643  24405167.9614                   24405169.5704
 -17784241.82248 -13810058.80546  21222217.6804                   21222216.1054
 11  8 15  2 11 30.0000000  0  8G10G25G29G12G26G05G04G02
 -10585105.72746  -8183913.41044  22572919.8444                   22572921.1094
 -15838355.998 8 -12327807.371 7  21703797.914
  -6542264.695 6  -5076244.323 6  23275344.867
 -19574973.674 8 -15234652.173 7  21043269.961
  -1425130.03046  -1035251.69843  24687598.0944                   24687601.1374
 -23359473.810 8 -18186807.039 8  20273450.102
  -1515652.25147  -1016096.75843  24420422.7974                   24420423.6954
 -17750396.67248 -13783685.94746  21228658.3834                   21228656.8554
 11  8 15  2 12  0.0000000  0  8G10G25G29G12G26G05G04G02
 -10493523.27046  -8112550.47044  22590347.5164                   22590348.4414
 -15863790.942 8 -12347626.796 7  21698957.570
  -6625804.659 7  -5141340.334 6  23259447.875
 -19533825.232 8 -15202588.464 7  21051100.203
  -1520241.76346  -1109364.60243  24669498.6334                   24669502.8714
 -23363241.222 8 -18189742.664 8  20272733.008
  -1435542.16046   -953673.34843  24435666.9064                   24435669.4264
 -17716432.58948 -13757220.41346  21235121.3984                   21235119.3554
 11  8 15  2 12 30.0000000  0  8G10G25G29G12G26G05G04G02
 -10401628.45546  -8040944.13444  22607834.5634                   22607835.3554
 -15888653.467 8 -12367000.193 7  21694226.813
  -6709332.760 7  -5206427.131 6  23243552.281
 -19492150.388 8 -15170114.582 7  21059030.406
  -1615456.05446  -1183557.48343  24651380.2424                   24651383.0004
 -23366435.570 8 -18192231.743 8  20272125.320
  -1355486.07746   -891292.03943  24450901.0004                   24450903.0944
 -17682350.32148 -13730662.78346  21241606.5784                   21241605.4804
 11  8 15  2 13  0.0000000  0  8G10G25G29G12G26G05G04G02
 -10309423.58546  -7969096.19944  22625380.0634                   22625381.4384
 -15912942.365 8 -12385926.591 7  21689605.055
  -6792847.272 7  -5271503.296 7  23227660.859
 -19449950.414 8 -15137231.483 7  21067060.594
  -1710769.39746  -1257827.49443  24633242.3054                   24633245.5004
 -23369057.066 8 -18194274.441 8  20271626.555
  -1275483.87546   -828952.63743  24466124.2034                   24466126.9184
 -17648150.25947 -13704013.38446  21248114.7584                   21248113.8204
 11  8 15  2 13 30.0000000  0  8G10G25G29G12G26G05G04G02
 -10216911.52247  -7897008.87644  22642984.6954                   22642985.9184
 -15936656.890 8 -12404405.441 7  21685091.789
  -6876346.488 7  -5336567.556 7  23211771.445
 -19407227.080 8 -15103940.593 7  21075191.000
  -1806178.85546  -1332172.43743  24615086.2344                   24615089.7154
 -23371106.072 8 -18195871.050 8  20271236.680
  -1195535.65146   -766655.38043  24481338.7584                   24481340.9844
 -17613832.78147 -13677272.49846  21254645.2894                   21254644.1884
 11  8 15  2 14  0.0000000  0  8G10G25G29G12G26G05G04G02
 -10124096.29447  -7824685.35144  22660646.9384                   22660648.0824
 -15959797.364 8 -12422436.968 7  21680688.742
  -6959830.004 7  -5401619.598 6  23195884.961
 -19363982.899 8 -15070243.841 7  21083419.953
  -1901682.40746  -1406590.66543  24596912.4844                   24596915.8244
 -23372584.104 8 -18197022.742 8  20270955.445
  -1115642.59946   -704401.12043  24496541.9614                   24496543.9104
 -17579399.42447 -13650441.30446  21261197.5944                   21261196.6484
 11  8 15  2 14 30.0000000  0  8G10G25G29G12G26G05G04G02
 -10030980.12547  -7752127.29844  22678366.1414                   22678368.0124
 -15982362.468 8 -12440020.157 7  21676394.586
  -7043295.887 7  -5466657.890 6  23180002.336
 -19320219.326 8 -15036142.352 7  21091747.883
  -1997276.23946  -1481079.28243  24578721.8284                   24578724.7194
 -23373491.021 8 -18197729.407 8  20270782.602
  -1035804.85746   -642189.92143  24511734.0474                   24511736.5204
 -17544850.12947 -13623519.75946  21267772.4144                   21267771.2934
 11  8 15  2 15  0.0000000  0  8G10G25G29G12G26G05G04G02
  -9937566.23347  -7679337.28044  22696142.6414                   22696143.9844
 -16004351.918 8 -12457154.769 7  21672209.961
  -7126742.690 7  -5531681.320 6  23164122.242
 -19275938.355 8 -15001637.721 7  21100174.242
  -2092957.82546  -1555636.27143  24560514.3524                   24560517.3364
 -23373827.650 8 -18197991.694 8  20270718.484
   -956022.56146   -580021.94843  24526916.2344                   24526918.9304
 -17510185.75348 -13596508.55946  21274368.6094                   21274366.9264
 11  8 15  2 15 30.0000000  0  8G10G25G29G12G26G05G04G02
  -9843857.36047  -7606317.37344  22713974.6644                   22713976.1134
 -16025764.610 8 -12473839.978 7  21668135.453
  -7210168.817 7  -5596688.627 6  23148246.906
 -19231141.303 8 -14966730.938 7  21108698.586
  -2188723.71746  -1630258.94643  24542290.7114                   24542292.9344
 -23373594.141 8 -18197809.711 8  20270762.922
   -876295.59246   -517897.08143  24542087.9844                   24542090.1914
 -17475406.39048 -13569407.75346  21280986.8914                   21280985.4104
 11  8 15  2 16  0.0000000  0  8G10G25G29G12G26G05G04G02
  -9749856.30347  -7533069.81044  22731862.1724                   22731863.6454
 -16046600.172 8 -12490075.461 7  21664170.070
  -7293573.121 7  -5661678.938 6  23132375.477
 -19185830.043 8 -14931423.476 7  21117321.273
  -2284570.90046  -1704944.96342  24524050.3754                   24524053.9844
 -23372791.336 8 -18197184.137 8  20270915.711
   -796624.23746   -455815.60243  24557248.2274                   24557252.1804
 -17440512.21148 -13542217.47746  21287626.9614                   21287625.3954
 11  8 15  2 16 30.0000000  0  8G10G25G29G12G26G05G04G02
  -9655566.06047  -7459596.88844  22749804.9844                   22749806.4104
 -16066858.075 8 -12505860.814 7  21660315.516
  -7376953.909 6  -5726650.921 6  23116508.844
 -19140006.565 8 -14895716.873 7  21126041.297
  -2380496.27746  -1779691.90143  24505796.3524                   24505800.3484
 -23371419.753 8 -18196115.339 8  20271176.672
   -717008.85446   -393777.64943  24572399.7344                   24572402.1214
 -17405504.35348 -13514938.62746  21294288.7894                   21294287.6134
 11  8 15  2 17  0.0000000  0  8G10G25G29G12G26G05G04G02
  -9560989.03147  -7385900.52644  22767802.7664                   22767804.3554
 -16086537.457 8 -12521195.365 7  21656570.445
  -7460309.185 7  -5791603.023 6  23100645.664
 -19093672.571 8 -14859612.482 7  21134858.313
  -2476496.61546  -1854497.22142  24487529.5314                   24487531.6644
 -23369479.825 8 -18194603.681 8  20271545.891
   -637449.27546   -331783.24543  24587538.8204                   24587541.0234
 -17370382.87148 -13487571.23546  21300972.2584                   21300971.0204
 11  8 15  2 17 30.0000000  0  8G10G25G29G12G26G05G04G02
  -9466129.02947  -7311983.67044  22785853.7894                   22785855.8324
 -16105638.755 8 -12536079.482 7  21652935.242
  -7543638.580 7  -5856534.979 6  23084788.898
 -19046830.964 8 -14823112.535 7  21143771.844
  -2572569.83946  -1929359.32843  24469247.3984                   24469249.1134
 -23366973.283 8 -18192650.511 8  20272023.258
   -557946.70946   -269833.26243  24602667.7424                   24602669.9654
 -17335148.96247 -13460116.23946  21307677.1884                   21307675.7304
 11  8 15  2 18  0.0000000  0  8G10G25G29G12G26G05G04G02
  -9370987.87846  -7237847.69844  22803959.1174                   22803959.8204
 -16124160.521 8 -12550511.989 7  21649411.109
  -7626939.756 7  -5921444.938 6  23068937.664
 -18999482.313 8 -14786217.489 7  21152782.391
  -2668711.80846  -2004275.02043  24450951.4774                   24450954.1294
 -23363899.608 8 -18190255.423 8  20272607.656
   -478500.41646   -207927.11943  24617786.0704                   24617788.7664
 -17299802.26248 -13432573.36146  21314403.0004                   21314402.0984
 11  8 15  2 18 30.0000000  0  8G10G25G29G12G26G05G04G02
  -9275569.17347  -7163495.46544  22822115.8594                   22822117.6414
 -16142102.747 8 -12564492.923 7  21645996.656
  -7710211.466 7  -5986331.923 6  23053090.883
 -18951629.117 8 -14748929.288 7  21161888.000
  -2764919.86646  -2079242.27043  24432644.0784                   24432646.4844
 -23360260.038 8 -18187419.375 8  20273300.258
   -399111.00646   -146065.33442  24632892.7894                   24632896.4924
 -17264343.95847 -13404943.50946  21321150.9774                   21321149.2974
 11  8 15  2 19  0.0000000  0  8G10G25G29G12G26G05G04G02
  -9179875.72847  -7088929.15244  22840326.4064                   22840327.5124
 -16159465.350 8 -12578022.200 7  21642692.203
  -7793452.705 6  -6051195.151 6  23037251.656
 -18903273.578 8 -14711249.647 7  21171090.016
  -2861191.30546  -2154258.85543  24414324.1564                   24414326.4494
 -23356055.726 8 -18184143.266 8  20274100.563
   -319778.97646    -84248.24843  24647990.2344                   24647993.2974
 -17228774.55648 -13377227.08646  21327919.5234                   21327918.1054
 11  8 15  2 19 30.0000000  0  8G10G25G29G12G26G05G04G02
  -9083910.48947  -7014151.06244  22858587.7344                   22858589.1724
 -16176247.513 8 -12591099.175 7  21639499.258
  -7876661.546 6  -6116033.131 6  23021417.063
 -18854417.440 8 -14673179.935 7  21180387.125
  -2957522.48546  -2229321.96043  24395991.6724                   24395994.2584
 -23351287.366 8 -18180427.642 8  20275007.797
   -240504.16346    -22475.69643  24663075.4454                   24663078.1024
 -17193094.07648 -13349424.10546  21334709.1804                   21334707.7734
 11  8 15  2 20  0.0000000  0  8G10G25G29G12G26G05G04G02
  -8987677.50647  -6939164.32044  22876900.6414                   22876901.6994
 -16192450.269 8 -12603724.679 7  21636415.547
  -7959837.636 7  -6180845.585 6  23005589.188
 -18805064.044 8 -14634722.750 7  21189778.516
  -3053911.74046  -2304430.40543  24377649.8054                   24377652.6174
 -23345956.504 8 -18176273.711 8  20276022.313
   -161288.11146     39251.02943  24678149.4844                   24678152.5474
 -17157304.45448 -13321536.08546  21341520.0784                   21341518.7274
 11  8 15  2 20 30.0000000  0  7G10G25G29G12G26G05G02
  -8891177.17347  -6863969.26244  22895263.3134                   22895265.2854
 -16208070.818 8 -12615896.510 7  21633443.180
  -8042977.141 7  -6245629.572 6  22989768.125
 -18755212.813 8 -14595877.637 7  21199265.023
  -3150353.54346  -2379579.78343  24359297.8674                   24359300.0704
 -23340061.866 8 -18171680.462 8  20277143.750
 -17121403.67448 -13293561.45246  21348351.3134                   21348350.2894
 11  8 15  2 21  0.0000000  0  7G10G25G29G12G26G05G02
  -8794413.99447  -6788569.41344  22913677.2344                   22913678.9454
 -16223110.091 8 -12627615.404 7  21630581.320
  -8126079.526 7  -6310384.584 6  22973953.961
 -18704866.829 8 -14556647.006 7  21208845.508
  -3246846.02246  -2454768.68143  24340936.2274                   24340938.8954
 -23333605.490 8 -18166649.508 8  20278372.711
 -17085393.63448 -13265501.67846  21355203.7894                   21355202.6054
 11  8 15  2 21 30.0000000  0  7G10G25G29G12G26G05G02
  -8697389.83447  -6712966.19444  22932140.6644                   22932141.7234
 -16237566.972 8 -12638880.481 7  21627830.109
  -8209142.735 7  -6375109.055 6  22958147.953
 -18654027.578 8 -14517032.000 7  21218519.953
  -3343385.39746  -2529994.11643  24322564.9064                   24322567.1054
 -23326587.791 8 -18161181.157 8  20279707.930
 -17049273.62648 -13237356.21546  21362077.3594                   21362075.9844
 11  8 15  2 22  0.0000000  0  7G10G25G29G12G26G05G02
  -8600108.45247  -6637162.56144  22950652.8524                   22950654.0314
 -16251442.033 8 -12649692.187 7  21625189.828
  -8292165.939 7  -6439802.378 6  22942349.031
 -18602698.146 8 -14477035.056 7  21228287.617
  -3439969.08346  -2605254.05043  24304185.5004                   24304187.7664
 -23319009.856 8 -18155276.256 8  20281150.063
 -17013045.08648 -13209126.18046  21368971.5474                   21368970.1724
 11  8 15  2 22 30.0000000  0  7G10G25G29G12G26G05G02
  -8502572.03647  -6561160.18144  22969212.8754                   22969214.8364
 -16264734.530 8 -12660049.967 7  21622660.391
  -8375147.015 7  -6504462.875 6  22926557.586
 -18550879.913 8 -14436657.206 7  21238148.328
  -3536593.40246  -2680545.66443  24285798.5004                   24285800.7344
 -23310871.994 8 -18148935.048 8  20282698.578
 -16976707.79647 -13180811.39146  21375886.0944                   21375884.9844
 11  8 15  2 23  0.0000000  0  7G10G25G29G12G26G05G02
  -8404783.41147  -6484961.26944  22987822.0234                   22987823.0204
 -16277444.422 8 -12669953.746 7  21620241.516
  -8458084.423 7  -6569089.317 7  22910775.008
 -18498575.261 8 -14395900.336 7  21248101.531
  -3633255.31346  -2755866.54943  24267404.5004                   24267406.5044
 -23302175.771 8 -18142158.753 8  20284353.078
 -16940262.66048 -13152412.58046  21382821.4534                   21382820.1684
 11  8 15  2 23 30.0000000  0  7G10G25G29G12G26G05G02
  -8306746.15347  -6408568.64644  23006477.5164                   23006478.9924
 -16289571.871 8 -12679403.685 7  21617933.727
  -8540977.095 7  -6633680.897 7  22895001.367
 -18445786.685 8 -14354766.397 7  21258146.969
  -3729952.06447  -2831214.58743  24249003.8914                   24249005.8954
 -23292922.511 8 -18134948.407 8  20286114.414
 -16903710.26148 -13123930.17746  21389777.0474                   21389775.8634
 11  8 15  2 24  0.0000000  0  7G10G25G29G12G26G05G02
  -8208462.16347  -6331983.73344  23025180.7734                   23025181.2934
 -16301115.713 8 -12688398.870 7  21615736.977
  -8623822.456 7  -6698235.593 7  22879236.203
 -18392515.160 8 -14313256.114 7  21268284.586
  -3826679.46946  -2906586.60543  24230597.5004                   24230599.4614
 -23283111.901 8 -18127303.752 8  20287981.102
 -16867049.57348 -13095363.40446  21396753.5784                   21396752.1454
 11  8 15  2 24 30.0000000  0  7G10G25G29G12G26G05G02
  -8109935.70946  -6255209.92044  23043929.1564                   23043931.0394
 -16312077.520 8 -12696940.521 7  21613651.227
  -8706620.245 7  -6762753.244 7  22863480.109
 -18338764.456 8 -14271372.443 7  21278512.742
  -3923435.88746  -2981981.15043  24212185.0314                   24212187.2974
 -23272746.944 8 -18119227.142 8  20289953.352
 -16830283.23348 -13066714.30746  21403749.7424                   21403748.3014
 11  8 15  2 25  0.0000000  0  7G10G25G29G12G26G05G02
  -8011168.82046  -6178248.72944  23062723.7584                   23062725.1604
 -16322456.218 8 -12705027.782 7  21611676.406
  -8789368.104 7  -6827231.996 7  22847734.195
 -18284536.098 8 -14229116.585 7  21288832.102
  -4020217.40446  -3057395.29143  24193767.3594                   24193769.8674
 -23261827.509 8 -18110718.469 8  20292031.586
 -16793410.70048 -13037982.45846  21410766.7274                   21410765.3634
 11  8 15  2 25 30.0000000  0  7G10G25G29G12G26G05G02
  -7912163.95346  -6101102.08143  23081563.8204                   23081565.2424
 -16332251.381 8 -12712660.355 7  21609812.164
  -8872063.955 7  -6891670.212 6  22831997.188
 -18229831.852 8 -14186489.904 7  21299242.039
  -4117020.16246  -3132825.93743  24175346.0084                   24175349.6564
 -23250354.401 8 -18101778.363 8  20294214.523
 -16756431.62448 -13009167.60446  21417803.1724                   21417802.2234
 11  8 15  2 26  0.0000000  0  7G10G25G29G12G26G05G02
  -7812925.17646  -6023773.22443  23100447.1884                   23100449.7034
 -16341464.143 8 -12719839.113 7  21608059.297
  -8954707.584 7  -6956067.748 6  22816269.844
 -18174654.923 8 -14143494.902 7  21309741.828
  -4213842.23646  -3208271.66543  24156922.5084                   24156924.3094
 -23238330.143 8 -18092408.799 8  20296502.844
 -16719347.88948 -12980271.18046  21424860.1414                   21424858.7504
 11  8 15  2 26 30.0000000  0  7G10G25G29G12G26G05G02
  -7713453.78046  -5946263.07843  23119376.7814                   23119378.6024
 -16350092.742 8 -12726562.668 7  21606416.805
  -9037295.388 7  -7020421.795 6  22800554.563
 -18119006.089 8 -14100132.161 7  21320331.117
  -4310678.54546  -3283728.49743  24138494.6174                   24138497.3054
 -23225753.467 8 -18082608.759 8  20298896.133
 -16682157.83848 -12951291.92346  21431937.3444                   21431935.6914
 11  8 15  2 27  0.0000000  0  7G10G25G29G12G26G05G02
  -7613753.70646  -5868574.73343  23138348.8834                   23138350.3014
 -16358138.375 8 -12732831.981 7  21604886.203
  -9119827.061 7  -7084732.112 7  22784849.109
 -18062888.327 8 -14056404.041 7  21331010.008
  -4407527.05246  -3359194.79243  24120065.4224                   24120068.8914
 -23212627.032 8 -18072380.354 8  20301393.813
 -16644863.12548 -12922231.08846  21439034.2274                   21439032.1804
 11  8 15  2 27 30.0000000  0  7G10G25G29G12G26G05G02
  -7513828.24646  -5790710.76644  23157365.0634                   23157366.0704
 -16365601.516 8 -12738647.384 7  21603465.711
  -9202301.368 7  -7148997.755 6  22769154.406
 -18006304.555 8 -14012312.788 7  21341777.719
  -4504384.91046  -3434668.35443  24101633.6644                   24101636.0704
 -23198952.327 8 -18061724.718 8  20303996.000
 -16607464.72348 -12893089.46746  21446150.4924                   21446149.3324
 11  8 15  2 28  0.0000000  0  7G10G25G29G12G26G05G02
  -7413679.09846  -5712672.51944  23176422.8444                   23176424.0004
 -16372481.136 8 -12744008.121 7  21602156.711
  -9284715.315 7  -7213216.330 6  22753471.688
 -17949256.384 8 -13967859.675 7  21352633.148
  -4601247.97047  -3510145.93843  24083201.0314                   24083203.4184
 -23184729.321 8 -18050641.837 8  20306702.305
 -16569961.91948 -12863866.50046  21453287.2814                   21453285.9844
 11  8 15  2 28 30.0000000  0  7G10G25G29G12G26G05G02
  -7313309.84247  -5634462.70244  23195521.5634                   23195523.5044
 -16378777.978 8 -12748914.722 7  21600958.297
  -9367067.961 7  -7277387.179 7  22737801.180
 -17891746.386 8 -13923046.697 7  21363577.063
  -4698113.37646  -3585625.37243  24064768.1644                   24064771.6604
 -23169960.289 8 -18039133.480 8  20309512.906
 -16532355.54048 -12834562.83246  21460443.6024                   21460442.4534
 11  8 15  2 29  0.0000000  0  7G10G25G29G12G26G05G02
  -7212723.39047  -5556083.69044  23214663.1804                   23214664.4224
 -16384492.212 8 -12753367.359 7  21599871.242
  -9449357.632 7  -7341508.944 7  22722141.617
 -17833777.001 7 -13877875.744 7  21374608.281
  -4794977.92246  -3661104.15143  24046335.1254                   24046336.8484
 -23154646.574 8 -18027200.697 8  20312426.914
 -16494646.14148 -12805178.89146  21467619.0314                   21467618.2384
 11  8 15  2 29 30.0000000  0  7G10G25G29G12G26G05G02
  -7111921.81347  -5477537.03644  23233845.2424                   23233846.9344
 -16389623.390 8 -12757365.669 7  21598894.453
  -9531582.278 7  -7405580.045 7  22706494.906
 -17775349.824 7 -13832348.086 7  21385727.117
  -4891837.78546  -3736579.29643  24027903.3444                   24027904.6564
 -23138788.254 8 -18014843.549 8  20315444.906
 -16456833.44048 -12775714.45646  21474814.6724                   21474813.8204
 11  8 15  2 30  0.0000000  0  7G10G25G29G12G26G05G02
  -7010907.93647  -5398824.93844  23253067.3204                   23253069.3984
 -16394171.655 8 -12760909.761 7  21598028.922
  -9613739.702 7  -7469598.752 6  22690860.914
 -17716467.403 8 -13786465.685 7  21396931.820
  -4988689.76846  -3812048.29443  24009473.1724                   24009474.8794
 -23122386.564 8 -18002062.988 8  20318565.883
 -16418917.64548 -12746169.68246  21482030.1094                   21482028.7934
 11  8 15  2 30 30.0000000  0  7G10G25G29G12G26G05G02
  -6909685.00247  -5319949.94544  23272329.9694                   23272331.2304
 -16398137.711 8 -12764000.177 7  21597274.727
  -9695829.003 7  -7533564.414 6  22675239.813
 -17657132.416 8 -13740230.621 7  21408222.906
  -5085530.94246  -3887508.85243  23991045.6024                   23991046.8284
 -23105443.514 8 -17988860.599 8  20321790.344
 -16380899.44848 -12716545.12046  21489264.5394                   21489263.1844
 11  8 15  2 31  0.0000000  0  7G10G25G29G12G26G05G02
  -6808255.42647  -5240913.96643  23291631.3754                   23291632.6094
 -16401521.183 8 -12766636.646 7  21596630.742
  -9777847.947 7  -7597475.228 7  22659631.719
 -17597346.985 8 -13693644.565 7  21419599.594
  -5182357.39946  -3962957.98943  23972619.4224                   23972621.3094
 -23087959.651 8 -17975236.797 8  20325116.883
 -16342778.66548 -12686840.61146  21496518.7344                   21496517.2504
 11  8 15  2 31 30.0000000  0  7G10G25G29G12G26G05G02
  -6706621.65547  -5161718.82344  23310971.3524                   23310972.6564
 -16404321.796 8 -12768818.921 7  21596097.461
  -9859794.157 7  -7661329.376 6  22644037.406
 -17537112.886 8 -13646708.916 7  21431061.602
  -5279165.25546  -4038392.56643  23954196.9454                   23954199.2934
 -23069935.856 8 -17961192.263 8  20328547.023
 -16304555.18748 -12657056.09346  21503792.4924                   21503791.4924
 11  8 15  2 32  0.0000000  0  7G10G25G29G12G26G05G02
  -6604787.11046  -5082367.28744  23330349.4454                   23330351.3874
 -16406540.667 8 -12770547.908 7  21595675.422
  -9941666.782 7  -7725126.168 6  22628457.547
 -17476433.241 7 -13599426.074 7  21442609.000
  -5375952.15246  -4113810.85543  23935778.7424                   23935780.9494
 -23051374.266 8 -17946728.674 8  20332079.133
 -16266229.99448 -12627192.31046  21511085.4614                   21511084.2544
 11  8 15  2 32 30.0000000  0  7G10G25G29G12G26G05G02
  -6502755.02547  -5002861.74243  23349765.9144                   23349767.3404
 -16408178.451 8 -12771824.091 7  21595363.984
 -10023464.116 7  -7788864.292 7  22612891.750
 -17415310.720 8 -13551798.138 7  21454239.906
  -5472714.69546  -4189210.13544  23917365.7814                   23917368.4304
 -23032276.842 8 -17931847.549 8  20335713.359
 -16227803.96948 -12597249.96146  21518397.7814                   21518396.4654
 11  8 15  2 33  0.0000000  0  7G10G25G29G12G26G05G02
  -6400527.92247  -4923204.29344  23369219.3444                   23369221.1414
 -16409235.248 8 -12772647.552 7  21595162.609
 -10105184.253 7  -7852542.287 7  22597341.109
 -17353748.087 7 -13503827.251 7  21465955.258
  -5569449.50846  -4264587.83943  23898957.4224                   23898959.9734
 -23012644.605 8 -17916549.683 8  20339449.047
 -16189277.10448 -12567229.03846  21525729.0234                   21525728.1564
 11  8 15  2 33 30.0000000  0  7G10G25G29G12G26G05G02
  -6298108.08747  -4843396.60743  23388709.1024                   23388710.1484
 -16409711.130 8 -12773018.362 7  21595072.008
 -10186825.361 7  -7916158.678 7  22581805.727
 -17291747.083 8 -13455514.785 7  21477753.172
  -5666153.19046  -4339941.24144  23880555.0234                   23880557.2504
 -22992478.451 8 -17900835.785 8  20343286.570
 -16150649.15348 -12537129.35646  21533079.4064                   21533078.6294
 11  8 15  2 34  0.0000000  0  7G10G25G29G12G26G05G02
  -6195498.83247  -4763441.35044  23408234.5314                   23408236.5984
 -16409606.429 8 -12772936.777 7  21595091.875
 -10268385.593 7  -7979712.068 7  22566285.383
 -17229310.209 7 -13406862.683 7  21489634.695
  -5762822.06946  -4415267.55343  23862159.6954                   23862161.9694
 -22971779.999 8 -17884707.104 8  20347225.242
 -16111920.60148 -12506951.26046  21540449.9694                   21540448.6724
 11  8 15  2 34 30.0000000  0  7G10G25G29G12G26G05G02
  -6092702.57347  -4683340.38543  23427796.0234                   23427797.4614
 -16408921.549 8 -12772403.097 7  21595222.492
 -10349863.100 7  -8043200.959 7  22550780.891
 -17166439.888 7 -13357872.820 7  21501598.602
  -5859452.90546  -4490564.21043  23843771.2194                   23843774.0514
 -22950550.520 8 -17868164.637 8  20351265.070
 -16073091.43948 -12476694.78246  21547838.4304                   21547837.0004
 11  8 15  2 35  0.0000000  0  7G10G25G29G12G26G05G02
  -5989722.22347  -4603095.92243  23447392.6254                   23447393.7074
 -16407657.209 7 -12771417.871 7  21595462.992
 -10431256.318 7  -8106624.150 7  22535291.750
 -17103138.933 7 -13308547.404 7  21513644.148
  -5956042.51746  -4565828.78744  23825391.1094                   23825393.8094
 -22928791.734 8 -17851209.726 8  20355405.602
 -16034162.33848 -12446360.41846  21555246.5004                   21555245.3554
 11  8 15  2 35 30.0000000  0  7G10G25G29G12G26G05G02
  -5886560.39547  -4522710.11543  23467024.1804                   23467025.0044
 -16405813.549 7 -12769981.240 7  21595813.398
 -10512562.940 7  -8169979.876 7  22519819.758
 -17039409.650 8 -13258888.212 7  21525771.641
  -6052587.25746  -4641058.43043  23807018.8444                   23807021.8244
 -22906504.730 8 -17833843.226 8  20359646.742
 -15995133.43948 -12415948.28646  21562673.6484                   21562672.0554
 11  8 15  2 36  0.0000000  0  7G10G25G29G12G26G05G02
  -5783220.44947  -4442185.42843  23486687.9064                   23486689.8914
 -16403391.580 8 -12768093.963 7  21596274.156
 -10593781.734 7  -8233267.202 6  22504364.438
 -16975255.107 7 -13208897.670 7  21537979.883
  -6149083.99847  -4716250.64643  23788656.2114                   23788658.7934
 -22883691.771 8 -17816066.879 8  20363988.133
 -15956005.32648 -12385458.85046  21570119.5554                   21570117.8984
 11  8 15  2 36 30.0000000  0  7G10G25G29G12G26G05G02
  -5679704.30247  -4361523.51743  23506387.2584                   23506388.5274
 -16400391.130 8 -12765755.940 7  21596845.492
 -10674910.177 7  -8296484.131 6  22488926.195
 -16910676.932 8 -13158577.006 7  21550268.766
  -6245528.79547  -4791402.34444  23770303.8524                   23770306.2154
 -22860353.353 8 -17797881.095 8  20368428.938
 -15916777.58448 -12354891.77346  21577584.0704                   21577582.6724
 11  8 15  2 37  0.0000000  0  7G10G25G29G12G26G05G02
  -5576015.41347  -4280726.94543  23526118.5004                   23526119.7974
 -16396813.251 8 -12762967.968 7  21597526.242
 -10755947.033 7  -8359629.678 7  22473504.945
 -16845678.122 8 -13107928.584 7  21562638.133
  -6341918.61347  -4866511.25643  23751961.4454                   23751963.0984
 -22836491.826 8 -17779287.687 8  20372969.742
 -15877450.85448 -12324247.57045  21585067.8204                   21585066.5234
 11  8 15  2 37 30.0000000  0  7G10G25G29G12G26G05G02
  -5472156.21447  -4199797.69043  23545882.4614                   23545883.7274
 -16392658.074 8 -12759730.158 7  21598316.961
 -10836890.020 7  -8422702.068 6  22458102.477
 -16780261.496 8 -13056954.595 7  21575086.023
  -6438249.71347  -4941574.37643  23733630.1094                   23733631.4414
 -22812108.071 8 -17760287.350 8  20377609.859
 -15838024.97648 -12293526.10345  21592570.2034                   21592569.0204
 11  8 15  2 38  0.0000000  0  7G10G25G29G12G26G05G02
  -5368128.54847  -4118737.15943  23565677.8204                   23565679.7424
 -16387925.487 8 -12756042.410 7  21599217.539
 -10917736.783 7  -8485699.496 7  22442717.773
 -16714428.801 7 -13005656.375 7  21587613.203
  -6534518.04947  -5016588.58743  23715310.7664                   23715311.8364
 -22787202.925 8 -17740880.728 8  20382349.063
 -15798499.49148 -12262727.01846  21600091.9304                   21600090.2704
 11  8 15  2 38 30.0000000  0  7G10G25G29G12G26G05G02
  -5263936.08647  -4037548.23243  23585505.2584                   23585506.4614
 -16382617.052 8 -12751905.962 7  21600227.922
 -10998486.231 7  -8548621.063 7  22427351.602
 -16648183.272 7 -12954036.478 7  21600219.383
  -6630720.89146  -5091551.79743  23697003.7814                   23697006.4494
 -22761778.982 8 -17721069.869 8  20387186.867
 -15758875.54747 -12231851.22445  21607632.0314                   21607630.8834
 11  8 15  2 39  0.0000000  0  7G10G25G29G12G26G05G02
  -5159581.67947  -3956233.06543  23605363.6334                   23605364.0314
 -16376733.444 8 -12747321.303 7  21601347.391
 -11079136.422 7  -8611465.297 7  22412004.500
 -16581527.417 8 -12902096.849 7  21612903.703
  -6726854.93346  -5166461.39843  23678709.9304                   23678711.9694
 -22735838.151 8 -17700856.229 8  20392122.867
 -15719153.29647 -12200898.80345  21615190.7894                   21615189.3794
 11  8 15  2 39 30.0000000  0  8G10G25G29G12G26G05G15G02
  -5055067.97646  -3874793.79943  23625250.9924                   23625253.1644
 -16370275.279 8 -12742288.959 7  21602576.469
 -11159685.394 7  -8674230.683 7  22396676.297
 -16514463.970 8 -12849839.628 7  21625665.438
  -6822916.60946  -5241314.59743  23660429.7114                   23660431.0314
 -22709381.735 8 -17680240.826 8  20397157.922
    217300.418 6    184731.651 5  24612757.445
 -15679333.01248 -12169870.00146  21622768.2974                   21622766.8594
 11  8 15  2 40  0.0000000  0  8G10G25G29G12G26G05G15G02
  -4950397.26946  -3793232.24643  23645169.7034                   23645171.5354
 -16363242.996 8 -12736809.237 7  21603914.539
 -11240130.918 7  -8736915.440 7  22381367.906
 -16446995.283 7 -12797266.616 7  21638504.367
  -6918902.23146  -5316108.52543  23642164.2894                   23642166.4414
 -22682411.068 8 -17659224.726 8  20402289.984
    122554.973 6    110904.163 6  24594728.227
 -15639414.66547 -12138764.77945  21630364.3364                   21630363.0784
 11  8 15  2 40 30.0000000  0  8G10G25G29G12G26G05G15G02
  -4845572.53446  -3711550.65343  23665116.5314                   23665118.7734
 -16355637.517 8 -12730882.884 7  21605362.016
 -11320471.472 7  -8799518.416 7  22366079.422
 -16379124.177 8 -12744380.045 7  21651419.820
  -7014808.39646  -5390840.54443  23623914.0784                   23623916.2344
 -22654928.037 8 -17637809.372 8  20407519.891
     27690.052 6     36983.601 6  24576676.172
 -15599398.52547 -12107583.34545  21637979.6094                   21637977.4774
 11  8 15  2 41  0.0000000  0  8G10G25G29G12G26G05G15G02
  -4740596.16646  -3629750.89443  23685093.2584                   23685095.0124
 -16347459.030 8 -12724510.019 7  21606918.477
 -11400704.648 7  -8862037.691 7  22350810.961
 -16310853.139 8 -12691181.835 7  21664410.773
  -7110631.25447  -5465507.66443  23605679.4454                   23605681.5044
 -22626933.735 8 -17615995.622 8  20412847.031
    -67291.499 6    -37027.821 6  24558600.930
 -15559284.17548 -12076325.38945  21645612.8674                   21645611.1644
 11  8 15  2 41 30.0000000  0  8G10G25G29G12G26G05G15G02
  -4635471.05546  -3547835.25343  23705097.6414                   23705099.6484
 -16338708.704 8 -12717691.578 7  21608583.398
 -11480828.749 7  -8924471.977 7  22335564.250
 -16242184.911 8 -12637674.124 7  21677478.383
  -7206367.44246  -5540107.24944  23587461.6094                   23587463.7234
 -22598430.127 8 -17593785.011 8  20418271.180
   -162387.360 6   -111128.428 6  24540505.258
 -15519072.13747 -12044991.32245  21653264.9614                   21653263.7344
 11  8 15  2 42  0.0000000  0  8G10G25G29G12G26G05G15G02
  -4530200.56647  -3465806.35343  23725131.0554                   23725132.4064
 -16329388.001 8 -12710428.679 7  21610357.023
 -11560842.561 7  -8986820.342 7  22320338.281
 -16173122.756 8 -12583859.463 7  21690620.734
  -7302014.29947  -5614637.17943  23569260.6414                   23569262.4304
 -22569419.801 8 -17571179.553 8  20423791.688
   -257595.704 6   -185316.661 6  24522388.016
 -15478763.39148 -12013581.88045  21660935.1884                   21660934.0984
 11  8 15  2 42 30.0000000  0  8G10G25G29G12G26G05G15G02
  -4424786.90347  -3383665.83443  23745189.8134                   23745191.7504
 -16319497.191 8 -12702721.547 7  21612239.336
 -11640743.663 8  -9049080.871 7  22305133.680
 -16103668.934 8 -12529739.602 7  21703837.508
  -7397567.70247  -5689094.32843  23551077.5314                   23551078.7234
 -22539903.644 8 -17548179.953 8  20429408.289
   -352913.658 6   -259590.298 6  24504249.031
 -15438357.22648 -11982096.54246  21668624.2814                   21668622.9844
 11  8 15  2 43  0.0000000  0  8G10G25G29G12G26G05G15G02
  -4319232.31647  -3301415.52143  23765276.3984                   23765278.1914
 -16309036.730 8 -12694570.541 7  21614229.422
 -11720529.573 8  -9111251.651 7  22289951.023
 -16033825.900 8 -12475316.467 7  21717128.094
  -7493023.80847  -5763475.67944  23532912.4614                   23532914.6954
 -22509883.235 8 -17524787.417 8  20435121.117
   -448338.191 6   -333946.934 6  24486090.984
 -15397853.62548 -11950535.28845  21676331.8674                   21676330.8444
 11  8 15  2 43 30.0000000  0  8G10G25G29G12G26G05G15G02
  -4213539.64747  -3219057.59043  23785389.6884                   23785390.2854
 -16298008.014 8 -12685976.748 7  21616327.969
 -11800199.017 7  -9173331.674 7  22274790.359
 -15963596.722 8 -12420592.439 7  21730492.164
  -7588379.67447  -5837778.90044  23514766.7894                   23514768.7934
 -22479360.741 8 -17501003.654 8  20440929.344
   -543867.092 7   -408384.922 6  24467912.516
 -15357253.56448 -11918898.86246  21684058.2814                   21684056.7774
 11  8 15  2 44  0.0000000  0  8G10G25G29G12G26G05G15G02
  -4107711.14447  -3136593.84043  23805527.8594                   23805528.5554
 -16286411.497 8 -12676940.509 7  21618535.250
 -11879749.403 7  -9235318.916 7  22259652.055
 -15892983.571 7 -12365569.193 7  21743929.086
  -7683631.16947  -5912000.76844  23496641.1724                   23496643.5434
 -22448337.534 8 -17476829.721 8  20446833.000
   -639497.203 6   -482901.764 6  24449713.352
 -15316556.34048 -11887186.71345  21691802.3524                   21691800.9224
 11  8 15  2 44 30.0000000  0  8G10G25G29G12G26G05G15G02
  -4001749.17146  -3054026.04243  23825691.2114                   23825692.4574
 -16274247.604 8 -12667462.147 7  21620849.688
 -11959178.240 7  -9297211.470 7  22244537.188
 -15821988.797 8 -12310248.607 7  21757439.352
  -7778774.31747  -5986138.27844  23478535.6094                   23478537.7464
 -22416814.687 8 -17452266.453 8  20452831.695
   -735225.770 6   -557495.294 6  24431496.797
 -15275761.59347 -11855398.58245  21699565.0394                   21699563.7504
 11  8 15  2 45  0.0000000  0  8G10G25G29G12G26G05G15G02
  -3895657.67946  -2971357.40543  23845880.9304                   23845881.5124
 -16261518.441 8 -12657543.328 7  21623272.188
 -12038484.814 7  -9359008.722 7  22229445.734
 -15750616.618 7 -12254633.915 7  21771020.813
  -7873806.64147  -6060189.36044  23460452.2344                   23460453.3674
 -22384795.419 8 -17427316.380 8  20458924.914
   -831051.363 6   -632164.416 6  24413262.758
 -15234870.53348 -11823535.39945  21707346.5084                   21707344.9454
 11  8 15  2 45 30.0000000  0  8G10G25G29G12G26G05G15G02
  -3789438.85946  -2888589.50043  23866093.2194                   23866093.1954
 -16248224.632 8 -12647184.526 7  21625801.703
 -12117666.873 7  -9420708.963 7  22214377.992
 -15678869.266 7 -12198726.901 7  21784674.344
  -7968724.07247  -6134150.95844  23442390.1884                   23442391.2544
 -22352281.017 8 -17401980.465 8  20465111.914
   -926970.831 6   -706906.784 5  24395009.469
 -15193883.05648 -11791597.08745  21715146.4614                   21715144.7854
 11  8 15  2 46  0.0000000  0  8G10G25G29G12G26G05G15G02
  -3683094.21546  -2805723.55443  23886329.3594                   23886330.4884
 -16234366.213 8 -12636385.770 7  21628438.797
 -12196721.428 7  -9482309.834 7  22199334.234
 -15606748.082 7 -12142528.576 7  21798398.063
  -8063522.63747  -6208019.93844  23424350.7034                   23424351.5784
 -22319272.539 8 -17376259.572 8  20471393.094
  -1022980.938 6   -781719.769 5  24376738.727
 -15152798.27547 -11759582.95545  21722964.4844                   21722963.1884
 11  8 15  2 46 30.0000000  0  8G10G25G29G12G26G05G15G02
  -3576628.09946  -2722763.00843  23906589.6644                   23906591.3834
 -16219945.952 8 -12625149.199 7  21631182.633
 -12275647.940 7  -9543810.921 7  22184314.930
 -15534258.199 7 -12086042.947 7  21812192.469
  -8158200.25647  -6281794.65144  23406333.5084                   23406335.1954
 -22285773.410 8 -17350156.349 8  20477767.945
  -1119080.431 7   -856602.403 6  24358452.672
 -15111618.07947 -11727494.47645  21730801.0634                   21730799.4964
 11  8 15  2 47  0.0000000  0  8G10G25G29G12G26G05G15G02
  -3470041.61046  -2639708.65043  23926872.1174                   23926874.5904
 -16204963.429 8 -12613474.536 7  21634034.203
 -12354443.143 7  -9605209.694 7  22169320.156
 -15461400.842 7 -12029270.994 7  21826056.734
  -8252751.84247  -6355471.20344  23388341.1804                   23388342.6374
 -22251783.866 8 -17323670.975 8  20484235.953
  -1215265.233 6   -931551.466 6  24340147.211
 -15070340.85048 -11695330.38245  21738655.3914                   21738653.8594
 11  8 15  2 47 30.0000000  0  8G10G25G29G12G26G05G15G02
  -3363337.61246  -2556562.73343  23947177.6174                   23947179.5004
 -16189420.004 8 -12601362.784 7  21636991.828
 -12433105.427 7  -9666504.889 7  22154351.648
 -15388178.678 7 -11972214.778 7  21839990.656
  -8347174.05047  -6429046.91144  23370372.6954                   23370374.9774
 -22217306.299 8 -17296805.335 8  20490796.875
  -1311533.294 6  -1006565.443 5  24321828.672
 -15028967.14348 -11663091.12745  21746528.8834                   21746527.8954
 11  8 15  2 48  0.0000000  0  8G10G25G29G12G26G05G15G02
  -3256519.44546  -2473327.86843  23967505.3204                   23967506.5784
 -16173317.155 8 -12588815.124 7  21640056.258
 -12511632.851 7  -9727695.040 7  22139408.664
 -15314595.399 7 -11914877.134 7  21853992.633
  -8441463.53747  -6502519.20944  23352430.7194                   23352431.9734
 -22182343.005 8 -17269561.203 8  20497450.172
  -1407882.160 6  -1081642.309 6  24303493.859
 -14987497.46048 -11630777.07646  21754420.1254                   21754418.6524
 11  8 15  2 48 30.0000000  0  8G10G25G29G12G26G05G15G02
  -3149590.20947  -2390006.43443  23987851.4224                   23987854.1134
 -16156656.985 8 -12575833.184 7  21643226.539
 -12590024.609 7  -9788779.474 7  22124491.008
 -15240654.584 7 -11857260.922 7  21868063.539
  -8535618.17047  -6575886.41444  23334513.0164                   23334515.4654
 -22146896.656 8 -17241940.660 8  20504195.305
  -1504310.200 6  -1156780.841 6  24285144.023
 -14945932.96448 -11598389.14846  21762329.5394                   21762328.1844
 11  8 15  2 49  0.0000000  0  8G10G25G29G12G26G05G15G02
  -3042551.05446  -2306599.33743  24008221.0704                   24008223.1604
 -16139438.915 8 -12562416.514 7  21646503.078
 -12668276.685 7  -9849755.064 7  22109599.352
 -15166357.386 7 -11799367.012 7  21882201.297
  -8629632.03346  -6649143.96443  23316622.5394                   23316625.0274
 -22110967.323 8 -17213943.754 8  20511032.414
  -1600813.101 6  -1231977.737 6  24266781.508
 -14904271.61048 -11565925.72845  21770257.7664                   21770256.0944
 11  8 15  2 49 30.0000000  0  8G10G25G29G12G26G05G15G02
  -2935405.22246  -2223109.15143  24028609.9924                   24028612.1454
 -16121664.737 8 -12548566.502 7  21649885.328
 -12746387.970 7  -9910620.903 7  22094735.547
 -15091707.228 7 -11741198.051 7  21896407.055
  -8723502.59646  -6722289.83844  23298760.3524                   23298762.1844
 -22074557.849 8 -17185572.741 8  20517960.930
  -1697388.490 6  -1307231.206 6  24248402.727
 -14862514.42948 -11533387.65045  21778203.6724                   21778202.1094
 11  8 15  2 50  0.0000000  0  8G10G25G29G12G26G05G15G02
  -2828154.13647  -2139536.93243  24049019.3834                   24049021.3794
 -16103334.860 8 -12534283.506 7  21653373.250
 -12824355.334 7  -9971374.621 7  22079898.398
 -15016706.189 7 -11682755.695 7  21910679.242
  -8817225.19647  -6795320.40444  23280925.4774                   23280927.1954
 -22037669.577 8 -17156828.629 8  20524980.641
  -1794033.232 6  -1382538.655 6  24230011.930
 -14820660.37448 -11500774.07845  21786168.0394                   21786166.5744
 11  8 15  2 50 30.0000000  0  8G10G25G29G12G26G05G15G02
  -2720801.93246  -2055885.92643  24069448.1024                   24069449.4804
 -16084451.875 8 -12519569.502 7  21656966.484
 -12902178.104 7 -10032015.633 7  22065089.227
 -14941357.981 7 -11624042.807 7  21925018.039
  -8910797.70547  -6868234.04344  23263118.7664                   23263120.1644
 -22000305.369 8 -17127713.650 8  20532090.477
  -1890745.995 6  -1457899.074 6  24211607.602
 -14778710.85148 -11468086.11045  21794150.7194                   21794149.1644
 11  8 15  2 51  0.0000000  0  8G10G25G29G12G26G05G15G02
  -2613350.43946  -1972157.53943  24089895.8754                   24089897.0594
 -16065016.396 8 -12504424.979 7  21660665.352
 -12979853.912 8 -10092542.186 7  22050308.398
 -14865665.708 7 -11565061.835 7  21939421.609
  -9004215.87847  -6941027.41444  23245342.0634                   23245344.0594
 -21962466.739 8 -17098228.996 8  20539290.859
  -1987523.287 6  -1533309.850 6  24193192.414
 -14736665.60648 -11435323.55445  21802151.6254                   21802150.3054
 11  8 15  2 51 30.0000000  0  8G10G25G29G12G26G05G15G02
  -2505802.20246  -1888353.75243  24110360.8834                   24110363.2974
 -16045029.686 8 -12488850.910 7  21664468.531
 -13057380.077 8 -10152952.141 7  22035555.867
 -14789631.952 7 -11505814.749 7  21953890.109
  -9097476.07447  -7013697.67344  23227595.3754                   23227596.9264
 -21924155.361 8 -17068375.971 8  20546581.156
  -2084362.125 6  -1608768.590 6  24174764.383
 -14694524.40148 -11402486.22345  21810170.8054                   21810169.7544
 11  8 15  2 52  0.0000000  0  8G10G25G29G12G26G05G15G02
  -2398159.93946  -1804476.70642  24130845.0784                   24130846.8984
 -16024493.284 8 -12472848.531 7  21668376.617
 -13134755.215 7 -10213244.414 7  22020831.305
 -14713259.699 7 -11446303.900 7  21968423.008
  -9190574.91447  -7086242.23044  23209879.0084                   23209880.3754
 -21885373.861 8 -17038156.598 8  20553961.570
  -2181260.801 6  -1684273.920 6  24156324.719
 -14652287.68948 -11369574.47545  21818208.2734                   21818206.9574
 11  8 15  2 52 30.0000000  0  8G10G25G29G12G26G05G15G02
  -2290425.47446  -1720527.81842  24151346.1644                   24151347.8754
 -16003407.772 8 -12456418.241 7  21672389.102
 -13211976.215 7 -10273416.562 7  22006136.648
 -14636551.252 7 -11386531.087 7  21983020.063
  -9283508.04947  -7158657.62544  23192194.5164                   23192196.5744
 -21846123.355 8 -17007571.789 8  20561430.516
  -2278215.594 6  -1759823.037 6  24137873.633
 -14609954.52348 -11336587.55745  21826264.2584                   21826262.6214
 11  8 15  2 53  0.0000000  0  8G10G25G29G12G26G05G15G02
  -2182602.17445  -1636509.70742  24171864.4064                   24171865.9804
 -15981775.270 8 -12439561.767 7  21676505.617
 -13289041.956 7 -10333467.727 7  21991471.266
 -14559510.015 7 -11326498.972 7  21997681.039
  -9376272.51847  -7230941.63344  23174541.7344                   23174543.9024
 -21806406.937 7 -16976623.915 8  20568988.180
  -2375224.288 6  -1835414.156 6  24119415.000
 -14567525.73547 -11303526.14645  21834337.9454                   21834336.5164
 11  8 15  2 53 30.0000000  0  8G10G25G29G12G26G05G15G02
  -2074692.60946  -1552424.37542  24192398.1954                   24192401.0314
 -15959597.358 8 -12422280.253 7  21680726.000
 -13365950.341 7 -10393396.307 7  21976836.914
 -14482139.380 8 -11266210.178 7  22012404.469
  -9468865.05047  -7303091.65944  23156922.6484                   23156923.4494
 -21766226.543 8 -16945314.522 8  20576634.164
  -2472284.494 6  -1911045.405 6  24100944.680
 -14525001.43048 -11270390.29545  21842429.8674                   21842428.4574
 11  8 15  2 54  0.0000000  0  8G10G25G29G12G26G05G15G02
  -1966697.84746  -1468272.68242  24212950.2504                   24212951.8364
 -15936874.234 8 -12404573.934 7  21685049.680
 -13442697.923 7 -10453199.569 7  21962232.063
 -14404440.819 8 -11205665.845 7  22027189.703
  -9561280.63747  -7375103.78344  23139336.2584                   23139337.4264
 -21725582.749 8 -16913644.028 7  20584368.617
  -2569392.255 6  -1986713.711 6  24082465.836
 -14482380.60948 -11237179.24545  21850540.1884                   21850539.2504
 11  8 15  2 54 30.0000000  0  8G10G25G29G12G26G05G15G02
  -1858622.03646  -1384057.79843  24233515.8444                   24233518.6564
 -15913608.670 8 -12386444.915 7  21689477.148
 -13519284.375 7 -10512877.287 7  21947658.305
 -14326418.774 8 -11144869.444 7  22042036.406
  -9653517.04747  -7446976.32544  23121784.8984                   23121785.6884
 -21684479.519 8 -16881615.528 8  20592190.438
  -2666546.049 6  -2062417.912 6  24063977.211
 -14439664.59948 -11203894.01545  21858668.5704                   21858667.3914
 11  8 15  2 55  0.0000000  0  8G10G25G29G12G26G05G15G02
  -1750466.94346  -1299781.16043  24254097.1024                   24254098.5354
 -15889801.320 8 -12367893.711 7  21694007.086
 -13595706.531 8 -10572426.989 7  21933115.383
 -14248075.150 8 -11083822.479 7  22056945.031
  -9745569.94047  -7518705.84444  23104267.1094                   23104267.9024
 -21642917.839 8 -16849229.797 8  20600099.352
  -2763742.663 6  -2138155.488 6  24045481.727
 -14396852.63348 -11170534.02445  21866815.6414                   21866814.2194
 11  8 15  2 55 30.0000000  0  8G10G25G29G12G26G05G15G02
  -1642234.54946  -1215444.27343  24274692.8674                   24274694.7034
 -15865453.400 8 -12348921.304 7  21698640.914
 -13671962.010 7 -10631846.800 7  21918604.148
 -14169412.776 8 -11022527.128 7  22071914.000
  -9837435.36947  -7590289.27744  23086786.1804                   23086787.0784
 -21600899.377 8 -16816488.122 8  20608094.852
  -2860978.826 6  -2213923.935 6  24026978.281
 -14353944.56648 -11137099.14145  21874980.8754                   21874978.9414
 11  8 15  2 56  0.0000000  0  8G10G25G29G12G26G05G15G02
  -1533927.17646  -1131048.98443  24295303.0784                   24295305.0354
 -15840566.123 8 -12329528.615 7  21703376.602
 -13748048.360 8 -10691134.831 7  21904125.391
 -14090434.318 8 -10960985.473 7  22086943.016
  -9929109.49947  -7661723.67344  23069340.7034                   23069341.7274
 -21558426.116 8 -16783392.081 8  20616177.078
  -2958251.446 6  -2289720.729 6  24008467.211
 -14310939.83148 -11103588.92345  21883164.0164                   21883162.6024
 11  8 15  2 56 30.0000000  0  8G10G25G29G12G26G05G15G02
  -1425548.72346  -1046598.29643  24315927.1414                   24315928.7974
 -15815142.531 8 -12309717.999 7  21708214.539
 -13823965.134 8 -10750290.700 7  21889679.148
 -14011144.333 8 -10899201.076 7  22102031.570
 -10020589.95547  -7733007.15644  23051932.7974                   23051934.0744
 -21515501.776 8 -16749944.536 8  20624345.625
  -3055559.263 6  -2365544.949 6  23989950.727
 -14267840.11448 -11070004.70845  21891366.1254                   21891364.6134
 11  8 15  2 57  0.0000000  0  8G10G25G29G12G26G05G15G02
  -1317100.57447   -962093.28343  24336564.0164                   24336565.4494
 -15789183.012 8 -12289489.795 7  21713154.453
 -13899708.885 8 -10809311.749 7  21875265.703
 -13931544.910 8 -10837175.549 7  22117178.797
 -10111871.91347  -7804135.93444  23034561.6414                   23034562.9924
 -21472127.315 8 -16716146.240 8  20632599.742
  -3152898.414 6  -2441393.671 6  23971427.578
 -14224643.88448 -11036345.27945  21899586.0084                   21899584.3324
 11  8 15  2 57 30.0000000  0  8G10G25G29G12G26G05G15G02
  -1208585.06046   -877535.78243  24357213.6564                   24357216.0314
 -15762689.142 8 -12268845.218 7  21718195.766
 -13975277.520 7 -10868196.354 7  21860885.039
 -13851638.597 8 -10774910.902 7  22132384.672
 -10202951.98547  -7875107.40544  23017230.1254                   23017231.1844
 -21428304.696 8 -16681998.734 8  20640938.273
  -3250266.210 6  -2517264.672 6  23952898.852
 -14181351.39948 -11002610.86245  21907824.1334                   21907823.1604
 11  8 15  2 58  0.0000000  0  9G10G25G29G12G26G05G15G21G02
  -1100005.01946   -792928.02843  24377875.7194                   24377877.8954
 -15735663.116 8 -12247785.976 7  21723338.648
 -14050669.388 8 -10926943.188 7  21846538.133
 -13771429.009 7 -10712409.923 7  22147647.680
 -10293826.96747  -7945919.03844  22999937.1024                   22999938.5594
 -21384036.835 8 -16647504.294 8  20649362.500
  -3347660.201 6  -2593156.062 6  23934365.008
    420025.873 5                  25173355.305
 -14137963.26847 -10968801.90445  21916080.5474                   21916079.5314
 11  8 15  2 58 30.0000000  0  9G10G25G29G12G26G05G15G21G02
   -991365.16546   -708273.65243  24398549.7194                   24398551.2234
 -15708108.728 8 -12226315.040 7  21728582.266
 -14125884.633 7 -10985552.431 7  21832225.625
 -13690921.122 8 -10649676.498 7  22162967.867
 -10384495.37147  -8016569.71344  22982683.1884                   22982684.7154
 -21339328.016 8 -16612666.247 8  20657870.227
  -3445080.066 6  -2669067.622 6  23915826.656
    361624.149 5                  25162242.844
 -14094481.65448 -10934920.10845  21924354.8914                   21924353.6914
 11  8 15  2 59  0.0000000  0  9G10G25G29G12G26G05G15G21G02
   -882662.64346   -623570.40243  24419234.6334                   24419236.5704
 -15680022.113 8 -12204429.357 7  21733927.078
 -14200915.581 8 -11044018.033 7  21817947.352
 -13610113.089 8 -10586709.210 7  22178345.438
 -10474948.10547  -8087052.30144  22965470.7344                   22965472.2034
 -21294174.932 8 -16577482.017 8  20666462.805
  -3542517.341 6  -2744992.688 6  23897285.539
    303236.392 5                  25151131.453
 -14050900.64248 -10900960.87045  21932648.0394                   21932646.6174
 11  8 15  2 59 30.0000000  0  9G10G25G29G12G26G05G15G21G02
   -773902.73446   -538822.53743  24439931.5004                   24439932.9224
 -15651408.167 8 -12182132.769 7  21739372.234
 -14275763.018 8 -11102340.649 7  21803704.406
 -13529010.530 8 -10523512.406 7  22193778.336
 -10565184.67647  -8157366.46244  22948299.3054                   22948301.1524
 -21248582.972 8 -16541955.808 8  20675138.523
  -3639972.382 6  -2820931.637 6  23878740.016
    244858.824 6                  25140022.914
 -14007223.65848 -10866926.85045  21940959.9224                   21940958.0864
 11  8 15  3  0  0.0000000  0  9G10G25G29G12G26G05G15G21G02
   -665087.08846   -454031.13242  24460638.6414                   24460639.9804
 -15622267.700 8 -12159425.910 7  21744917.633
 -14350424.111 8 -11160518.071 7  21789496.586
 -13447615.977 7 -10460088.099 7  22209267.266
 -10655200.52447  -8227508.60844  22931169.3524                   22931171.1454
 -21202553.708 7 -16506088.848 8  20683897.758
  -3737441.674 6  -2896881.668 6  23860192.414
    186491.689 6                  25128916.406
 -13963449.85947 -10832817.37045  21949289.7274                   21949288.5824
 11  8 15  3  0 30.0000000  0  9G10G25G29G12G26G05G15G21G02
   -556219.13546   -369198.95443  24481355.7194                   24481356.6484
 -15592603.270 8 -12136310.781 7  21750562.305
 -14424897.530 7 -11218549.261 7  21775325.047
 -13365933.120 8 -10396439.109 7  22224811.008
 -10744993.02447  -8297476.70144  22914082.3054                   22914084.6214
 -21156090.019 8 -16469883.373 8  20692739.273
  -3834923.189 6  -2972841.196 6  23841642.453
    128133.588 6                  25117810.078
 -13919579.75447 -10798632.86245  21957637.9614                   21957636.6454
 11  8 15  3  1  0.0000000  0  9G10G25G29G12G26G05G15G21G02
   -447299.93446   -284326.85042  24502081.6564                   24502083.9384
 -15562415.558 8 -12112787.888 7  21756306.516
 -14499179.829 8 -11276431.526 7  21761189.578
 -13283963.812 7 -10332566.945 7  22240409.336
 -10834557.30047  -8367266.97744  22897039.3364                   22897040.1914
 -21109192.609 8 -16433339.923 8  20701663.898
  -3932412.845 6  -3048807.064 6  23823089.797
     69785.06546    736118.19042  25106707.9224                   25106710.8484
 -13875612.56647 -10764372.68945  21966004.1024                   21966002.7544
 11  8 15  3  1 30.0000000  0  9G10G25G29G12G26G05G15G21G02
   -338332.27446   -199416.99142  24522817.9384                   24522819.1914
 -15531706.685 8 -12088858.894 7  21762150.750
 -14573269.724 7 -11334163.848 7  21747090.391
 -13201711.418 7 -10268474.142 7  22256061.391
 -10923890.09247  -8436876.87344  22880039.0084                   22880041.1684
 -21061864.402 8 -16396460.796 8  20710670.141
  -4029908.393 6  -3124777.575 6  23804537.836
     11445.17046    690658.65342  25095605.1334                   25095608.9534
 -13831548.39448 -10730036.96245  21974389.8594                   21974387.7894
 11  8 15  3  2  0.0000000  0  9G10G25G29G12G26G05G15G21G02
   -229319.03946   -114471.65142  24543563.2114                   24543564.6604
 -15500478.888 8 -12064525.548 7  21768092.977
 -14647165.156 7 -11391744.647 7  21733028.828
 -13119179.535 8 -10204163.602 7  22271766.805
 -11012988.21547  -8506303.88844  22863084.0394                   22863086.1804
 -21014108.328 8 -16359248.268 8  20719757.680
  -4127407.287 6  -3200750.653 6  23785984.273
    -46887.14646    645204.96842  25084504.9064                   25084508.8834
 -13787387.76447 -10695626.05145  21982793.1884                   21982791.3674
 11  8 15  3  2 30.0000000  0  9G10G25G29G12G26G05G15G21G02
   -120262.36146    -29492.44142  24564314.8984                   24564317.8554
 -15468734.084 8 -12039789.336 7  21774133.766
 -14720863.945 7 -11449172.218 7  21719004.203
 -13036371.315 7 -10139637.705 7  22287524.820
 -11101848.05447  -8575545.24844  22846174.8054                   22846176.2894
 -20965926.601 8 -16321704.049 7  20728926.109
  -4224906.634 7  -3276724.041 6  23767430.734
   -105212.49346    599756.73542  25073405.3524                   25073409.7274
 -13743130.50048 -10661139.85845  21991215.1954                   21991213.2504
 11  8 15  3  3  0.0000000  0  9G10G25G29G12G26G05G15G21G02
    -11163.87546     55519.35642  24585076.2894                   24585078.6374
 -15436473.235 8 -12014651.005 7  21780272.891
 -14794362.961 7 -11506444.131 7  21705017.672
 -12953289.155 7 -10074898.366 7  22303334.805
 -11190465.39547  -8644597.67044  22829311.6174                   22829313.6764
 -20917320.729 8 -16283829.340 8  20738175.430
  -4322403.204 6  -3352695.355 6  23748877.555
   -163530.47146    554314.28242  25062307.9224                   25062311.3524
 -13698775.87248 -10626577.78745  21999655.2194                   21999653.7234
 11  8 15  3  3 30.0000000  0  9G10G25G29G12G26G05G15G21G02
     97978.81346    140565.64643  24605845.1804                   24605847.9184
 -15403693.231 8 -11989108.142 7  21786510.734
 -14867655.165 7 -11563554.889 7  21691070.688
 -12869930.953 7 -10009943.919 7  22319197.016
 -11278831.34947  -8713454.22044  22812496.3754                   22812498.1214
 -20868287.556 8 -16245621.671 8  20747506.039
  -4419888.945 6  -3428658.174 6  23730326.852
   -221836.99146    508880.68242  25051212.8674                   25051215.7934
 -13654318.60047 -10591935.73645  22008115.3204                   22008113.5984
 11  8 15  3  4  0.0000000  0  8G25G29G12G26G05G15G21G02
 -15370406.950 8 -11963170.767 7  21792844.469
 -14940749.549 7 -11620511.497 7  21677161.594
 -12786310.607 7  -9944785.209 7  22335110.164
 -11366953.20647  -8782120.58044  22795726.9534                   22795729.0744
 -20818840.628 8 -16207091.575 7  20756915.586
  -4517372.072 6  -3504618.959 6  23711776.125
   -280143.20446    463447.37842  25040117.5394                   25040119.9574
 -13609769.58847 -10557222.21345  22016593.0164                   22016591.3754
 11  8 15  3  4 30.0000000  0  8G25G29G12G26G05G15G21G02
 -15336609.686 8 -11936835.239 7  21799276.430
 -15013637.055 7 -11677306.929 7  21663291.188
 -12702424.787 7  -9879419.632 7  22351072.336
 -11454820.79947  -8850588.79944  22779006.1724                   22779007.8284
 -20768975.681 8 -16168235.772 8  20766404.734
  -4614843.004 6  -3580570.283 6  23693228.563
   -338443.46846    418018.72142  25029023.0164                   25029026.5394
 -13565122.52947 -10522432.29645  22025088.8054                   22025086.9924
 11  8 15  3  5  0.0000000  0  8G25G29G12G26G05G15G21G02
 -15302305.353 8 -11910104.576 7  21805803.953
 -15086317.543 7 -11733941.026 7  21649460.539
 -12618278.410 7  -9813851.026 7  22367085.391
 -11542432.34847  -8918857.51144  22762334.5164                   22762335.9024
 -20718697.038 8 -16129057.592 7  20775972.133
  -4712300.794 6  -3656511.381 6  23674682.305
   -396740.03146    372592.92442  25017929.5784                   25017932.5044
 -13520379.04747 -10487567.23145  22033603.1024                   22033601.8404
 11  8 15  3  5 30.0000000  0  8G25G29G12G26G05G15G21G02
 -15267493.907 8 -11882978.777 7  21812428.398
 -15158786.855 8 -11790410.554 7  21635670.250
 -12533872.868 7  -9748080.471 7  22383146.836
 -11629782.34447  -8986922.45844  22745712.2274                   22745713.6564
 -20668004.989 8 -16089557.277 7  20785618.805
  -4809740.661 6  -3732438.486 6  23656141.133
   -455031.83446    327170.84042  25006836.6094                   25006839.8554
 -13475537.13247 -10452625.48245  22042136.2274                   22042135.0044
 11  8 15  3  6  0.0000000  0  8G25G29G12G26G05G15G21G02
 -15232178.040 8 -11855459.924 7  21819148.938
 -15231043.279 7 -11846714.203 7  21621919.977
 -12449211.115 7  -9682110.284 7  22399257.281
 -11716867.99447  -9054781.42144  22729140.9064                   22729141.7544
 -20616902.539 8 -16049737.186 7  20795343.227
  -4907160.409 7  -3808349.924 6  23637601.602
   -513320.05446    281751.54642  24995744.9614                   24995747.8484
 -13430597.34447 -10417607.45045  22050687.4924                   22050686.5234
 11  8 15  3  6 30.0000000  0  8G25G29G12G26G05G15G21G02
 -15196359.713 8 -11827549.541 7  21825964.961
 -15303084.529 8 -11902850.200 7  21608210.969
 -12364297.235 7  -9615943.635 7  22415415.891
 -11803685.37647  -9122431.37144  22712620.0704                   22712621.2664
 -20565392.131 8 -16009599.180 7  20805145.367
  -5004557.326 6  -3884243.605 6  23619067.531
   -571605.00246    236334.77543  24984654.0234                   24984656.4184
 -13385559.64547 -10382513.12545  22059258.0704                   22059256.8364
 11  8 15  3  7  0.0000000  0  8G25G29G12G26G05G15G21G02
 -15160040.802 8 -11799249.069 7  21832876.063
 -15374908.516 8 -11958816.900 7  21594543.617
 -12279133.983 7  -9549582.655 7  22431621.609
 -11890230.90647  -9189869.49344  22696150.2974                   22696151.9804
 -20513476.083 8 -15969145.116 7  20815024.609
  -5101928.181 7  -3960116.931 6  23600538.539
   -629887.15446    190920.19342  24973562.6024                   24973565.1024
 -13340423.64147 -10347342.21645  22067846.7664                   22067846.0124
 11  8 15  3  7 30.0000000  0  8G25G29G12G26G05G15G21G02
 -15123223.300 8 -11770560.104 7  21839882.211
 -15446512.959 8 -12014612.525 7  21580917.898
 -12193723.930 7  -9483029.394 7  22447874.766
 -11976500.67547  -9257092.69944  22679734.9534                   22679735.9494
 -20461156.192 8 -15928376.368 7  20824980.805
  -5199270.160 6  -4035967.762 6  23582014.695
   -688167.07146    145507.37542  24962472.1174                   24962475.5434
 -13295189.32947 -10312094.70745  22076455.2114                   22076453.5164
 11  8 15  3  8  0.0000000  0  8G25G29G12G26G05G15G21G02
 -15085909.792 8 -11741484.640 7  21846983.000
 -15517896.063 8 -12070235.680 7  21567333.922
 -12108071.118 7  -9416286.928 7  22464174.336
 -12062491.69547  -9324098.69744  22663371.0004                   22663372.5204
 -20408435.746 8 -15887295.480 7  20835012.961
  -5296581.160 6  -4111794.486 6  23563497.313
   -746445.75446    100095.45842  24951382.5084                   24951385.4694
 -13249856.88447 -10276770.71745  22085081.5394                   22085079.8054
 11  8 15  3  8 30.0000000  0  8G25G29G12G26G05G15G21G02
 -15048101.734 8 -11712023.828 7  21854177.133
 -15589055.269 8 -12125684.370 7  21553792.617
 -12022178.036 7  -9349357.279 7  22480519.070
 -12148199.78747  -9390884.26244  22647061.2274                   22647061.9654
 -20355316.534 8 -15845903.882 7  20845121.117
  -5393856.985 6  -4187593.739 6  23544986.000
   -804723.26446     54684.50242  24940292.7734                   24940295.0984
 -13204425.94047 -10241369.98945  22093726.8754                   22093725.2624
 11  8 15  3  9  0.0000000  0  8G25G29G12G26G05G15G21G02
 -15009801.612 8 -11682179.581 7  21861465.836
 -15659988.384 8 -12180956.875 7  21540294.563
 -11936048.009 7  -9282242.987 6  22496909.078
 -12233621.60547  -9457446.73844  22630805.8204                   22630807.2034
 -20301801.005 8 -15804203.455 8  20855305.070
  -5491095.373 7  -4263363.890 6  23526482.563
   -863000.53746      9273.70542  24929202.7034                   24929204.4964
 -13158896.51347 -10205892.50045  22102390.5704                   22102388.9494
 11  8 15  3  9 30.0000000  0  8G25G29G12G26G05G15G21G02
 -14971011.132 8 -11651953.229 7  21868847.734
 -15730692.707 8 -12236051.108 7  21526839.961
 -11849683.712 7  -9214946.153 6  22513343.648
 -12318753.11447  -9523782.99244  22614606.1954                   22614607.6884
 -20247891.329 8 -15762195.894 7  20865563.547
  -5588293.341 7  -4339102.522 6  23507986.578
   -921277.45146    -36136.78343  24918112.8594                   24918115.8874
 -13113268.10547 -10170337.88645  22111073.4384                   22111071.3554
 11  8 15  3 10  0.0000000  0  8G25G29G12G26G05G15G21G02
 -14931731.937 8 -11621346.036 7  21876321.563
 -15801165.733 8 -12290965.129 7  21513429.711
 -11763087.884 7  -9147468.880 6  22529822.797
 -12403590.22047  -9589889.84744  22598462.0234                   22598462.8204
 -20193589.561 8 -15719882.836 8  20875896.602
  -5685447.097 6  -4414806.674 6  23489498.797
   -979554.50146    -81547.33642  24907023.4844                   24907025.3244
 -13067540.14247 -10134705.69545  22119775.2664                   22119773.3204
 11  8 15  3 10 30.0000000  0  8G25G29G12G26G05G15G21G02
 -14891967.395 8 -11590360.672 7  21883888.914
 -15871406.365 8 -12345698.053 7  21500062.656
 -11676264.739 7  -9079814.480 7  22546344.484
 -12488130.30247  -9655765.24944  22582374.7974                   22582375.8794
 -20138898.793 8 -15677266.637 7  20886304.070
  -5782555.025 7  -4490475.139 6  23471019.570
  -1037833.29646   -126959.30343  24895932.8834                   24895935.6374
 -13021713.63647 -10098996.73045  22128495.4144                   22128494.3444
 11  8 15  3 11  0.0000000  0  8G25G29G12G26G05G15G21G02
 -14851717.693 8 -11558997.273 7  21891547.875
 -15941410.426 8 -12400246.628 7  21486741.500
 -11589215.468 7  -9011983.909 7  22562909.383
 -12572368.07547  -9721405.05744  22566344.4774                   22566346.0984
 -20083819.874 8 -15634347.990 7  20896785.211
  -5879612.225 6  -4566104.093 6  23452549.883
  -1096112.71446   -172371.71043  24884842.2504                   24884845.0474
 -12975786.75747 -10063209.54245  22137235.1564                   22137233.2544
 11  8 15  3 11 30.0000000  0  8G25G29G12G26G05G15G21G02
 -14810985.973 8 -11527258.264 7  21899299.242
 -16011176.473 8 -12454609.745 7  21473465.188
 -11501943.869 7  -8943980.057 7  22579516.242
 -12656300.95047  -9786807.29545  22550373.1884                   22550373.7074
 -20028356.050 8 -15591129.421 7  20907339.445
  -5976616.783 7  -4641692.021 6  23434090.805
  -1154393.80146   -217785.41443  24873752.4304                   24873754.2464
 -12929759.89847 -10027344.46845  22145993.8594                   22145992.1454
 11  8 15  3 12  0.0000000  0  8G25G29G12G26G05G15G21G02
 -14769775.255 8 -11495146.014 7  21907141.219
 -16080703.289 8 -12508786.444 7  21460234.742
 -11414454.423 7  -8875806.478 7  22596165.766
 -12739925.69347  -9851969.39944  22534459.6884                   22534460.9064
 -19972510.611 8 -15547613.483 7  20917966.539
  -6073566.472 7  -4717237.194 6  23415641.609
  -1212677.84946   -263201.47443  24862660.9694                   24862663.0864
 -12883633.83847  -9991402.04845  22154771.4924                   22154769.5664
 11  8 15  3 12 30.0000000  0  8G25G29G12G26G05G15G21G02
 -14728087.736 8 -11462662.222 7  21915074.094
 -16149988.262 8 -12562774.705 7  21447050.594
 -11326750.055 7  -8807465.433 7  22612854.633
 -12823238.85747  -9916888.72045  22518605.7894                   22518607.1294
 -19916285.553 8 -15503801.743 7  20928666.023
  -6170458.296 7  -4792737.269 6  23397203.766
  -1270965.35746   -308620.20943  24851568.9774                   24851571.1724
 -12837408.44548  -9955382.26145  22163567.9614                   22163566.0314
 11  8 15  3 13  0.0000000  0  8G25G29G12G26G05G15G21G02
 -14685923.308 8 -11429806.829 7  21923097.953
 -16219026.687 8 -12616570.841 7  21433912.891
 -11238831.456 7  -8738957.440 7  22629585.656
 -12906234.47147  -9981560.58544  22502811.7974                   22502813.2234
 -19859681.459 8 -15459694.652 7  20939437.281
  -6267287.397 7  -4868188.476 6  23378777.102
  -1329255.04246   -354040.64943  24840477.0634                   24840479.4304
 -12791081.22848  -9919283.12245  22172383.7424                   22172381.6024
 11  8 15  3 13 30.0000000  0  8G25G29G12G26G05G15G21G02
 -14643286.817 8 -11396583.581 7  21931211.711
 -16287819.233 8 -12670175.377 7  21420821.953
 -11150704.290 7  -8670286.939 7  22646355.617
 -12988911.45347 -10045984.15545  22487078.9534                   22487080.5554
 -19802703.152 8 -15415295.952 7  20950280.203
  -6364052.648 7  -4943589.918 6  23360363.984
  -1387549.80346   -399465.04142  24829382.9224                   24829385.5394
 -12744654.36248  -9883106.32245  22181218.8914                   22181216.0984
 11  8 15  3 14  0.0000000  0  8G25G29G12G26G05G15G21G02
 -14600178.720 8 -11362992.855 7  21939414.258
 -16356361.803 8 -12723585.135 7  21407778.477
 -11062369.737 7  -8601454.841 7  22663165.008
 -13071264.58947 -10110155.35445  22471407.5394                   22471409.4384
 -19745351.280 8 -15370606.160 7  20961193.633
  -6460750.065 7  -5018938.491 6  23341962.922
  -1445848.33746   -444892.37943  24818289.5084                   24818291.4774
 -12698126.07547  -9846850.51745  22190072.1564                   22190070.5314
 11  8 15  3 14 30.0000000  0  8G25G29G12G26G05G15G21G02
 -14556602.413 8 -11329037.273 7  21947706.836
 -16424653.273 8 -12776799.224 7  21394783.078
 -10973832.101 7  -8532464.482 7  22680012.516
 -13153290.95947 -10174071.93644  22455798.9694                   22455799.7234
 -19687629.076 8 -15325627.821 7  20972178.086
  -6557377.079 7  -5094232.233 6  23323575.383
  -1504152.22046   -490323.88442  24807194.2344                   24807196.4144
 -12651497.30447  -9810516.39745  22198945.4774                   22198943.4654
 11  8 15  3 15  0.0000000  0  8G25G29G12G26G05G15G21G02
 -14512559.044 8 -11294717.770 7  21956087.617
 -16492689.902 8 -12829814.761 7  21381836.344
 -10885093.392 7  -8463317.452 7  22696899.766
 -13234986.21947 -10237730.49845  22440252.5164                   22440253.7934
 -19629538.010 8 -15280362.053 7  20983232.328
  -6653929.773 7  -5169468.043 6  23305201.836
  -1562460.82746   -535759.05143  24796098.4844                   24796100.9104
 -12604766.77748  -9774102.99445  22207838.0234                   22207836.0044
 11  8 15  3 15 30.0000000  0  8G25G29G12G26G05G15G21G02
 -14468050.712 8 -11260035.967 7  21964557.641
 -16560469.208 8 -12882629.775 7  21368937.781
 -10796156.598 7  -8394016.075 7  22713823.211
 -13316346.18447 -10301127.79145  22424769.9454                   22424771.2934
 -19571080.396 8 -15234810.657 7  20994356.422
  -6750404.930 7  -5244643.452 6  23286843.289
  -1620774.39146   -581198.06343  24785001.4064                   24785004.4574
 -12557934.15848  -9737610.03345  22216750.0084                   22216748.1054
 11  8 15  3 16  0.0000000  0  8G25G29G12G26G05G15G21G02
 -14423081.859 8 -11224995.296 7  21973114.625
 -16627991.390 8 -12935244.423 7  21356088.758
 -10707026.877 7  -8324564.354 7  22730783.984
 -13397369.49947 -10364262.77844  22409351.9384                   22409353.1804
 -19512260.903 8 -15188977.272 7  21005549.602
  -6846801.644 7  -5319757.732 6  23268499.594
  -1679095.93546   -626643.31443  24773903.8524                   24773905.9614
 -12511000.97348  -9701038.73145  22225681.4224                   22225679.8404
 11  8 15  3 16 30.0000000  0  8G25G29G12G26G05G15G21G02
 -14377652.978 8 -11189596.178 7  21981759.383
 -16695251.836 8 -12987655.115 7  21343289.461
 -10617705.303 7  -8254963.158 7  22747781.602
 -13478050.87847 -10427131.30945  22393998.2814                   22393999.6454
 -19453079.644 8 -15142861.997 7  21016811.625
  -6943115.117 7  -5394807.156 6  23250171.727
  -1737423.68746   -672093.38443  24762804.3204                   24762806.8094
 -12463965.19648  -9664387.45745  22234631.5944                   22234629.6644
 11  8 15  3 17  0.0000000  0  8G25G29G12G26G05G15G21G02
 -14331766.861 8 -11153840.780 7  21990491.383
 -16762248.790 8 -13039860.475 7  21330540.773
 -10528195.529 7  -8185215.298 6  22764814.555
 -13558386.81147 -10489730.65145  22378711.0314                   22378712.5824
 -19393539.733 8 -15096467.244 7  21028141.320
  -7039342.901 7  -5469789.771 6  23231860.414
  -1795758.72646   -717549.21142  24751703.4144                   24751705.6054
 -12416827.15748  -9627656.51245  22243602.1334                   22243599.9774
 11  8 15  3 17 30.0000000  0  8G25G29G12G26G05G15G21G02
 -14285425.696 8 -11117730.784 7  21999309.633
 -16828979.882 8 -13091858.692 7  21317842.219
 -10438500.492 7  -8115323.085 6  22781883.516
 -13638373.66547 -10552057.99845  22363490.0474                   22363491.4614
 -19333643.482 8 -15049794.836 7  21039539.422
  -7135481.509 7  -5544702.918 6  23213566.055
  -1854101.47546   -763010.91943  24740601.1254                   24740603.1374
 -12369586.52047  -9590845.62845  22252591.2974                   22252589.7424
 11  8 15  3 18  0.0000000  0  8G25G29G12G26G05G15G21G02
 -14238633.277 8 -11081269.148 7  22008214.320
 -16895444.231 8 -13143649.059 7  21305194.461
 -10348624.739 7  -8045290.009 6  22798986.719
 -13718009.37947 -10614111.72745  22348335.7504                   22348337.2154
 -19273394.650 8 -15002847.675 7  21051004.023
  -7231529.403 7  -5619545.380 6  23195287.813
  -1912453.65946   -808480.08143  24729497.0944                   24729498.2934
 -12322244.29848  -9553955.59745  22261600.2344                   22261599.1174
 11  8 15  3 18 30.0000000  0  8G25G29G12G26G05G15G21G02
 -14191389.836 8 -11044456.082 7  22017204.180
 -16961637.163 8 -13195227.923 7  21292598.008
 -10258569.054 7  -7975116.775 6  22816123.031
 -13797287.92547 -10675887.16245  22333249.8284                   22333250.7934
 -19212793.325 8 -14955625.857 7  21062536.109
  -7327481.456 7  -5694313.183 6  23177029.109
  -1970813.61646   -853955.23043  24718391.8674                   24718392.9024
 -12274798.20747  -9516984.62545  22270628.5164                   22270627.6374
 11  8 15  3 19  0.0000000  0  8G25G29G12G26G05G15G21G02
 -14143698.655 8 -11007294.137 7  22026279.922
 -17027557.293 8 -13246594.231 7  21280053.969
 -10168337.608 7  -7904806.563 6  22833293.266
 -13876206.84947 -10737382.33945  22318231.6024                   22318233.2424
 -19151843.055 8 -14908132.126 7  21074134.398
  -7423335.527 7  -5769004.568 6  23158788.469
  -2029182.66146   -899437.55243  24707283.9534                   24707285.2664
 -12227248.92247  -9479933.24145  22279677.1254                   22279675.4924
 11  8 15  3 19 30.0000000  0  8G25G29G12G26G05G15G21G02
 -14095562.154 8 -10969785.171 7  22035439.789
 -17093202.288 8 -13297746.127 7  21267562.008
 -10077933.258 7  -7834361.631 6  22850497.461
 -13954762.39247 -10798594.40645  22303283.2344                   22303283.7584
 -19090546.355 8 -14860368.461 7  21085799.313
  -7519088.420 7  -5843617.165 6  23140567.477
  -2087561.36546   -944927.34943  24696174.9144                   24696175.3524
 -12179596.09647  -9442801.17045  22288745.0634                   22288743.7664
 11  8 15  3 20  0.0000000  0  8G25G29G12G26G05G15G21G02
 -14046982.717 8 -10931931.070 7  22044684.375
 -17158569.801 8 -13348681.806 7  21255123.039
  -9987359.119 7  -7763784.409 7  22867732.156
 -14032950.85247 -10859520.40445  22288404.6024                   22288405.1334
 -19028905.200 8 -14812336.382 7  21097529.094
  -7614737.090 7  -5918148.539 6  23122366.203
  -2145950.21146   -990425.04243  24685064.0704                   24685064.3444
 -12131839.44347  -9405588.20545  22297833.0704                   22297831.2274
 11  8 15  3 20 30.0000000  0  8G25G29G12G26G05G15G21G02
 -13997962.742 8 -10893733.692 7  22054012.211
 -17223657.478 8 -13399399.431 7  21242737.414
  -9896618.285 7  -7693077.283 6  22885000.445
 -14110768.66947 -10920157.58845  22273595.9454                   22273596.7114
 -18966922.235 8 -14764037.962 7  21109323.742
  -7710278.444 7  -5992596.285 6  23104184.969
  -2204349.35246  -1035930.76843  24673950.2504                   24673951.5984
 -12083978.37748  -9368293.86645  22306940.4694                   22306938.8054
 11  8 15  3 21  0.0000000  0  8G25G29G12G26G05G15G21G02
 -13948505.824 8 -10855195.822 7  22063423.422
 -17288463.869 8 -13449897.874 7  21230405.375
  -9805715.063 7  -7622243.626 7  22902298.914
 -14188213.31847 -10980504.00145  22258858.3204                   22258859.8634
 -18904600.940 8 -14715475.903 7  21121183.250
  -7805710.424 7  -6066958.802 6  23086024.898
  -2262760.55146  -1081445.88543  24662835.6254                   24662836.4454
 -12036014.03147  -9330919.04745  22316067.8204                   22316066.3714
 11  8 15  3 21 30.0000000  0  8G25G29G12G26G05G15G21G02
 -13898613.169 8 -10816318.442 7  22072917.555
 -17352985.529 8 -13500174.469 7  21218127.094
  -9714651.042 7  -7551284.657 6  22919627.453
 -14265279.78347 -11040555.72445  22244193.4064                   22244195.0124
 -18841942.651 8 -14666651.248 7  21133106.367
  -7901028.727 7  -6141232.739 6  23067886.258
  -2321182.79546  -1126969.61043  24651717.1644                   24651718.9024
 -11987944.65047  -9293462.39645  22325215.2814                   22325213.5594
 11  8 15  3 22  0.0000000  0  8G25G29G12G26G05G15G21G02
 -13848287.842 8 -10777103.901 7  22082494.266
 -17417220.721 8 -13550227.834 7  21205903.180
  -9623429.834 7  -7480203.217 6  22936986.023
 -14341965.38347 -11100310.68045  22229600.6884                   22229602.0784
 -18778950.013 8 -14617566.083 7  21145093.805
  -7996230.794 7  -6215416.132 6  23049770.383
  -2379617.11246  -1172502.73143  24640597.9384                   24640599.1484
 -11939770.81048  -9255924.34145  22334382.5784                   22334380.7774
 11  8 15  3 22 30.0000000  0  8G25G29G12G26G05G15G21G02
 -13797531.547 7 -10737553.554 7  22092153.141
 -17481166.266 8 -13600055.487 7  21193734.500
  -9532053.841 7  -7409001.186 7  22954374.055
 -14418265.47347 -11159765.22345  22215080.7424                   22215082.4344
 -18715624.848 8 -14568221.797 7  21157143.711
  -8091312.885 7  -6289506.009 6  23031676.023
  -2438063.22446  -1218045.04043  24629475.8364                   24629477.6134
 -11891491.36247  -9218304.00145  22343570.1334                   22343568.1214
 11  8 15  3 23  0.0000000  0  8G25G29G12G26G05G15G21G02
 -13746347.716 8 -10697670.063 7  22101892.836
 -17544820.719 8 -13649656.333 7  21181621.828
  -9440526.989 7  -7337681.560 7  22971791.484
 -14494177.60547 -11218917.46745  22200635.1954                   22200636.6294
 -18651970.528 8 -14518621.020 7  21169257.359
  -8186272.774 7  -6363500.696 6  23013605.820
  -2496522.74946  -1263597.80543  24618351.2424                   24618352.9144
 -11843106.66447  -9180601.64545  22352777.4454                   22352775.6094
 11  8 15  3 23 30.0000000  0  8G25G29G12G26G05G15G21G02
 -13694738.214 8 -10657454.863 7  22111714.102
 -17608181.047 8 -13699027.991 7  21169564.945
  -9348851.315 7  -7266245.990 7  22989236.570
 -14569697.55747 -11277764.11145  22186264.0554                   22186265.4574
 -18587988.750 8 -14468765.085 7  21181432.359
  -8281106.673 7  -6437397.194 6  22995559.969
  -2554995.31646  -1309160.72043  24607224.7894                   24607226.3914
 -11794615.84847  -9142816.60045  22362004.4454                   22362003.0744
 11  8 15  3 24  0.0000000  0  9G18G25G29G12G26G05G15G21G02
    259446.815 5                  24693630.930
 -13642706.048 7 -10616910.314 7  22121615.102
 -17671245.294 8 -13748168.941 7  21157564.266
  -9257030.785 7  -7194697.525 7  23006709.391
 -14644822.09847 -11336302.63945  22171968.1414                   22171970.0554
 -18523682.691 8 -14418656.455 7  21193669.719
  -8375811.787 7  -6511193.367 6  22977537.883
  -2613481.70746  -1354734.45643  24596094.8444                   24596096.9774
 -11746019.20947  -9104949.10445  22371252.2344                   22371251.0234
 11  8 15  3 24 30.0000000  0  9G18G25G29G12G26G05G15G21G02
    169481.581 5                  24676509.719
 -13590254.789 8 -10576039.231 7  22131596.672
 -17734011.954 8 -13797078.020 7  21145619.547
  -9165069.580 7  -7123039.465 6  23024208.898
 -14719548.74247 -11394531.14245  22157748.5864                   22157749.8554
 -18459055.398 8 -14368297.522 7  21205967.766
  -8470386.326 7  -6584887.754 6  22959540.859
  -2671983.30146  -1400319.99543  24584962.6334                   24584963.8794
 -11697317.21747  -9066999.53445  22380519.6884                   22380518.2504
 11  8 15  3 25  0.0000000  0  9G18G25G29G12G26G05G15G21G02
     79675.932 4                  24659420.852
 -13537385.085 8 -10534842.052 7  22141657.391
 -17796477.119 8 -13845752.155 7  21133733.211
  -9072968.643 7  -7051272.510 6  23041735.727
 -14793872.14247 -11452445.42445  22143605.2504                   22143606.3874
 -18394107.470 8 -14317688.737 7  21218326.648
  -8564824.944 7  -6658476.198 6  22941569.516
  -2730498.63246  -1445916.25143  24573826.8054                   24573828.6054
 -11648507.72147  -9028966.16345  22389808.1884                   22389805.9574
 11  8 15  3 25 30.0000000  0  8G25G29G12G26G05G15G21G02
 -13484098.606 8 -10493320.135 7  22151797.750
 -17858637.423 7 -13894188.743 7  21121904.531
  -8980729.973 7  -6979398.223 6  23059288.125
 -14867787.58647 -11510041.80845  22129539.5394                   22129540.6094
 -18328840.361 8 -14266831.259 7  21230746.672
  -8659123.983 7  -6731955.880 7  22923625.008
  -2789027.25746  -1491522.87243  24562690.0554                   24562691.0314
 -11599589.65247  -8990848.18745  22399116.7894                   22399115.1644
 11  8 15  3 26  0.0000000  0  8G25G29G12G26G05G15G21G02
 -13430400.930 8 -10451477.793 7  22162016.117
 -17920493.261 8 -13942388.084 7  21110133.789
  -8888359.797 7  -6907421.477 6  23076865.008
 -14941294.70247 -11567319.98245  22115551.2814                   22115552.4654
 -18263259.705 8 -14215729.450 7  21243226.406
  -8753282.985 7  -6805326.454 6  22905707.695
  -2847572.61846  -1537142.55143  24551548.2734                   24551550.0434
 -11550565.52247  -8952647.57445  22408446.0234                   22408443.9964
 11  8 15  3 26 30.0000000  0  9G18G25G29G12G26G05G15G21G02
    659123.501 5                  24608337.102
 -13376294.710 8 -10409317.117 7  22172312.117
 -17982042.508 8 -13990348.521 7  21098421.273
  -8795861.222 6  -6835344.686 6  23094466.930
 -15014390.07347 -11624277.36245  22101641.9534                   22101642.4184
 -18197367.906 8 -14164385.181 7  21255765.195
  -8847298.922 7  -6878585.591 6  22887816.500
  -2906134.86647  -1582775.34443  24540404.8674                   24540405.8484
 -11501435.03547  -8914364.07345  22417795.3594                   22417793.5704
 11  8 15  3 27  0.0000000  0  9G18G25G29G12G26G05G15G21G02
    569968.54446    701010.77143  24591371.9774                   24591373.8014
 -13321779.854 8 -10366838.023 7  22182685.500
 -18043279.952 8 -14038065.987 7  21086768.305
  -8703234.295 7  -6763167.859 6  23112093.422
 -15087067.30048 -11680908.85845  22087811.7034                   22087812.5234
 -18131164.713 8 -14112798.272 7  21268363.094
  -8941166.189 7  -6951728.967 7  22869954.625
  -2964712.26047  -1628419.96043  24529258.0314                   24529257.9734
 -11452195.23147  -8875995.41445  22427164.9694                   22427163.9414
 11  8 15  3 27 30.0000000  0  9G18G25G29G12G26G05G15G21G02
    480979.74846    631668.84842  24574437.5004                   24574439.9774
 -13266860.103 8 -10324043.394 7  22193136.805
 -18104204.329 8 -14085539.500 7  21075174.719
  -8610483.489 7  -6690894.531 6  23129743.578
 -15159324.36847 -11737212.99445  22074061.4144                   22074062.7464
 -18064653.700 8 -14060971.521 7  21281019.898
  -9034882.601 7  -7024754.838 6  22852120.508
  -3023305.88446  -1674077.21343  24518106.9144                   24518108.1374
 -11402846.74547  -8837542.05245  22436556.0394                   22436554.4454
 11  8 15  3 28  0.0000000  0  9G18G25G29G12G26G05G15G21G02
    392158.20645    562457.30842  24557535.0394                   24557538.3954
 -13211538.134 8 -10280935.374 7  22203663.984
 -18164813.550 8 -14132767.458 7  21063641.219
  -8517611.920 7  -6618527.072 6  23147416.563
 -15231157.41747 -11793186.72645  22060391.9534                   22060392.9964
 -17997836.950 8 -14008906.504 7  21293734.586
  -9128445.148 7  -7097660.720 7  22834316.227
  -3081916.27547  -1719747.50843  24506953.5554                   24506954.7234
 -11353389.38747  -8799003.84345  22445967.4844                   22445965.8364
 11  8 15  3 28 30.0000000  0  9G18G25G29G12G26G05G15G21G02
    303505.03446    493376.99442  24540664.4304                   24540668.3364
 -13155816.804 8 -10237516.171 7  22214267.344
 -18225105.460 8 -14179748.143 7  21052167.969
  -8424622.533 7  -6546067.784 6  23165111.859
 -15302563.42948 -11848827.67845  22046803.8444                   22046805.0004
 -17930717.357 8 -13956605.523 7  21306507.063
  -9221850.509 7  -7170444.186 7  22816542.344
  -3140544.27947  -1765431.57143  24495797.3914                   24495797.4064
 -11303822.87347  -8760380.57845  22455399.5164                   22455397.9574
 11  8 15  3 29  0.0000000  0  9G18G25G29G12G26G05G15G21G02
    215020.19446    424427.84142  24523826.5164                   24523829.6414
 -13099700.204 8 -10193788.970 7  22224946.258
 -18285078.975 8 -14226480.725 7  21040755.484
  -8331520.023 7  -6473520.402 6  23182828.563
 -15373540.17348 -11904134.17645  22033297.4064                   22033298.2854
 -17863298.831 8 -13904071.602 7  21319336.555
  -9315097.515 7  -7243104.265 7  22798797.664
  -3199191.33546  -1811130.45443  24484636.7974                   24484637.8754
 -11254148.21147  -8721673.04345  22464852.3204                   22464850.4654
 11  8 15  3 29 30.0000000  0  9G18G25G29G12G26G05G15G21G02
    126706.92346    355612.30443  24507022.0944                   24507024.3594
 -13043188.776 8 -10149754.082 7  22235699.867
 -18344729.508 8 -14272961.639 7  21029403.805
  -8238304.860 7  -6400885.229 6  23200566.453
 -15444081.97147 -11959101.73945  22019873.6024                   22019874.7544
 -17795581.574 8 -13851304.908 7  21332222.508
  -9408180.700 7  -7315636.696 7  22781084.961
  -3257855.63046  -1856842.76743  24473473.1804                   24473473.8324
 -11204362.91848  -8682879.30345  22474326.5004                   22474324.3404
 11  8 15  3 30  0.0000000  0  9G18G25G29G12G26G05G15G21G02
     38565.38946    286930.69742  24490248.9304                   24490251.6484
 -12986286.626 7 -10105414.755 7  22246527.586
 -18404055.609 8 -14319189.737 7  21018114.695
  -8144981.589 7  -6328165.808 6  23218325.414
 -15514186.85347 -12013728.84245  22006532.8284                   22006533.8094
 -17727569.236 8 -13798308.279 7  21345164.828
  -9501098.115 7  -7388039.962 7  22763403.172
  -3316538.86546  -1902569.85143  24462306.4694                   24462307.3874
 -11154468.16947  -8644000.28645  22483820.9454                   22483819.1484
 11  8 15  3 30 30.0000000  0  9G18G25G29G12G26G05G15G21G02
    -49403.31646    218383.71642  24473508.5784                   24473512.5744
 -12928996.462 7 -10060773.086 7  22257430.266
 -18463055.886 8 -14365163.944 7  21006887.297
  -8051553.307 7  -6255364.573 6  23236104.555
 -15583851.34747 -12068012.80745  21993276.2034                   21993277.0984
 -17659264.460 8 -13745083.784 7  21358162.742
  -9593846.551 7  -7460311.563 7  22745754.266
  -3375241.53346  -1948312.10543  24451134.8594                   24451136.8554
 -11104463.55647  -8605035.63845  22493336.1644                   22493334.7384
 11  8 15  3 31  0.0000000  0  9G18G25G29G12G26G05G15G21G02
   -137197.78446    149972.54142  24456801.4454                   24456805.1954
 -12871320.597 8 -10015830.863 7  22268405.305
 -18521727.145 8 -14410881.792 7  20995722.289
  -7958022.904 7  -6182483.760 6  23253903.266
 -15653071.58947 -12121950.57945  21980104.3054                   21980105.0394
 -17590669.051 8 -13691632.823 7  21371216.188
  -9686422.418 7  -7532448.605 7  22728137.789
  -3433963.56746  -1994069.47543  24439960.4454                   24439962.3714
 -11054348.13747  -8565984.65945  22502872.4614                   22502871.8094
 11  8 15  3 31 30.0000000  0  9G18G25G29G12G26G05G15G21G02
   -224817.04746     81697.94242  24440127.3134                   24440130.9574
 -12813262.034 7  -9970590.432 7  22279453.664
 -18580067.300 8 -14456341.618 7  20984620.367
  -7864393.245 7  -6109525.598 6  23271720.203
 -15721844.45747 -12175539.74245  21967017.1724                   21967018.2584
 -17521785.795 8 -13637957.547 7  21384324.289
  -9778822.961 7  -7604449.001 7  22710553.836
  -3492705.80246  -2039842.53843  24428783.0234                   24428784.4304
 -11004122.03647  -8526847.46245  22512430.7194                   22512429.1804
 11  8 15  3 32  0.0000000  0  9G18G25G29G12G26G05G15G21G02
   -312259.76546     13560.85742  24423489.0944                   24423491.7894
 -12754823.442 7  -9925053.877 7  22290574.086
 -18638073.891 8 -14501541.528 7  20973582.758
  -7770667.381 7  -6036492.463 6  23289555.219
 -15790166.54147 -12228777.66545  21954015.4694                   21954016.5904
 -17452617.072 8 -13584059.845 7  21397486.422
  -9871045.028 7  -7676310.269 6  22693004.867
  -3551468.05646  -2085631.22143  24417601.1024                   24417601.9024
 -10953784.57747  -8487623.46545  22522009.9304                   22522008.0904
 11  8 15  3 32 30.0000000  0  9G18G25G29G12G26G05G15G21G02
   -399524.84746    -54437.83242  24406882.4454                   24406885.3164
 -12696007.834 7  -9879223.535 7  22301766.234
 -18695744.937 8 -14546479.987 7  20962608.047
  -7676848.630 7  -5963386.955 6  23307408.781
 -15858034.60747 -12281661.81545  21941100.7114                   21941101.1884
 -17383165.590 8 -13529941.806 7  21410702.484
  -9963085.569 7  -7748030.074 6  22675489.891
  -3610251.28046  -2131436.21243  24406414.5234                   24406416.2814
 -10903336.00847  -8448312.89445  22531609.3834                   22531607.7974
 11  8 15  3 33  0.0000000  0  9G18G25G29G12G26G05G15G21G02
   -486610.21346   -122296.46842  24390310.5004                   24390313.5704
 -12636817.018 7  -9833100.826 7  22313029.813
 -18753076.978 8 -14591154.279 7  20951698.430
  -7582939.070 7  -5890210.675 6  23325278.945
 -15925444.63347 -12334189.03345  21928272.9384                   21928273.7114
 -17313432.734 8 -13475604.525 7  21423972.313
 -10054940.852 7  -7819605.520 6  22658010.398
  -3669054.95446  -2177257.20643  24395224.6414                   24395225.8594
 -10852774.78347  -8408914.56245  22541231.2424                   22541229.5434
 11  8 15  3 33 30.0000000  0  9G18G25G29G12G26G05G15G21G02
   -573514.80946   -190014.25042  24373773.0164                   24373775.9414
 -12577254.138 7  -9786688.216 7  22324364.266
 -18810067.957 8 -14635562.797 7  20940852.750
  -7488942.079 7  -5816966.274 6  23343166.422
 -15992393.46948 -12386356.89245  21915533.5084                   21915533.9734
 -17243421.475 8 -13421050.305 7  21437295.141
 -10146607.750 7  -7891034.182 6  22640567.406
  -3727879.77746  -2223094.61143  24384030.1954                   24384032.4024
 -10802100.96247  -8369428.46345  22550874.1414                   22550872.4574
 11  8 15  3 34  0.0000000  0  9G18G25G29G12G26G05G15G21G02
   -660237.76946   -257590.54142  24357270.2274                   24357272.4844
 -12517321.791 7  -9739987.684 7  22335768.977
 -18866715.314 8 -14679703.558 7  20930073.195
  -7394860.501 7  -5743655.949 6  23361068.609
 -16058877.58347 -12438162.62645  21902881.7274                   21902882.3874
 -17173133.823 8 -13366280.698 7  21450670.289
 -10238083.110 7  -7962313.624 7  22623159.758
  -3786725.84546  -2268948.61543  24372832.9844                   24372833.8954
 -10751313.93147  -8329854.19645  22560538.4224                   22560536.8204
 11  8 15  3 34 30.0000000  0  9G18G25G29G12G26G05G15G21G02
   -746778.91946   -325025.08543  24340801.6724                   24340803.7074
 -12457024.179 7  -9693002.550 7  22347243.727
 -18923018.757 8 -14723576.332 7  20919359.031
  -7300698.417 7  -5670282.896 6  23378987.766
 -16124894.82748 -12489604.58645  21890319.0394                   21890319.0984
 -17102573.581 8 -13311298.712 7  21464097.234
 -10329365.213 7  -8033442.483 7  22605788.766
  -3845594.77446  -2314820.39443  24361629.6024                   24361631.3524
 -10700414.82847  -8290192.57445  22570224.0634                   22570222.8754
 11  8 15  3 35  0.0000000  0  9G18G25G29G12G26G05G15G21G02
   -833136.33146   -392316.42143  24324369.0394                   24324370.4534
 -12396363.044 7  -9645734.155 7  22358786.602
 -18978974.432 8 -14767178.114 7  20908711.109
  -7206457.951 7  -5596848.797 6  23396920.742
 -16190441.07147 -12540679.53945  21877846.2034                   21877846.6604
 -17031742.222 8 -13256105.446 7  21477576.344
 -10420449.990 7  -8104417.610 6  22588455.852
  -3904486.10446  -2360709.70843  24350422.5634                   24350423.9184
 -10649401.82147  -8250442.20945  22579931.7194                   22579930.0434
 11  8 15  3 35 30.0000000  0  9G18G25G29G12G26G05G15G21G02
   -919308.84346   -459463.75443  24307970.1884                   24307972.0124
 -12335341.406 7  -9598184.836 7  22370399.125
 -19034580.254 8 -14810507.293 7  20898129.648
  -7112142.285 7  -5523356.081 6  23414868.164
 -16255512.98047 -12591384.89645  21865462.9924                   21865463.4774
 -16960642.199 8 -13200702.840 7  21491106.102
 -10511334.299 7  -8175236.593 7  22571161.422
  -3963399.69846  -2406616.26843  24339211.6334                   24339213.1604
 -10598275.09647  -8210603.25045  22589661.9224                   22589659.4844
 11  8 15  3 36  0.0000000  0  9G18G25G29G12G26G05G15G21G02
  -1005295.13546   -526465.96843  24291607.3444                   24291609.4384
 -12273961.890 7  -9550356.653 7  22382078.547
 -19089833.593 8 -14853561.816 7  20887615.188
  -7017754.467 7  -5449807.170 6  23432829.914
 -16320107.14648 -12641717.96745  21853171.3444                   21853171.2384
 -16889276.025 8 -13145092.848 7  21504686.547
 -10602014.622 7  -8245896.539 7  22553905.664
  -4022336.50246  -2452540.96943  24327996.3754                   24327997.5394
 -10547034.07947  -8170675.20545  22599411.8524                   22599410.4224
 11  8 15  3 36 30.0000000  0  9G18G25G29G12G26G05G15G21G02
  -1091095.06746   -593322.95743  24275279.7504                   24275282.1914
 -12212228.010 7  -9502252.343 7  22393826.367
 -19144733.135 8 -14896340.639 8  20877168.219
  -6923297.796 7  -5376204.565 6  23450804.406
 -16384221.00647 -12691676.77945  21840970.9384                   21840971.3244
 -16817646.773 8 -13089277.873 7  21518317.367
 -10692488.563 7  -8316395.625 7  22536688.953
  -4081297.00846  -2498484.11243  24316776.3054                   24316777.2934
 -10495678.93547  -8130658.24645  22609184.4844                   22609182.7624
 11  8 15  3 37  0.0000000  0  9G18G25G29G12G26G05G15G21G02
  -1176705.87546   -660032.62843  24258989.1334                   24258991.2194
 -12150141.239 7  -9453873.066 7  22405641.594
 -19199274.941 8 -14938840.728 7  20866789.039
  -6828774.251 7  -5302549.894 6  23468792.133
 -16447850.06947 -12741257.80945  21828862.5084                   21828862.9964
 -16745755.180 8 -13033258.452 7  21531997.914
 -10782751.717 7  -8386730.444 7  22519512.078
  -4140280.84146  -2544445.43743  24305552.5314                   24305553.3014
 -10444208.11147  -8090551.15945  22618978.6804                   22618977.1454
 11  8 15  3 37 30.0000000  0  9G18G25G29G12G26G05G15G21G02
  -1262127.85546   -726595.13043  24242734.1804                   24242735.8204
 -12087705.998 7  -9405222.259 7  22417522.703
 -19253458.100 8 -14981061.339 7  20856478.289
  -6734187.803 7  -5228846.170 6  23486791.133
 -16510992.46547 -12790459.65945  21816846.9774                   21816847.2074
 -16673605.346 8 -12977037.805 7  21545727.898
 -10872802.795 7  -8456900.026 7  22502375.938
  -4199289.20746  -2590425.84643  24294323.6024                   24294324.8984
 -10392622.38247  -8050354.51545  22628795.5164                   22628793.2464
 11  8 15  3 38  0.0000000  0  9G18G25G29G12G26G05G15G21G02
  -1347359.66446   -793009.45343  24226514.6024                   24226516.5204
 -12024925.314 7  -9356302.242 7  22429468.977
 -19307280.765 8 -15023001.037 7  20846236.195
  -6639542.116 7  -5155096.270 6  23504801.117
 -16573645.04847 -12839279.80045  21804924.1724                   21804924.7624
 -16601199.707 8 -12920617.841 7  21559505.742
 -10962638.633 7  -8526901.863 7  22485281.094
  -4258322.48646  -2636425.73343  24283089.6174                   24283090.4384
 -10340921.80547  -8010068.38545  22638633.5704                   22638631.8754
 11  8 15  3 38 30.0000000  0  9G18G25G29G12G26G05G15G21G02
  -1432399.28646   -859274.04543  24210332.4064                   24210334.4064
 -11961800.299 7  -9307113.930 7  22441481.703
 -19360738.924 8 -15064656.718 7  20836063.398
  -6544838.261 7  -5081301.097 6  23522822.844
 -16635802.97947 -12887714.52145  21793096.0234                   21793096.4454
 -16528539.078 8 -12863999.188 7  21573332.664
 -11052254.081 7  -8596731.995 7  22468227.273
  -4317379.70246  -2682444.23043  24271851.4614                   24271851.8954
 -10289104.25947  -7969691.11245  22648494.0784                   22648492.7464
 11  8 15  3 39  0.0000000  0  9G18G25G29G12G26G05G15G21G02
  -1517246.49346   -925388.67643  24194186.0234                   24194188.0474
 -11898334.962 7  -9257660.431 7  22453558.188
 -19413831.132 8 -15106027.249 7  20825960.492
  -6450080.206 6  -5007463.681 6  23540854.859
 -16697464.14647 -12935762.15145  21781361.8914                   21781363.1024
 -16455626.960 8 -12807184.554 7  21587207.281
 -11141646.966 7  -8666388.719 7  22451216.563
  -4376461.92046  -2728482.27643  24260608.0394                   24260609.1094
 -10237170.27347  -7929223.12145  22658377.4454                   22658375.8054
 11  8 15  3 39 30.0000000  0  9G18G25G29G12G26G05G15G21G02
  -1601900.71446   -991352.99343  24178077.3134                   24178079.1564
 -11834532.883 7  -9207944.559 7  22465699.102
 -19466555.878 8 -15147111.454 7  20815927.477
  -6355271.584 7  -4933586.833 6  23558896.859
 -16758626.02647 -12983420.73045  21769723.6094                   21769724.2664
 -16382466.427 8 -12750176.356 7  21601129.336
 -11230815.363 7  -8735870.556 7  22434248.500
  -4435570.29646  -2774540.66143  24249360.2424                   24249360.8014
 -10185120.26147  -7888664.69745  22668281.8284                   22668279.6604
 11  8 15  3 40  0.0000000  0  9G18G25G29G12G26G05G15G21G02
  -1686359.38746  -1057164.85443  24162004.6254                   24162007.3874
 -11770395.395 7  -9157967.281 7  22477904.883
 -19518909.548 8 -15187906.495 7  20805964.820
  -6260413.973 7  -4859671.826 6  23576947.133
 -16819283.92647 -13030686.58445  21758180.5314                   21758181.1374
 -16309058.357 8 -12692975.270 7  21615098.875
 -11319754.512 7  -8805173.759 7  22417323.844
  -4494703.58046  -2820618.43643  24238107.3594                   24238108.2704
 -10132952.21747  -7848014.29945  22678209.1954                   22678207.9024
 11  8 15  3 40 30.0000000  0  9G18G25G29G12G26G05G15G21G02
  -1770622.45546  -1122824.33043  24145970.5554                   24145972.1954
 -11705926.504 7  -9107731.795 7  22490172.523
 -19570890.641 8 -15228411.226 7  20796073.094
  -6165511.302 6  -4785721.726 6  23595006.953
 -16879435.99347 -13077558.28445  21746734.1724                   21746735.0704
 -16235406.047 8 -12635583.860 7  21629114.008
 -11408462.260 7  -8874296.637 6  22400443.141
  -4553862.99246  -2866716.59443  24226849.8204                   24226850.9574
 -10080666.84547  -7807272.48644  22688158.8364                   22688157.0474
 11  8 15  3 41  0.0000000  0  9G18G25G29G12G26G05G15G21G02
  -1854688.93746  -1188330.60143  24129972.6644                   24129974.6094
 -11641129.292 7  -9057240.489 7  22502503.625
 -19622496.901 8 -15268623.881 7  20786252.766
  -6070566.510 6  -4711738.785 6  23613073.203
 -16939078.76847 -13124033.14945  21735384.4924                   21735384.9774
 -16161511.963 8 -12578004.073 7  21643175.305
 -11496935.466 7  -8943236.740 7  22383606.750
  -4613049.05647  -2912835.49143  24215587.0784                   24215587.5904
 -10028263.80647  -7766438.99045  22698130.4224                   22698129.4614
 11  8 15  3 41 30.0000000  0  9G18G25G29G12G26G05G15G21G02
  -1938557.61547  -1253682.74443  24114013.3754                   24114014.0944
 -11576006.612 7  -9006495.561 7  22514895.875
 -19673726.605 8 -15308543.126 8  20776504.148
  -5975582.689 6  -4637725.465 6  23631148.328
 -16998209.45547 -13170108.98545  21724132.3834                   21724132.4494
 -16087378.771 8 -12520237.939 7  21657282.633
 -11585171.184 7  -9011991.828 7  22366816.008
  -4672261.99646  -2958975.33543  24204319.3834                   24204320.5944
  -9975742.79047  -7725513.54744  22708125.1724                   22708123.6564
 11  8 15  3 42  0.0000000  0  9G18G25G29G12G26G05G15G21G02
  -2022227.15346  -1318879.68343  24098091.1334                   24098092.4924
 -11510560.494 8  -8955498.591 7  22527350.125
 -19724576.318 8 -15348166.257 8  20766827.609
  -5880561.797 6  -4563683.246 6  23649230.969
 -17056823.91747 -13215782.54545  21712978.4454                   21712979.0314
 -16013007.815 8 -12462286.550 7  21671435.125
 -11673165.118 7  -9080558.504 7  22350071.734
  -4731501.12147  -3005135.59144  24193046.7424                   24193047.3444
  -9923102.29347  -7684495.02044  22718142.4224                   22718140.0474
 11  8 15  3 42 30.0000000  0  9G18G25G29G12G26G05G15G21G02
  -2105697.03046  -1383921.11143  24082206.2344                   24082208.8244
 -11444794.641 7  -8904252.479 7  22539864.492
 -19775044.413 8 -15387492.033 7  20757223.664
  -5785507.325 6  -4489614.873 6  23667319.406
 -17114920.05247 -13261052.23545  21701922.8204                   21701923.7154
 -15938402.209 8 -12404152.314 7  21685632.250
 -11760915.221 7  -9148935.248 7  22333373.547
  -4790767.72647  -3051317.30943  24181768.5864                   24181769.5904
  -9870343.06147  -7643383.97944  22728181.8444                   22728180.9804
 11  8 15  3 43  0.0000000  0  9G18G25G29G12G26G05G15G21G02
  -2188965.34246  -1448805.43843  24066361.5164                   24066363.2734
 -11378711.306 7  -8852758.981 7  22552440.016
 -19825127.703 8 -15426517.969 7  20747693.211
  -5690421.873 6  -4415522.327 6  23685412.945
 -17172493.80447 -13305914.87945  21690966.8834                   21690967.4804
 -15863563.433 8 -12345836.382 7  21699873.297
 -11848417.507 7  -9217118.841 7  22316722.547
  -4850061.06347  -3097519.83543  24170484.5704                   24170485.7934
  -9817463.76047  -7602179.33944  22738244.9534                   22738243.5824
 11  8 15  3 43 30.0000000  0  9G18G25G29G12G26G05G15G21G02
  -2272031.58746  -1513532.32043  24050554.5004                   24050555.8094
 -11312314.059 7  -8801020.891 7  22565074.531
 -19874825.124 8 -15465243.231 7  20738236.141
  -5595308.671 6  -4341408.182 6  23703512.414
 -17229542.77447 -13350368.60045  21680111.0944                   21680111.4774
 -15788494.610 8 -12287341.206 7  21714158.266
 -11935669.300 7  -9285107.279 7  22300118.492
  -4909382.09347  -3143743.93344  24159196.6414                   24159197.2544
  -9764464.51447  -7560881.25744  22748329.6884                   22748328.8834
 11  8 15  3 44  0.0000000  0  9G18G25G29G12G26G05G15G21G02
  -2354895.41946  -1578101.46943  24034786.7584                   24034787.7424
 -11245606.426 7  -8749040.929 7  22577769.203
 -19924134.788 8 -15503666.324 8  20728852.820
  -5500171.356 6  -4267275.227 6  23721616.391
 -17286064.63047 -13394411.59645  21669355.3444                   21669355.7974
 -15713198.962 8 -12228669.260 7  21728486.758
 -12022668.502 7  -9352898.874 7  22283563.359
  -4968731.66247  -3189990.27544  24147902.3364                   24147903.7934
  -9711345.36847  -7519489.76844  22758438.7504                   22758437.0664
 11  8 15  3 44 30.0000000  0  9G18G25G29G12G26G05G15G21G02
  -2437555.49246  -1642511.79843  24019056.4384                   24019057.8634
 -11178590.968 7  -8696821.103 7  22590521.523
 -19973053.737 8 -15541784.972 8  20719543.852
  -5405012.178 7  -4193125.246 6  23739725.297
 -17342055.71648 -13438041.00645  21658700.7274                   21658700.6604
 -15637678.285 8 -12169821.996 7  21742857.781
 -12109411.141 7  -9420490.563 7  22267056.852
  -5028109.63647  -3236258.76144  24136603.2814                   24136604.1764
  -9658105.55147  -7478004.22345  22768570.1804                   22768567.9614
 11  8 15  3 45  0.0000000  0  9G18G25G29G12G26G05G15G21G02
  -2520010.75446  -1706762.57843  24003365.4694                   24003367.5354
 -11111270.792 7  -8644363.825 7  22603331.813
 -20021580.144 8 -15579597.748 8  20710309.438
  -5309834.262 7  -4118960.679 6  23757837.008
 -17397513.63747 -13481254.92845  21648147.1954                   21648147.8164
 -15561934.673 8 -12110800.970 7  21757271.469
 -12195894.424 7  -9487880.171 7  22250599.680
  -5087516.27947  -3282549.60443  24125298.5234                   24125299.1294
  -9604745.02747  -7436424.61244  22778724.0234                   22778722.1254
 11  8 15  3 45 30.0000000  0  9G18G25G29G12G26G05G15G21G02
  -2602259.98946  -1770852.76743  23987713.5554                   23987715.8554
 -11043648.220 7  -8591670.932 7  22616200.195
 -20069711.180 8 -15617102.430 7  20701150.180
  -5214639.988 7  -4044783.351 6  23775951.844
 -17452434.28747 -13524050.19445  21637695.6094                   21637696.2934
 -15485970.173 8 -12051607.848 7  21771727.141
 -12282114.275 7  -9555064.493 7  22234192.656
  -5146951.23346  -3328862.47243  24113988.8754                   24113989.1644
  -9551262.64747  -7394750.04844  22788900.9224                   22788899.8244
 11  8 15  3 46  0.0000000  0  9G18G25G29G12G26G05G15G21G02
  -2684302.14846  -1834781.64443  23972102.7734                   23972103.8634
 -10975726.703 7  -8538745.072 7  22629125.211
 -20117445.048 8 -15654297.640 7  20692066.953
  -5119432.635 7  -3970595.855 6  23794069.672
 -17506815.42148 -13566425.07545  21627347.4224                   21627348.0044
 -15409787.081 8 -11992244.394 7  21786224.336
 -12368068.361 7  -9622041.711 7  22217836.367
  -5206415.19047  -3375197.98843  24102672.9144                   24102673.4144
  -9497658.43347  -7352980.56644  22799101.3914                   22799100.0204
 11  8 15  3 46 30.0000000  0  9G18G25G29G12G26G05G15G21G02
  -2766136.56446  -1898548.62843  23956528.4614                   23956531.0944
 -10907509.132 7  -8485588.509 7  22642106.281
 -20164779.383 8 -15691181.528 8  20683059.492
  -5024215.008 6  -3896400.361 6  23812188.086
 -17560653.92247 -13608377.12345  21617102.2974                   21617102.6994
 -15333388.314 8 -11932712.885 7  21800762.586
 -12453753.659 7  -9688809.503 7  22201531.094
  -5265908.39947  -3421556.24043  24091352.0314                   24091351.8404
  -9443931.91447  -7311115.76044  22809325.1024                   22809323.9344
 11  8 15  3 47  0.0000000  0  9G18G25G29G12G26G05G15G21G02
  -2847761.73346  -1962152.56643  23940996.5004                   23940998.2154
 -10838998.623 7  -8432203.710 7  22655143.602
 -20211712.052 8 -15727752.412 7  20674128.281
  -4928990.169 7  -3822199.230 6  23830309.352
 -17613946.96247 -13649904.13345  21606961.3054                   21606961.5664
 -15256776.198 8 -11873015.123 7  21815341.344
 -12539167.001 7  -9755365.376 7  22185277.695
  -5325431.01447  -3467937.43943  24080025.0084                   24080024.7234
  -9390082.84647  -7269155.47045  22819572.3914                   22819571.5784
 11  8 15  3 47 30.0000000  0  9G18G25G29G12G26G05G15G21G02
  -2929177.37846  -2025593.22243  23925504.3444                   23925505.1954
 -10770198.190 7  -8378592.994 7  22668235.875
 -20258241.255 8 -15764008.923 8  20665274.453
  -4833761.054 7  -3747994.817 6  23848430.461
 -17666691.97848 -13691004.10345  21596924.1884                   21596924.2114
 -15179952.867 8 -11813152.785 7  21829960.516
 -12624305.057 7  -9821706.766 7  22169076.203
  -5384983.23347  -3514341.68643  24068691.6334                   24068691.9844
  -9336110.55847  -7227099.15544  22829843.5394                   22829842.0704
 11  8 15  3 48  0.0000000  0  9G18G25G29G12G26G05G15G21G02
  -3010382.73847  -2088870.04843  23910050.9454                   23910052.0274
 -10701111.043 7  -8324758.855 7  22681382.898
 -20304364.619 8 -15799949.180 8  20656496.961
  -4738530.355 7  -3673789.108 6  23866553.070
 -17718885.69448 -13731674.50545  21586991.3524                   21586992.0204
 -15102920.797 8 -11753127.785 7  21844619.086
 -12709165.200 7  -9887831.590 7  22152927.484
  -5444565.49147  -3560769.36143  24057353.4454                   24057353.6214
  -9282014.98347  -7184946.79244  22840137.5164                   22840135.9694
 11  8 15  3 48 30.0000000  0  9G18G25G29G12G26G05G15G21G02
  -3091376.44047  -2151981.92243  23894637.8674                   23894639.4534
 -10631739.814 7  -8270703.358 7  22694583.734
 -20350079.666 8 -15835571.270 7  20647797.844
  -4643300.611 6  -3599584.186 6  23884674.078
 -17770525.37847 -13771913.20445  21577165.4384                   21577165.8834
 -15025682.099 8 -11692941.768 7  21859317.078
 -12793743.962 7  -9953737.204 7  22136833.070
  -5504177.57947  -3607220.24744  24046010.2274                   24046010.6334
  -9227795.29747  -7142697.69745  22850455.3054                   22850453.7894
 11  8 15  3 49  0.0000000  0  9G18G25G29G12G26G05G15G21G02
  -3172157.42247  -2214928.03543  23879265.7734                   23879267.2274
 -10562087.503 7  -8216428.824 7  22707838.016
 -20395384.081 8 -15870873.399 7  20639176.328
  -4548074.940 7  -3525382.384 6  23902794.688
 -17821607.91648 -13811717.73545  21567444.3444                   21567444.7464
 -14948238.929 8 -11632596.443 7  21874053.945
 -12878038.039 7 -10019420.982 7  22120792.422
  -5563819.66247  -3653694.48543  24034660.8364                   24034660.3484
  -9173450.94147  -7100351.45444  22860796.4614                   22860795.0664
 11  8 15  3 49 30.0000000  0  9G18G25G29G12G26G05G15G21G02
  -3252725.51147  -2277708.25643  23863934.1804                   23863935.7584
 -10492158.107 7  -8161938.367 7  22721145.250
 -20440276.954 8 -15905854.837 8  20630634.211
  -4452856.816 6  -3451186.517 6  23920914.516
 -17872131.60148 -13851086.83045  21557830.2974                   21557830.6374
 -14870594.558 7 -11572094.328 7  21888829.336
 -12962045.404 7 -10084881.296 7  22104806.352
  -5623493.00347  -3700193.09443  24023305.2584                   24023305.1294
  -9118982.52247  -7057908.55644  22871161.7424                   22871160.4964
 11  8 15  3 50  0.0000000  0  9G18G25G29G12G26G05G15G21G02
  -3333078.71847  -2340321.05343  23848643.7584                   23848644.0864
 -10421953.483 7  -8107233.479 7  22734504.539
 -20484755.075 8 -15940513.090 8  20622170.063
  -4357647.838 6  -3376997.765 6  23939031.695
 -17922092.30948 -13890017.24845  21548322.9304                   21548323.2734
 -14792750.357 8 -11511436.497 7  21903641.977
 -13045761.628 7 -10150114.673 7  22088875.711
  -5683196.43447  -3746715.14744  24011944.3284                   24011944.2424
  -9064388.84647  -7015368.02944  22881550.5084                   22881549.3524
 11  8 15  3 50 30.0000000  0  9G18G25G29G12G26G05G15G21G02
  -3413217.41547  -2402766.70943  23833393.4694                   23833394.0204
 -10351477.613 7  -8052317.216 7  22747915.922
 -20528816.816 8 -15974846.895 7  20613785.164
  -4262452.345 7  -3302819.525 6  23957147.539
 -17971488.34348 -13928507.63445  21538922.8284                   21538923.0204
 -14714709.304 7 -11450625.304 7  21918492.750
 -13129184.699 8 -10215119.582 7  22073000.672
  -5742930.76647  -3793261.28344  24000577.2814                   24000577.0784
  -9009670.13747  -6972730.10244  22891963.7194                   22891961.6134
 11  8 15  3 51  0.0000000  0  9G18G25G29G12G26G05G15G21G02
  -3493139.64746  -2465043.70143  23818184.8834                   23818185.6884
 -10280732.854 7  -7997191.432 7  22761377.680
 -20572459.501 8 -16008854.179 8  20605480.477
  -4167271.968 7  -3228653.014 6  23975259.688
 -18020316.28148 -13966555.37245  21529631.1254                   21529632.0394
 -14636473.175 8 -11389662.086 7  21933380.867
 -13212310.795 7 -10279893.028 7  22057182.023
  -5802696.26947  -3839831.75344  23989203.5784                   23989204.5984
  -8954825.16747  -6929993.77144  22902399.9224                   22902398.2584
 11  8 15  3 51 30.0000000  0  9G18G25G29G12G26G05G15G21G02
  -3572844.96847  -2527151.65443  23803017.0314                   23803018.0044
 -10209722.364 7  -7941858.585 7  22774891.023
 -20615681.209 8 -16042533.422 8  20597255.609
  -4072109.849 7  -3154500.774 6  23993368.594
 -18068573.61948 -14004158.48145  21520448.2584                   21520448.5944
 -14558044.251 8 -11328548.641 7  21948304.953
 -13295137.201 7 -10344432.971 7  22041421.047
  -5862493.02747  -3886426.52144  23977824.6644                   23977825.7664
  -8899853.79547  -6887158.92644  22912860.5554                   22912858.9224
 11  8 15  3 52  0.0000000  0  9G18G25G29G12G26G05G15G21G02
  -3652332.36346  -2589089.80343  23787891.4064                   23787892.1484
 -10138449.209 7  -7886321.053 7  22788453.836
 -20658479.777 8 -16075882.947 8  20589111.508
  -3976969.002 6  -3080365.099 6  24011473.148
 -18116257.50148 -14041314.76145  21511374.3834                   21511375.1294
 -14479424.948 7 -11267286.826 7  21963266.406
 -13377660.830 7 -10408737.041 7  22025716.852
  -5922321.17747  -3933045.78744  23966439.5164                   23966440.7464
  -8844755.65547  -6844225.34744  22923345.3444                   22923343.9844
 11  8 15  3 52 30.0000000  0  9G18G25G29G12G26G05G15G21G02
  -3731601.59246  -2650857.97743  23772806.3914                   23772807.4734
 -10066916.987 7  -7830581.659 7  22802065.938
 -20700853.765 8 -16108901.619 8  20581047.586
  -3881852.250 6  -3006248.243 6  24029572.961
 -18163365.88648 -14078022.57045  21502409.7424                   21502410.0984
 -14400617.778 8 -11205878.649 7  21978262.414
 -13459879.410 7 -10472803.425 7  22010071.539
  -5982181.28347  -3979689.96044  23955048.4694                   23955049.5824
  -8789530.68147  -6801192.89844  22933854.4614                   22933852.6414
 11  8 15  3 53  0.0000000  0  9G18G25G29G12G26G05G15G21G02
  -3810651.34546  -2712455.10143  23757763.7894                   23757764.4184
  -9995128.424 7  -7774642.514 7  22815726.742
 -20742800.595 8 -16141587.452 8  20573065.375
  -3786762.546 7  -2932152.418 6  24047668.016
 -18209895.70047 -14114279.57245  21493555.5004                   21493556.0944
 -14321624.848 7 -11144325.727 7  21993294.531
 -13541789.137 8 -10536629.130 7  21994484.703
  -6042072.46147  -4026358.32443  23943651.4454                   23943652.2814
  -8734177.98347  -6758060.91544  22944387.3594                   22944386.3284
 11  8 15  3 53 30.0000000  0  9G18G25G29G12G26G05G15G21G02
  -3889480.81146  -2773880.60343  23742762.6884                   23742763.3594
  -9923086.406 7  -7718505.880 7  22829436.000
 -20784318.072 8 -16173938.727 8  20565164.828
  -3691702.202 7  -2858079.459 6  24065757.789
 -18255844.24448 -14150083.64945  21484812.2584                   21484812.1724
 -14242448.251 8 -11082629.678 7  22008361.445
 -13623386.898 8 -10600211.749 7  21978956.758
  -6101995.83647  -4073051.80443  23932248.1954                   23932248.3014
  -8678697.36547  -6714829.25844  22954945.2584                   22954943.4924
 11  8 15  3 54  0.0000000  0  9G18G25G29G12G26G05G15G21G02
  -3968089.33646  -2835133.90243  23727804.5554                   23727805.3164
  -9850794.292 7  -7662174.373 7  22843192.594
 -20825404.371 8 -16205954.020 8  20557346.766
  -3596674.123 7  -2784031.670 6  24083840.820
 -18301209.19948 -14185432.96445  21476179.1644                   21476179.5434
 -14163090.788 8 -11020792.703 7  22023462.195
 -13704669.859 8 -10663549.017 7  21963488.875
  -6161951.49647  -4119770.40543  23920839.2194                   23920839.2344
  -8623088.34947  -6671497.56544  22965526.8834                   22965525.7384
 11  8 15  3 54 30.0000000  0  9G18G25G29G12G26G05G15G21G02
  -4046475.92046  -2896214.28743  23712887.7894                   23712888.5784
  -9778255.299 7  -7605650.495 7  22856996.453
 -20866057.665 8 -16237631.903 8  20549610.430
  -3501681.644 7  -2710011.636 6  24101918.055
 -18345988.02848 -14220325.56645  21467658.1644                   21467658.2854
 -14083554.545 8 -10958816.403 7  22038597.828
 -13785635.307 7 -10726638.868 7  21948081.906
  -6221939.39847  -4166514.15043  23909422.9454                   23909423.3524
  -8567350.71147  -6628065.62744  22976133.4694                   22976132.3164
 11  8 15  3 55  0.0000000  0  9G18G25G29G12G26G05G15G21G02
  -4124639.81746  -2957121.16243  23698013.3204                   23698013.7774
  -9705471.939 7  -7548936.218 7  22870846.141
 -20906275.348 8 -16268970.355 8  20541957.367
  -3406727.037 7  -2636021.097 6  24119986.508
 -18390177.77348 -14254759.12845  21459249.1884                   21459249.5354
 -14003841.250 8 -10896702.149 7  22053766.805
 -13866279.864 7 -10789478.681 7  21932735.555
  -6281959.36947  -4213282.85944  23898002.4384                   23898002.2154
  -8511483.75447  -6584532.91044  22986764.9844                   22986763.4344
 11  8 15  3 55 30.0000000  0  9G18G25G29G12G26G05G15G21G02
  -4202580.18346  -3017853.82843  23683181.5164                   23683182.8444
  -9632447.849 7  -7492034.324 7  22884741.992
 -20946055.497 8 -16299967.873 8  20534387.641
  -3311813.259 7  -2562062.373 6  24138048.695
 -18433776.22648 -14288731.94145  21450952.4454                   21450953.1134
 -13923953.889 7 -10834452.247 7  22068968.508
 -13946600.669 8 -10852066.230 7  21917451.258
  -6342011.88547  -4260076.95544  23886574.5084                   23886574.6334
  -8455487.25447  -6540899.25244  22997420.2814                   22997419.3914
 11  8 15  3 56  0.0000000  0  9G18G25G29G12G26G05G15G21G02
  -4280296.79746  -3078412.15043  23668392.2034                   23668393.6914
  -9559186.414 7  -7434947.527 7  22898684.219
 -20985396.818 8 -16330623.439 8  20526901.203
  -3216943.503 7  -2488137.951 6  24156101.281
 -18476781.29448 -14322242.38745  21442768.9384                   21442769.9454
 -13843894.605 7 -10772068.395 7  22084203.750
 -14026594.928 8 -10914399.322 7  21902228.250
  -6402097.48047  -4306896.83444  23875140.9384                   23875140.2774
  -8399361.62847  -6497164.95744  23008100.4924                   23008099.2934
 11  8 15  3 56 30.0000000  0  9G18G25G29G12G26G05G15G21G02
  -4357788.15746  -3138794.97443  23653645.9694                   23653648.0664
  -9485690.133 7  -7377677.714 7  22912669.781
 -21024296.892 8 -16360935.179 8  20519498.391
  -3122119.937 6  -2414249.562 6  24174145.914
 -18519190.08348 -14355288.20045  21434698.7974                   21434699.4884
 -13763665.242 7 -10709552.018 7  22099470.609
 -14106259.529 7 -10976475.551 7  21887068.875
  -6462215.61347  -4353742.03844  23863700.5704                   23863700.9224
  -8343105.60547  -6453329.04944  23018805.7034                   23018805.0354
 11  8 15  3 57  0.0000000  0  9G18G25G29G12G26G05G15G21G02
  -4435054.15647  -3199002.17043  23638943.4304                   23638944.4024
  -9411962.640 7  -7320227.723 7  22926699.758
 -21062754.068 8 -16390901.802 8  20512180.414
  -3027345.770 6  -2340399.645 6  24192181.172
 -18561000.27648 -14387867.58245  21426742.6724                   21426742.9144
 -13683268.686 7 -10646905.328 7  22114769.641
 -14185591.867 8 -11038292.908 7  21871972.219
  -6522366.90047  -4400613.11044  23852254.1954                   23852254.0004
  -8286719.05747  -6409391.42944  23029535.8054                   23029534.8284
 11  8 15  3 57 30.0000000  0  9G18G25G29G12G26G05G15G21G02
  -4512093.73647  -3259032.94544  23624282.9144                   23624284.0164
  -9338006.484 7  -7262599.563 7  22940773.141
 -21100765.874 7 -16420521.390 8  20504947.008
  -2932623.465 6  -2266590.113 6  24210206.594
 -18602209.25347 -14419978.49945  21418901.2814                   21418901.3634
 -13602706.826 7 -10584129.860 7  22130099.984
 -14264588.328 8 -11099848.530 7  21856940.039
  -6582550.95147  -4447509.71444  23840800.9534                   23840801.2544
  -8230201.42947  -6365351.66944  23040290.4614                   23040289.7424
 11  8 15  3 58  0.0000000  0  9G18G25G29G12G26G05G15G21G02
  -4588905.29047  -3318886.00644  23609666.6414                   23609667.7544
  -9263824.358 7  -7204795.338 7  22954889.570
 -21138329.693 7 -16449791.894 8  20497798.852
  -2837955.226 6  -2192822.731 6  24228220.953
 -18642814.22447 -14451618.74945  21411174.0784                   21411174.3244
 -13521980.928 7 -10521226.560 7  22145462.141
 -14343245.450 8 -11161139.754 7  21841972.008
  -6642767.56147  -4494431.65144  23829342.1954                   23829342.8094
  -8173551.64347  -6321208.91644  23051071.2034                   23051069.5434
 11  8 15  3 58 30.0000000  0  9G18G25G29G12G26G05G15G21G02
  -4665488.90147  -3378561.47844  23595093.6484                   23595094.0004
  -9189420.149 7  -7146818.063 7  22969047.859
 -21175444.412 8 -16478712.447 8  20490736.281
  -2743344.537 6  -2119100.193 6  24246224.711
 -18682813.40848 -14482786.96145  21403562.3754                   21403563.1454
 -13441094.084 7 -10458197.856 7  22160854.063
 -14421561.368 8 -11222165.103 7  21827068.531
  -6703017.59447  -4541379.67444  23817877.2814                   23817877.6914
  -8116770.09047  -6276963.51344  23061876.1484                   23061874.6684
 11  8 15  3 59  0.0000000  0  9G18G25G29G12G26G05G15G21G02
  -4741844.47047  -3438059.24543  23580562.5314                   23580564.3484
  -9114797.356 7  -7088670.430 7  22983248.789
 -21212108.605 8 -16507281.932 8  20483759.008
  -2648794.489 6  -2045424.897 6  24264217.250
 -18722205.05448 -14513481.79045  21396066.6884                   21396067.0634
 -13360049.056 7 -10395045.876 7  22176276.758
 -14499533.387 8 -11282922.475 7  21812230.750
  -6763301.34647  -4588353.94944  23806405.5864                   23806405.7974
  -8059856.83147  -6232615.48344  23072706.2034                   23072705.1804
 11  8 15  3 59 30.0000000  0  9G18G25G29G12G26G05G15G21G02
  -4817970.18946  -3497377.87844  23566076.6334                   23566078.0354
  -9039958.007 7  -7030354.070 6  22997490.000
 -21248319.139 8 -16535497.939 8  20476868.414
  -2554306.426 6  -1971797.876 6  24282197.023
 -18760985.59347 -14543700.39345  21388686.7424                   21388687.1604
 -13278846.926 7 -10331771.478 7  22191728.477
 -14577157.292 7 -11343408.610 7  21797459.414
  -6823617.74247  -4635353.64544  23794927.8914                   23794927.8954
  -8002810.20347  -6188163.51044  23083561.5784                   23083560.0084
 11  8 15  4  0  0.0000000  0  9G18G25G29G12G26G05G15G21G02
  -4893865.73247  -3556517.19344  23551634.2664                   23551635.1294
  -8964905.797 7  -6971871.835 6  23011771.867
 -21284074.740 8 -16563359.440 8  20470064.445
  -2459884.101 6  -1898222.114 6  24300165.875
 -18799153.46848 -14573441.59345  21381423.6644                   21381424.2464
 -13197490.523 7 -10268376.876 7  22207209.977
 -14654430.684 8 -11403621.590 7  21782754.992
  -6883967.46847  -4682379.30644  23783443.8674                   23783443.6294
  -7945630.83647  -6143608.10744  23094442.6254                   23094440.8244
 11  8 15  4  0 30.0000000  0  9G18G25G29G12G26G05G15G21G02
  -4969530.31947  -3615476.50743  23537235.3054                   23537236.3014
  -8889643.701 7  -6913226.079 6  23026093.461
 -21319373.064 8 -16590864.622 8  20463347.367
  -2365529.879 7  -1824699.400 6  24318120.250
 -18836705.92348 -14602703.24045  21374277.4384                   21374278.0354
 -13115981.719 8 -10204863.518 7  22222720.938
 -14731350.636 8 -11463559.163 7  21768117.727
  -6944350.68947  -4729431.06644  23771952.8984                   23771952.6294
  -7888317.86947  -6098948.62944  23105349.0474                   23105347.2114
 11  8 15  4  1  0.0000000  0  9G18G25G29G12G26G05G15G21G02
  -5044963.21847  -3674255.31444  23522881.3754                   23522881.7154
  -8814174.728 7  -6854419.093 7  23040454.750
 -21354212.728 7 -16618012.398 8  20456717.609
  -2271246.345 7  -1751231.765 6  24336062.297
 -18873640.86647 -14631483.70545  21367249.3594                   21367249.9924
 -13034322.712 7 -10141233.117 7  22238260.023
 -14807914.242 8 -11523219.061 7  21753548.195
  -7004767.44747  -4776508.96744  23760455.8204                   23760455.9804
  -7830870.77347  -6054184.61744  23116281.1954                   23116279.0514
 11  8 15  4  1 30.0000000  0  9G18G25G29G12G26G05G15G21G02
  -5120164.05347  -3732853.26843  23508570.8754                   23508571.9024
  -8738502.247 7  -6795453.553 6  23054855.078
 -21388591.210 8 -16644800.820 8  20450175.266
  -2177036.214 6  -1677821.304 6  24353989.898
 -18909956.51148 -14659781.60845  21360338.9224                   21360338.8284
 -12952515.742 7 -10077487.413 7  22253827.461
 -14884118.692 8 -11582599.102 7  21739046.445
  -7065217.76947  -4823613.03744  23748953.3754                   23748952.4924
  -7773289.64647  -6009316.15444  23127238.0864                   23127236.2504
 11  8 15  4  2  0.0000000  0  9G18G25G29G12G26G05G15G21G02
  -5195131.79847  -3791269.57143  23494304.5864                   23494305.9614
  -8662629.082 7  -6736331.624 6  23069293.078
 -21422507.284 7 -16671228.914 8  20443721.508
  -2082902.330 7  -1604470.269 6  24371902.891
 -18945650.09047 -14687594.78645  21353546.4144                   21353546.7894
 -12870562.777 7 -10013627.967 7  22269422.258
 -14959960.968 8 -11641696.956 7  21724614.023
  -7125701.53947  -4870743.15644  23737443.0704                   23737442.7424
  -7715573.49547  -5964342.53344  23138221.5234                   23138219.5664
 11  8 15  4  2 30.0000000  0  9G18G25G29G12G26G05G15G21G02
  -5269866.14946  -3849504.07643  23480083.2734                   23480084.3094
  -8586558.581 7  -6677055.963 6  23083769.156
 -21455959.045 8 -16697295.212 8  20437355.906
  -1988847.295 7  -1531180.712 6  24389801.211
 -18980719.98248 -14714921.97845  21346873.0394                   21346873.3094
 -12788466.415 7  -9949656.762 7  22285044.766
 -15035438.398 8 -11700510.482 7  21710251.492
  -7186219.02647  -4917899.55544  23725927.1484                   23725926.2274
  -7657722.38547  -5919263.68944  23149229.6644                   23149228.2814
 11  8 15  4  3  0.0000000  0  9G18G25G29G12G26G05G15G21G02
  -5344366.58046  -3907556.23243  23465906.1644                   23465906.9104
  -8510294.360 7  -6617629.292 6  23098281.844
 -21488944.774 8 -16722998.362 8  20431078.680
  -1894874.394 6  -1457955.138 6  24407683.711
 -19015164.29548 -14741761.68545  21340318.3524                   21340318.7774
 -12706228.992 7  -9885575.653 7  22300694.164
 -15110548.438 8 -11759037.783 7  21695958.539
  -7246770.76046  -4965082.62644  23714404.0784                   23714403.5204
  -7599736.23846  -5874079.64244  23160263.2734                   23160262.1454
 11  8 15  4  3 30.0000000  0  9G18G25G29G12G26G05G15G21G02
  -5418631.50146  -3965424.90343  23451774.2584                   23451774.4414
  -8433838.448 7  -6558053.271 6  23112830.305
 -21521461.890 8 -16748336.370 8  20424891.164
  -1800985.220 6  -1384794.787 6  24425550.719
 -19048979.93548 -14768111.52745  21333883.4304                   21333883.8554
 -12623851.993 8  -9821385.774 7  22316369.984
 -15185287.373 8 -11817275.878 7  21681736.258
  -7307355.62247  -5012291.55344  23702875.3914                   23702874.7034
  -7541613.72347  -5828789.36144  23171324.2584                   23171322.7274
 11  8 15  4  4  0.0000000  0  9G18G25G29G12G26G05G15G21G02
  -5492660.89247  -4023110.06743  23437686.9844                   23437687.1454
  -8357194.467 7  -6498330.720 6  23127414.969
 -21553508.931 8 -16773308.080 8  20418792.828
  -1707182.773 6  -1311702.054 6  24443399.805
 -19082165.26748 -14793970.23145  21327568.3364                   21327568.6024
 -12541337.694 7  -9757088.911 7  22332072.055
 -15259652.523 8 -11875222.719 7  21667585.078
  -7367973.79547  -5059526.41444  23691339.4064                   23691339.3754
  -7483354.74547  -5783392.72844  23182410.5944                   23182409.1094
 11  8 15  4  4 30.0000000  0  9G18G25G29G12G26G05G15G21G02
  -5566454.99247  -4080611.87444  23423643.9384                   23423644.2424
  -8280366.146 7  -6438464.511 7  23142035.695
 -21585084.761 8 -16797912.602 8  20412783.664
  -1613470.388 6  -1238679.464 6  24461232.117
 -19114719.02448 -14819336.77845  21321373.6564                   21321374.3834
 -12458688.911 7  -9692687.249 7  22347799.289
 -15333641.680 8 -11932876.615 7  21653505.289
  -7428626.18347  -5106787.92544  23679797.7894                   23679797.7974
  -7424959.80347  -5737890.17344  23193523.1804                   23193521.3674
 11  8 15  4  5  0.0000000  0  9G18G25G29G12G26G05G15G21G02
  -5640011.98247  -4137928.88743  23409645.7194                   23409647.1134
  -8203355.586 7  -6378456.271 7  23156690.320
 -21616186.523 8 -16822147.729 8  20406865.609
  -1519849.881 6  -1165728.537 6  24479048.031
 -19146638.11648 -14844208.80545  21315299.5004                   21315300.3714
 -12375906.556 7  -9628181.517 7  22363552.320
 -15407250.850 8 -11990234.395 7  21639498.359
  -7489311.52947  -5154075.11944  23668249.7894                   23668249.7934
  -7366427.32047  -5692280.43544  23204661.0864                   23204659.9574
 11  8 15  4  5 30.0000000  0  9G18G25G29G12G26G05G15G21G02
  -5713331.93847  -4195061.22043  23395693.9064                   23395694.0704
  -8126166.572 7  -6318309.010 7  23171378.852
 -21646813.213 8 -16846012.677 8  20401037.297
  -1426324.241 6  -1092851.485 6  24496846.203
 -19177921.23448 -14868585.25445  21309346.7424                   21309346.9574
 -12292993.712 7  -9563574.076 7  22379330.305
 -15480478.147 8 -12047294.602 7  21625563.258
  -7550031.02247  -5201388.94344  23656695.6564                   23656695.0984
  -7307757.64447  -5646563.78444  23215825.2814                   23215824.4414
 11  8 15  4  6  0.0000000  0  9G18G25G29G12G26G05G15G21G02
  -5786413.68247  -4252007.91543  23381786.9614                   23381787.0664
  -8048801.825 7  -6258024.824 7  23186100.352
 -21676962.495 8 -16869505.609 8  20395300.180
  -1332895.646 6  -1020050.073 6  24514625.148
 -19208565.68347 -14892464.03945  21303514.8134                   21303515.5164
 -12209951.789 7  -9498866.084 7  22395132.320
 -15553320.410 8 -12104054.795 7  21611701.711
  -7610784.23747  -5248729.02644  23645133.6954                   23645133.6604
  -7248950.05646  -5600739.70844  23227015.6334                   23227014.7344
 11  8 15  4  6 30.0000000  0  9G18G25G29G12G26G05G15G21G02
  -5859257.24747  -4308769.06444  23367925.2034                   23367925.5594
  -7971265.142 7  -6197606.624 7  23200855.023
 -21706633.343 8 -16892625.730 8  20389654.164
  -1239567.251 6   -947326.784 6  24532385.031
 -19238570.70647 -14915844.56245  21297805.1804                   21297805.8914
 -12126783.618 7  -9434059.706 7  22410958.469
 -15625775.393 8 -12160513.196 7  21597913.992
  -7671571.56047  -5296095.67944  23633566.2584                   23633566.3954
  -7190004.73646  -5554808.30744  23238233.1254                   23238231.4534
 11  8 15  4  7  0.0000000  0  9G18G25G29G12G26G05G15G21G02
  -5931861.64347  -4365343.82744  23354108.9774                   23354109.0474
  -7893558.964 7  -6137056.370 7  23215642.906
 -21735823.161 8 -16915371.039 8  20384099.383
  -1146341.286 6   -874683.277 6  24550125.734
 -19267933.49747 -14938724.66145  21292217.8054                   21292218.1844
 -12043490.806 8  -9369156.210 7  22426809.055
 -15697839.631 8 -12216667.130 7  21584200.586
  -7732392.23046  -5343488.31144  23621992.8054                   23621992.3444
  -7130920.60946  -5508768.76944  23249477.1644                   23249474.9804
 11  8 15  4  7 30.0000000  0  9G18G25G29G12G26G05G15G21G02
  -6004226.55447  -4421731.96844  23340338.5704                   23340338.9734
  -7815686.677 7  -6076376.672 7  23230461.281
 -21764530.706 8 -16937740.536 8  20378636.742
  -1053220.546 6   -802121.745 6  24567845.469
 -19296652.34848 -14961102.96945  21286752.5004                   21286753.2974
 -11960075.326 7  -9304157.144 7  22442682.406
 -15769510.512 8 -12272514.545 7  21570561.977
  -7793246.56047  -5390907.21044  23610412.3754                   23610412.3324
  -7071697.47046  -5462620.91044  23260746.3984                   23260745.3134
 11  8 15  4  8  0.0000000  0  9G18G25G29G12G26G05G15G21G02
  -6076351.20847  -4477932.88844  23326613.5084                   23326614.0394
  -7737651.423 7  -6015569.979 7  23245311.039
 -21792754.484 8 -16959733.082 8  20373265.523
   -960207.658 6   -729644.248 6  24585546.031
 -19324725.61247 -14982978.21545  21281410.7734                   21281411.2274
 -11876539.625 7  -9239064.399 7  22458578.719
 -15840785.342 8 -12328053.359 7  21556998.828
  -7854134.42147  -5438352.20644  23598825.4774                   23598826.0824
  -7012335.14946  -5416364.58144  23272042.4224                   23272041.2274
 11  8 15  4  8 30.0000000  0  9G18G25G29G12G26G05G15G21G02
  -6148234.96847  -4533946.08044  23312933.6954                   23312934.7974
  -7659456.109 7  -5954638.581 6  23260191.289
 -21820492.341 8 -16981346.987 8  20367987.227
   -867304.911 6   -657252.620 6  24603223.961
 -19352151.35147 -15004348.92345  21276191.6024                   21276191.9614
 -11792885.257 7  -9173879.169 7  22474497.836
 -15911661.125 8 -12383281.220 7  21543511.352
  -7915055.64447  -5485823.22244  23587232.6564                   23587232.9024
  -6952833.15246  -5369999.42044  23283365.7504                   23283364.4494
 11  8 15  4  9  0.0000000  0  9G18G25G29G12G26G05G15G21G02
  -6219877.87447  -4589771.61344  23299301.4454                   23299301.2074
  -7581104.340 7  -5893585.266 6  23275100.750
 -21847743.087 8 -17002581.320 8  20362801.766
   -774515.359 6   -584949.117 6  24620882.617
 -19378928.02347 -15025213.85445  21271095.9064                   21271096.9884
 -11709114.931 8  -9108603.585 7  22490438.492
 -15982135.524 8 -12438196.306 7  21530100.734
  -7976010.58647  -5533320.52444  23575633.6644                   23575633.2464
  -6893191.42446  -5323525.35044  23294714.5554                   23294713.2194
 11  8 15  4  9 30.0000000  0  9G18G25G29G12G26G05G15G21G02
  -6291279.10147  -4645408.83944  23285713.9694                   23285713.9414
  -7502599.133 7  -5832412.332 6  23290039.609
 -21874505.082 8 -17023434.815 8  20357708.617
   -681841.366 6   -512735.701 6  24638516.750
 -19405053.89048 -15045571.65945  21266124.4224                   21266124.8984
 -11625230.565 7  -9043239.132 7  22506401.148
 -16052205.682 8 -12492796.386 7  21516766.547
  -8036998.90047  -5580843.80144  23564027.8524                   23564028.1094
  -6833409.39246  -5276941.99844  23306090.8594                   23306089.9494
 11  8 15  4 10  0.0000000  0  9G18G25G29G12G26G05G15G21G02
  -6362438.42747  -4700857.57444  23272172.8674                   23272172.8674
  -7423943.496 7  -5771122.218 6  23305006.734
 -21900776.566 8 -17043906.086 8  20352709.805
   -589285.575 6   -440614.371 6  24656129.508
 -19430527.36248 -15065421.10345  21261276.4304                   21261277.1214
 -11541234.161 7  -8977787.374 7  22522385.070
 -16121869.060 8 -12547079.510 7  21503510.492
  -8098020.88547  -5628393.30944  23552415.8134                   23552415.2304
  -6773486.78247  -5230249.10944  23317494.3444                   23317492.7074
 11  8 15  4 10 30.0000000  0  9G18G25G29G12G26G05G15G21G02
  -6433354.92747  -4756117.07144  23258677.1884                   23258677.6484
  -7345140.341 7  -5709717.174 6  23320003.000
 -21926555.576 8 -17063993.622 8  20347804.148
   -496850.121 6   -368586.845 6  24673720.484
 -19455346.24348 -15084760.48045  21256554.2974                   21256554.5554
 -11457127.542 7  -8912249.765 7  22538389.609
 -16191122.485 8 -12601043.188 7  21490331.648
  -8159075.79047  -5675968.49944  23540797.1174                   23540796.2734
  -6713422.79747  -5183446.02344  23328924.4694                   23328922.7584
 11  8 15  4 11  0.0000000  0  9G18G25G29G12G26G05G15G21G02
  -6504027.76547  -4811186.68644  23245229.0394                   23245229.1684
  -7266192.500 7  -5648199.325 6  23335026.594
 -21951840.479 8 -17083696.124 8  20342992.797
   -404537.340 6   -296654.956 6  24691286.164
 -19479508.53548 -15103588.22245  21251956.3054                   21251956.4694
 -11372912.277 7  -8846627.500 7  22554415.484
 -16259962.904 8 -12654685.043 7  21477231.430
  -8220163.75047  -5723569.42744  23529172.3444                   23529171.5124
  -6653217.21547  -5136532.61444  23340380.8134                   23340379.3484
 11  8 15  4 11 30.0000000  0  9G18G25G29G12G26G05G15G21G02
  -6574457.03447  -4866066.53144  23231826.2114                   23231826.5984
  -7187103.724 7  -5586571.698 6  23350076.156
 -21976630.059 8 -17103012.667 8  20338275.328
   -312350.498 6   -224821.164 6  24708829.852
 -19503013.57448 -15121903.80845  21247483.2194                   21247483.7894
 -11288590.966 7  -8780922.583 7  22570461.445
 -16328388.213 8 -12708003.436 7  21464210.898
  -8281284.95847  -5771196.25544  23517541.1644                   23517541.0784
  -6592869.74447  -5089508.60944  23351864.1024                   23351863.0514
 11  8 15  4 12  0.0000000  0  9G18G25G29G12G26G05G15G21G02
  -6644642.52147  -4920756.42744  23218470.8204                   23218470.7424
  -7107877.113 7  -5524836.645 6  23365152.828
 -22000922.761 8 -17121942.044 8  20333652.602
   -220291.959 6   -153087.348 5  24726346.977
 -19525859.51848 -15139705.82845  21243135.9064                   21243136.3484
 -11204165.714 7  -8715136.670 7  22586527.398
 -16396395.797 8 -12760996.321 7  21451269.234
  -8342439.22647  -5818848.89244  23505904.2274                   23505903.7074
  -6532380.14747  -5042373.89044  23363375.5864                   23363374.3284
 11  8 15  4 12 30.0000000  0  9G18G25G29G12G26G05G15G21G02
  -6714579.65247  -4975252.78144  23205161.8524                   23205162.1294
  -7028511.998 7  -5462993.658 6  23380255.430
 -22024713.304 8 -17140480.119 8  20329125.367
   -128360.490 5    -81452.551 5  24743841.445
 -19548041.07047 -15156990.13345  21238914.7584                   21238915.8444
 -11119634.729 7  -8649268.357 7  22602612.820
 -16463979.194 8 -12813658.666 7  21438408.445
  -8403622.65247  -5866524.21144  23494261.1484                   23494260.7544
  -6471744.57247  -4995125.45344  23374914.1174                   23374912.1994
 11  8 15  4 13  0.0000000  0  8G18G25G29G26G05G15G21G02
  -6784274.33447  -5029560.21344  23191899.3674                   23191899.9454
  -6949017.765 7  -5401050.095 6  23395382.531
 -22048006.172 8 -17158630.395 8  20324692.570
 -19569562.93447 -15173760.38945  21234819.1564                   21234819.9804
 -11035006.189 7  -8583324.046 7  22618716.906
 -16531142.049 8 -12865993.314 7  21425628.336
  -8464841.81447  -5914227.40444  23482611.5234                   23482611.5004
  -6410968.93947  -4947767.81044  23386479.1174                   23386477.6294
 11  8 15  4 13 30.0000000  0  8G18G25G29G26G05G15G21G02
  -6853723.95347  -5083676.70144  23178683.9534                   23178683.8284
  -6869395.303 7  -5339006.544 7  23410534.320
 -22070798.064 8 -17176390.308 8  20320355.633
 -19590421.58947 -15190013.87245  21230850.5474                   21230850.6374
 -10950279.777 7  -8517303.464 7  22634840.078
 -16597879.549 8 -12917996.520 7  21412928.266
  -8526093.94847  -5961956.27344  23470955.8204                   23470955.3324
  -6350050.39147  -4900298.84944  23398071.7034                   23398069.7934
 11  8 15  4 14  0.0000000  0  8G18G25G29G26G05G15G21G02
  -6922927.22147  -5137601.25244  23165514.0944                   23165514.1644
  -6789647.007 7  -5276864.968 6  23425710.078
 -22093086.483 8 -17193757.895 8  20316114.508
 -19610614.64448 -15205748.70945  21227007.6414                   21227007.8794
 -10865456.768 7  -8451207.591 6  22650981.336
 -16664188.517 8 -12969665.803 7  21400310.117
  -8587378.12147  -6009710.11744  23459293.6954                   23459293.3054
  -6288988.27047  -4852718.01944  23409690.9774                   23409690.2544
 11  8 15  4 14 30.0000000  0  8G18G25G29G26G05G15G21G02
  -6991884.41046  -5191334.01344  23152392.2734                   23152392.0784
  -6709776.237 7  -5214627.979 6  23440909.086
 -22114870.109 8 -17210732.144 8  20311969.305
 -19630141.04948 -15220964.06245  21223291.4144                   21223291.7344
 -10780539.623 7  -8385038.389 6  22667140.102
 -16730066.408 8 -13020999.193 7  21387773.961
  -8648694.85847  -6057489.32444  23447625.1094                   23447624.4774
  -6227782.38047  -4805025.14744  23421338.5084                   23421337.2854
 11  8 15  4 15  0.0000000  0  8G18G25G29G26G05G15G21G02
  -7060594.25247  -5244874.04544  23139317.0474                   23139317.3554
  -6629785.449 7  -5152297.470 6  23456130.438
 -22136146.674 8 -17227311.273 8  20307920.016
 -19648998.69647 -15235658.32945  21219703.3054                   21219703.0354
 -10695529.446 7  -8318796.648 7  22683317.500
 -16795509.690 8 -13071993.922 7  21375320.500
  -8710043.25247  -6105293.22244  23435950.8444                   23435949.7384
  -6166431.27547  -4757219.16244  23433013.0864                   23433011.7584
 11  8 15  4 15 30.0000000  0  8G18G25G29G26G05G15G21G02
  -7129057.24447  -5298221.73744  23126289.4844                   23126288.8284
  -6549678.883 7  -5089876.705 6  23471374.664
 -22156916.284 8 -17243495.379 8  20303968.352
 -19667187.28548 -15249831.23645  21216242.0234                   21216242.6484
 -10610429.446 7  -8252484.980 7  22699512.023
 -16860517.391 8 -13122649.227 7  21362949.563
  -8771424.29247  -6153122.54144  23424270.8134                   23424270.0594
  -6104936.13546  -4709300.89843  23444714.9384                   23444713.1134
 11  8 15  4 16  0.0000000  0  8G18G25G29G26G05G15G21G02
  -7197272.49347  -5351376.41744  23113307.9924                   23113307.7384
  -6469459.100 7  -5027367.784 6  23486639.906
 -22177177.132 8 -17259283.046 8  20300112.508
 -19684705.20448 -15263481.54645  21212908.3754                   21212908.8164
 -10525240.760 7  -8186104.178 7  22715722.461
 -16925086.179 7 -13172962.524 7  21350662.727
  -8832837.00047  -6200976.57144  23412584.4844                   23412582.7304
  -6043296.00346  -4661269.66143  23456444.8914                   23456443.2894
 11  8 15  4 16 30.0000000  0  8G18G25G29G26G05G15G21G02
  -7265239.81647  -5404337.87944  23100374.6094                   23100374.4144
  -6389129.599 7  -4964773.284 6  23501925.922
 -22196927.828 8 -17274673.192 8  20296354.023
 -19701551.30748 -15276608.35145  21209703.0084                   21209703.2154
 -10439965.819 7  -8119656.176 7  22731949.836
 -16989213.918 8 -13222932.169 7  21338460.078
  -8894281.55547  -6248855.37844  23400892.0474                   23400890.5474
  -5981510.92846  -4613125.48044  23468202.3674                   23468200.7344
 11  8 15  4 17  0.0000000  0  8G18G25G29G26G05G15G21G02
  -7332958.92147  -5457105.92444  23087487.4774                   23087487.7504
  -6308692.687 7  -4902095.170 6  23517232.422
 -22216166.319 8 -17289664.227 8  20292693.047
 -19717723.76047 -15289210.24745  21206625.3984                   21206625.3914
 -10354606.039 7  -8053142.067 7  22748192.984
 -17052897.290 8 -13272555.533 7  21326341.078
  -8955757.58447  -6296758.72644  23389193.0164                   23389191.9064
  -5919579.77747  -4564867.47144  23479987.9224                   23479986.6134
 11  8 15  4 17 30.0000000  0  8G18G25G29G26G05G15G21G02
  -7400428.63047  -5509679.65144  23074648.9304                   23074648.2034
  -6228151.152 7  -4839335.492 6  23532558.711
 -22234890.655 8 -17304254.610 8  20289129.734
 -19733220.76048 -15301285.80945  21203676.1254                   21203676.6484
 -10269162.714 7  -7986562.857 7  22764452.336
 -17116133.286 8 -13321830.287 7  21314308.164
  -9017264.32747  -6344685.99544  23377488.4844                   23377487.7734
  -5857501.93147  -4516495.16944  23491800.1884                   23491799.1884
 11  8 15  4 18  0.0000000  0  8G18G25G29G26G05G15G21G02
  -7467649.38447  -5562059.37444  23061856.8914                   23061856.3594
  -6147508.989 7  -4776497.411 7  23547903.813
 -22253100.615 8 -17318444.190 8  20285664.625
 -19748042.19248 -15312834.96545  21200856.3834                   21200856.0394
 -10183638.774 7  -7919920.830 7  22780727.016
 -17178920.396 8 -13370755.289 7  21302359.859
  -9078802.53047  -6392637.79244  23365777.8364                   23365778.0314
  -5795277.90846  -4468008.95843  23503641.4454                   23503640.3094
 11  8 15  4 18 30.0000000  0  8G18G25G29G26G05G15G21G02
  -7534620.94947  -5614244.94544  23049112.5634                   23049112.4454
  -6066769.263 7  -4713583.309 7  23563268.047
 -22270795.007 8 -17332232.025 8  20282297.406
 -19762186.87148 -15323856.77645  21198164.2194                   21198164.5944
 -10098036.079 7  -7853217.409 6  22797016.906
 -17241256.396 8 -13419328.752 7  21290497.234
  -9140371.58947  -6440613.64844  23354062.0084                   23354061.5514
  -5732907.56146  -4419408.74743  23515510.3134                   23515508.9654
 11  8 15  4 19  0.0000000  0  8G18G25G29G26G05G15G21G02
  -7601342.62547  -5666235.79944  23036415.6954                   23036415.5164
  -5985934.689 7  -4650595.296 7  23578650.820
 -22287971.852 8 -17345616.589 8  20279028.813
 -19775653.29948 -15334350.08245  21195601.5164                   21195602.0394
 -10012356.031 7  -7786453.751 7  22813321.172
 -17303138.091 8 -13467548.217 7  21278722.133
  -9201971.28547  -6488613.36644  23342339.7584                   23342339.2934
  -5670390.15446  -4370693.89944  23527406.4454                   23527405.4694
 11  8 15  4 19 30.0000000  0  8G18G25G29G26G05G15G21G02
  -7667814.16147  -5718031.71444  23023766.5634                   23023766.4694
  -5905008.579 7  -4587535.963 7  23594050.438
 -22304630.111 8 -17358597.045 8  20275858.789
 -19788440.38348 -15344314.02645  21193168.4144                   21193168.7664
  -9926600.823 7  -7719631.488 7  22829639.828
 -17364563.387 8 -13515412.057 7  21267032.883
  -9263601.59947  -6536636.91144  23330611.7424                   23330611.8404
  -5607725.52047  -4321864.37744  23539331.9384                   23539330.4414
 11  8 15  4 20  0.0000000  0  8G18G25G29G26G05G15G21G02
  -7734035.32047  -5769632.56744  23011165.3284                   23011165.0044
  -5823993.932 7  -4524407.632 7  23609467.141
 -22320768.304 8 -17371172.267 8  20272787.961
 -19800547.22848 -15353747.90845  21190864.3984                   21190864.7814
  -9840772.141 7  -7652751.991 7  22845972.711
 -17425529.827 8 -13562918.345 7  21255431.453
  -9325262.20847  -6584684.07944  23318878.5634                   23318878.4734
  -5544913.31846  -4272919.85544  23551284.3594                   23551283.7664
 11  8 15  4 20 30.0000000  0  8G18G25G29G26G05G15G21G02
  -7800005.45147  -5821037.82044  22998611.4144                   22998611.0314
  -5742893.614 6  -4461212.593 6  23624899.859
 -22336385.164 8 -17383341.253 8  20269816.023
 -19811972.50948 -15362650.71445  21188690.0864                   21188690.9024
  -9754871.487 7  -7585816.434 7  22862318.125
 -17486034.608 8 -13610064.897 7  21243917.977
  -9386952.53447  -6632754.39644  23307138.5864                   23307138.1254
  -5481953.14846  -4223860.01944  23563265.6414                   23563264.2894
 11  8 15  4 21  0.0000000  0  8G18G25G29G26G05G15G21G02
  -7865724.66847  -5872247.54944  22986104.9694                   22986104.9454
  -5661710.970 7  -4397953.363 6  23640348.430
 -22351479.876 8 -17395103.377 8  20266943.797
 -19822715.57348 -15371021.91345  21186645.9774                   21186645.8054
  -9668901.243 7  -7518826.646 7  22878678.211
 -17546075.779 8 -13656850.200 7  21232492.203
  -9448672.78447  -6680848.04644  23295393.9774                   23295393.4694
  -5418845.08346  -4174684.93744  23575274.3054                   23575273.2114
 11  8 15  4 21 30.0000000  0  8G18G25G29G26G05G15G21G02
  -7931192.31847  -5923261.23444  22973646.8914                   22973647.1334
  -5580448.669 7  -4334632.059 6  23655811.984
 -22366049.953 8 -17406456.688 8  20264171.398
 -19832774.99348 -15378860.41545  21184731.5234                   21184731.8834
  -9582862.926 7  -7451783.800 7  22895051.125
 -17605650.445 8 -13703272.002 7  21221155.461
  -9510421.66347  -6728964.00944  23283643.4614                   23283643.1214
  -5355588.07246  -4125393.80444  23587312.1174                   23587310.8554
 11  8 15  4 22  0.0000000  0  8G18G25G29G26G05G15G21G02
  -7996408.26247  -5974078.80244  22961236.7974                   22961236.8954
  -5499110.049 7  -4271251.263 6  23671290.383
 -22380095.287 8 -17417401.105 8  20261498.125
 -19842150.05048 -15386165.63945  21182947.3204                   21182947.7464
  -9496758.196 7  -7384689.237 7  22911435.180
 -17664756.425 8 -13749328.586 7  21209907.742
  -9572200.27447  -6777103.13744  23271887.6254                   23271886.5164
  -5292182.07846  -4075986.57344  23599377.8284                   23599376.3164
 11  8 15  4 22 30.0000000  0  8G18G25G29G26G05G15G21G02
  -8061372.71747  -6024700.42144  22948874.4064                   22948874.6054
  -5417698.233 7  -4207813.474 6  23686782.430
 -22393614.558 8 -17427935.613 8  20258925.820
 -19850839.98748 -15392937.00645  21181293.8054                   21181294.3404
  -9410589.200 7  -7317544.562 6  22927833.391
 -17723391.238 8 -13795018.020 7  21198750.180
  -9634007.97847  -6825264.96644  23260125.7814                   23260124.7734
  -5228627.24446  -4026463.37444  23611470.7974                   23611470.6994
 11  8 15  4 23  0.0000000  0  8G18G25G29G26G05G15G21G02
  -8126085.31647  -6075125.77244  22936559.8134                   22936560.6174
  -5336216.605 7  -4144321.230 6  23702288.344
 -22406607.559 8 -17438060.023 8  20256453.125
 -19858844.34247 -15399174.15045  21179770.6804                   21179771.6804
  -9324358.022 7  -7250351.461 6  22944242.930
 -17781553.329 8 -13840339.132 7  21187682.227
  -9695844.71347  -6873449.39044  23248358.6884                   23248357.5354
  -5164923.29447  -3976823.95844  23623594.6414                   23623593.0664
 11  8 15  4 23 30.0000000  0  8G18G25G29G26G05G15G21G02
  -8190545.32147  -6125354.30844  22924293.9384                   22924293.9264
  -5254667.578 7  -4080776.502 6  23717806.273
 -22419071.517 8 -17447772.204 8  20254081.234
 -19866161.56648 -15404875.86045  21178378.4694                   21178378.7384
  -9238065.979 7  -7183110.882 6  22960663.758
 -17839239.476 8 -13885289.374 7  21176704.969
  -9757709.64447  -6921655.77344  23236586.1024                   23236584.7704
  -5101069.71346  -3927067.98944  23635745.3134                   23635744.3134
 11  8 15  4 24  0.0000000  0  8G18G25G29G26G05G15G21G02
  -8254752.60947  -6175385.91644  22912075.7894                   22912075.7114
  -5173054.469 7  -4017181.869 6  23733336.578
 -22431005.871 8 -17457071.702 8  20251810.555
 -19872791.23447 -15410041.82945  21177117.1804                   21177117.1884
  -9151715.136 7  -7115824.502 7  22977095.867
 -17896447.599 8 -13929867.133 7  21165818.406
  -9819602.68547  -6969884.10244  23224808.0314                   23224807.0634
  -5037066.09746  -3877195.13544  23647925.1414                   23647923.9024
 11  8 15  4 24 30.0000000  0  8G18G25G29G26G05G15G21G02
  -8318706.96847  -6225220.44744  22899905.6024                   22899905.2504
  -5091380.168 7  -3953539.495 6  23748879.203
 -22442409.327 8 -17465957.517 8  20249640.430
 -19878732.17147 -15414671.10445  21175985.8674                   21175986.5664
  -9065306.739 7  -7048493.296 6  22993538.789
 -17953175.189 8 -13974070.438 7  21155023.789
  -9881523.45547  -7018133.98944  23213024.7344                   23213023.8594
  -4972912.08746  -3827205.03644  23660132.6094                   23660131.8364
 11  8 15  4 25  0.0000000  0  8G18G25G29G26G05G15G21G02
  -8382407.86347  -6274857.45944  22887783.4844                   22887783.5784
  -5009647.349 7  -3889851.573 6  23764431.898
 -22453280.486 8 -17474428.542 8  20247571.875
 -19883983.47147 -15418763.00545  21174986.6484                   21174987.3244
  -8978842.288 7  -6981118.394 6  23009992.477
 -18009419.924 8 -14017897.485 7  21144320.633
  -9943471.22547  -7066404.96744  23201236.5634                   23201235.3594
  -4908606.92347  -3777097.16144  23672369.7734                   23672368.9494
 11  8 15  4 25 30.0000000  0  8G18G25G29G26G05G15G21G02
  -8445855.85947  -6324297.44644  22875710.1174                   22875709.7544
  -4927859.768 7  -3826120.942 6  23779996.273
 -22463619.073 8 -17482484.589 8  20245604.406
 -19888545.14848 -15422317.55345  21174118.8134                   21174119.2464
  -8892324.595 7  -6913702.047 6  23026455.773
 -18065179.987 8 -14061346.868 7  21133710.219
 -10005446.45147  -7114697.30244  23189443.3054                   23189442.2544
  -4844151.19247  -3726871.96544  23684635.6564                   23684633.9304
 11  8 15  4 26  0.0000000  0  8G18G25G29G26G05G15G21G02
  -8509050.15047  -6373539.72644  22863684.4224                   22863683.6994
  -4846020.008 7  -3762349.682 6  23795568.977
 -22473423.561 8 -17490124.446 8  20243738.445
 -19892416.00548 -15425333.78845  21173381.8834                   21173382.1214
  -8805754.931 7  -6846245.175 6  23042929.570
 -18120452.897 8 -14104416.634 7  21123191.672
 -10067448.30047  -7163010.40844  23177644.4304                   23177644.1684
  -4779544.10647  -3676528.89044  23696930.4454                   23696928.7934
 11  8 15  4 26 30.0000000  0  8G18G25G29G26G05G15G21G02
  -8571990.67047  -6422584.23944  22851706.7344                   22851706.3594
  -4764131.144 7  -3698540.173 6  23811152.641
 -22482692.863 8 -17497347.275 8  20241974.898
 -19895595.79848 -15427811.52145  21172777.0944                   21172777.2234
  -8719134.726 7  -6778748.932 7  23059412.945
 -18175236.028 8 -14147104.756 7  21112766.875
 -10129476.53447  -7211344.05644  23165840.8134                   23165840.7154
  -4714785.71946  -3626067.81444  23709252.5554                   23709251.3984
 11  8 15  4 27  0.0000000  0  8G18G25G29G26G05G15G21G02
  -8634677.43047  -6471431.06244  22839778.1724                   22839777.3484
  -4682196.292 7  -3634694.808 6  23826743.750
 -22491426.048 8 -17504152.349 8  20240312.992
 -19898083.65847 -15429750.10145  21172303.0864                   21172304.3284
  -8632465.894 7  -6711214.792 6  23075905.766
 -18229527.660 8 -14189409.894 7  21102435.281
 -10191530.90947  -7259698.07044  23154032.2894                   23154031.7774
  -4649875.88747  -3575488.76144  23721605.0474                   23721603.8284
 11  8 15  4 27 30.0000000  0  8G18G25G29G26G05G15G21G02
  -8697110.00447  -6520079.78744  22827897.1884                   22827897.5864
  -4600218.326 7  -3570815.888 6  23842343.492
 -22499622.152 8 -17510538.917 8  20238753.281
 -19899879.04048 -15431149.08145  21171961.9534                   21171962.4384
  -8545750.115 7  -6643644.067 6  23092407.352
 -18283325.349 8 -14231330.150 7  21092198.117
 -10253610.77847  -7308071.96444  23142218.7894                   23142217.6724
  -4584813.96347  -3524791.12444  23733985.7274                   23733985.0744
 11  8 15  4 28  0.0000000  0  8G18G25G29G26G05G15G21G02
  -8759288.69247  -6568530.69544  22816064.8594                   22816063.9884
  -4518200.701 7  -3506906.030 6  23857950.977
 -22507280.641 8 -17516506.565 8  20237295.805
 -19900981.76747 -15432008.33045  21171752.0944                   21171752.3674
  -8458989.457 7  -6576038.356 6  23108917.063
 -18336627.509 8 -14272864.262 7  21082054.852
 -10315716.59647  -7356466.10244  23130400.4454                   23130399.8094
  -4519600.14046  -3473975.13844  23746395.0004                   23746394.5274
 11  8 15  4 28 30.0000000  0  8G18G25G29G26G05G15G21G02
  -8821212.67047  -6616783.11144  22804281.3054                   22804281.3444
  -4436145.691 7  -3442967.064 6  23873566.117
 -22514399.999 8 -17522054.120 8  20235941.148
 -19901390.75747 -15432327.00145  21171674.2894                   21171674.6684
  -8372184.896 7  -6508398.476 6  23125435.602
 -18389431.063 8 -14314009.862 7  21072006.992
 -10377846.94747  -7404879.33144  23118577.7274                   23118576.2734
  -4454233.72346  -3423040.32243  23758834.2344                   23758833.7154
 11  8 15  4 29  0.0000000  0  8G18G25G29G26G05G15G21G02
  -8882882.27347  -6664837.31744  22792546.0164                   22792546.2154
  -4354056.733 7  -3379001.637 6  23889186.523
 -22520979.355 8 -17527180.891 8  20234688.859
 -19901106.12247 -15432105.18345  21171727.9534                   21171729.2854
  -8285338.678 7  -6440726.104 6  23141961.453
 -18441734.275 8 -14354765.607 7  21062053.594
 -10440001.90047  -7453311.74544  23106749.8984                   23106748.5864
  -4388714.57346  -3371986.48043  23771302.3364                   23771301.0274
 11  8 15  4 29 30.0000000  0  8G18G25G29G26G05G15G21G02
  -8944296.87547  -6712692.83744  22780859.1484                   22780859.1524
  -4271936.388 7  -3315011.733 6  23904813.680
 -22527017.853 8 -17531886.216 8  20233540.117
 -19900126.92347 -15431342.14945  21171914.5394                   21171915.1994
  -8198452.045 6  -6373022.268 6  23158495.547
 -18493534.794 8 -14395129.631 7  21052196.727
 -10502180.88446  -7501762.89044  23094917.9224                   23094916.7074
  -4323042.35546  -3320813.32943  23783800.0394                   23783798.5164
 11  8 15  4 30  0.0000000  0  8G18G25G29G26G05G15G21G02
  -9005456.80247  -6760349.91444  22769220.9144                   22769220.1374
  -4189788.138 7  -3251000.104 6  23920445.688
 -22532514.795 8 -17536169.547 8  20232493.781
 -19898453.13447 -15430037.86845  21172232.9844                   21172233.7544
  -8111526.925 7  -6305288.438 7  23175036.688
 -18544831.095 8 -14435100.750 7  21042435.063
 -10564383.87747  -7550232.73944  23083080.9454                   23083079.9224
  -4257217.37546  -3269521.14543  23796324.7344                   23796323.6604
 11  8 15  4 30 30.0000000  0  8G18G25G29G26G05G15G21G02
  -9066361.93347  -6807808.42044  22757631.3054                   22757630.8594
  -4107614.850 7  -3186968.916 6  23936083.391
 -22537468.941 8 -17540029.929 8  20231551.094
 -19896084.41547 -15428192.10646  21172683.7114                   21172684.5634
  -8024565.268 7  -6237526.134 7  23191585.461
 -18595620.912 8 -14474677.223 7  21032769.727
 -10626610.12547  -7598720.68045  23071238.8364                   23071238.7504
  -4191238.88446  -3218109.38743  23808881.1174                   23808879.5234
 11  8 15  4 31  0.0000000  0  8G18G25G29G26G05G15G21G02
  -9127012.37647  -6855068.47344  22746089.9454                   22746089.6994
  -4025419.535 7  -3122920.636 6  23951723.844
 -22541879.749 8 -17543466.915 8  20230711.906
 -19893020.38447 -15425804.52445  21173267.2974                   21173267.5354
  -7937568.194 7  -6169736.223 7  23208140.180
 -18645902.058 8 -14513857.315 7  21023201.844
 -10688859.56347  -7647226.69244  23059393.4774                   23059393.0274
  -4125106.83246  -3166577.94443  23821465.4384                   23821463.4614
 11  8 15  4 31 30.0000000  0  8G18G25G29G26G05G15G21G02
  -9187407.82547  -6902129.84744  22734597.1334                   22734596.1644
  -3943205.209 7  -3058857.545 6  23967368.414
 -22545746.548 8 -17546480.016 8  20229976.250
 -19889260.90148 -15422875.03245  21173982.2584                   21173982.8054
  -7850537.636 7  -6101920.214 6  23224701.484
 -18695672.620 8 -14552639.542 7  21013730.641
 -10751131.45147  -7695750.21745  23047544.0004                   23047543.1414
  -4058821.19946  -3114926.87443  23834079.2274                   23834077.7074
